<?xml version="1.0" encoding="UTF-8" standalone="no" ?>
<gpx xmlns="http://www.topografix.com/GPX/1/1" xmlns:xsi="http://www.w3.org/2001/XMLSchema-instance" xsi:schemaLocation="http://www.topografix.com/GPX/1/1 http://www.topografix.com/GPX/1/1/gpx.xsd" version="1.1" creator="VisuGPX - https://www.visugpx.com">
  <metadata>
    <name>2024-05-09 -  De la Planèze de Saint Flour à la Margeride </name>
    <desc><![CDATA[Belle balade au départ du Sailhant sur la Planèze, qui passe par Saint-Flour puis à travers vallées et forêts, atteint les sommets du nord de la Margeride et revient sur la Planèze en passant par le très beau château de Sailhant et la très belle cascade qui se trouve à proximité. C'est un itinéraire exigeant en distance avec un dénivelé important (pour moi...). Attention, entre les km 41 et 43, le bois sous le Serre de Carre a été travaillé et le chemin existant sur le carte IGN n'est pas praticable... nous avons fait demi-tour et pris la route. De même entre les km 48 et 50, les chemins à l'ouest du Puech de Faye ont été bouchés par les agriculteurs... nous sommes passés à travers champs et prairies et au-dessus de clôtures barbelées pour rejoindre Chadelat.]]></desc>
  </metadata>
  <trk>
    <name><![CDATA[Tour Planèze - Margeride au départ du Sailhant - 43626 - UtagawaVTT.com]]></name>
    <trkseg>
      <trkpt lat="45.07116" lon="3.04137">
        <ele>870</ele>
        <time>2024-05-11T09:31:50Z</time>
      </trkpt>
      <trkpt lat="45.07082" lon="3.04167">
        <ele>868</ele>
        <time>2024-05-11T09:31:59Z</time>
      </trkpt>
      <trkpt lat="45.0706" lon="3.04196">
        <ele>862</ele>
        <time>2024-05-11T09:32:06Z</time>
      </trkpt>
      <trkpt lat="45.07052" lon="3.04201">
        <ele>860</ele>
        <time>2024-05-11T09:32:08Z</time>
      </trkpt>
      <trkpt lat="45.07047" lon="3.04202">
        <ele>860</ele>
        <time>2024-05-11T09:32:10Z</time>
      </trkpt>
      <trkpt lat="45.07033" lon="3.04199">
        <ele>858</ele>
        <time>2024-05-11T09:32:13Z</time>
      </trkpt>
      <trkpt lat="45.07024" lon="3.04192">
        <ele>858</ele>
        <time>2024-05-11T09:32:15Z</time>
      </trkpt>
      <trkpt lat="45.07017" lon="3.04172">
        <ele>859</ele>
        <time>2024-05-11T09:32:19Z</time>
      </trkpt>
      <trkpt lat="45.07018" lon="3.04156">
        <ele>860</ele>
        <time>2024-05-11T09:32:22Z</time>
      </trkpt>
      <trkpt lat="45.07031" lon="3.04101">
        <ele>862</ele>
        <time>2024-05-11T09:32:31Z</time>
      </trkpt>
      <trkpt lat="45.07028" lon="3.04072">
        <ele>863</ele>
        <time>2024-05-11T09:32:36Z</time>
      </trkpt>
      <trkpt lat="45.07019" lon="3.04058">
        <ele>862</ele>
        <time>2024-05-11T09:32:39Z</time>
      </trkpt>
      <trkpt lat="45.06962" lon="3.04004">
        <ele>856</ele>
        <time>2024-05-11T09:32:55Z</time>
      </trkpt>
      <trkpt lat="45.06937" lon="3.03991">
        <ele>854</ele>
        <time>2024-05-11T09:33:01Z</time>
      </trkpt>
      <trkpt lat="45.06925" lon="3.03988">
        <ele>854</ele>
        <time>2024-05-11T09:33:04Z</time>
      </trkpt>
      <trkpt lat="45.06917" lon="3.03989">
        <ele>853</ele>
        <time>2024-05-11T09:33:06Z</time>
      </trkpt>
      <trkpt lat="45.06878" lon="3.04021">
        <ele>847</ele>
        <time>2024-05-11T09:33:17Z</time>
      </trkpt>
      <trkpt lat="45.06818" lon="3.0406">
        <ele>839</ele>
        <time>2024-05-11T09:33:32Z</time>
      </trkpt>
      <trkpt lat="45.06789" lon="3.04061">
        <ele>836</ele>
        <time>2024-05-11T09:33:39Z</time>
      </trkpt>
      <trkpt lat="45.06789" lon="3.04065">
        <ele>835</ele>
        <time>2024-05-11T09:33:39Z</time>
      </trkpt>
      <trkpt lat="45.06791" lon="3.04057">
        <ele>837</ele>
        <time>2024-05-11T09:33:41Z</time>
      </trkpt>
      <trkpt lat="45.06806" lon="3.04065">
        <ele>837</ele>
        <time>2024-05-11T09:33:45Z</time>
      </trkpt>
      <trkpt lat="45.0681" lon="3.04064">
        <ele>837</ele>
        <time>2024-05-11T09:33:46Z</time>
      </trkpt>
      <trkpt lat="45.0681" lon="3.04061">
        <ele>838</ele>
        <time>2024-05-11T09:33:46Z</time>
      </trkpt>
      <trkpt lat="45.06807" lon="3.04055">
        <ele>838</ele>
        <time>2024-05-11T09:33:47Z</time>
      </trkpt>
      <trkpt lat="45.06789" lon="3.04045">
        <ele>838</ele>
        <time>2024-05-11T09:33:52Z</time>
      </trkpt>
      <trkpt lat="45.0678" lon="3.04021">
        <ele>841</ele>
        <time>2024-05-11T09:33:56Z</time>
      </trkpt>
      <trkpt lat="45.06771" lon="3.04006">
        <ele>843</ele>
        <time>2024-05-11T09:34:00Z</time>
      </trkpt>
      <trkpt lat="45.06754" lon="3.03991">
        <ele>845</ele>
        <time>2024-05-11T09:34:04Z</time>
      </trkpt>
      <trkpt lat="45.06728" lon="3.03951">
        <ele>853</ele>
        <time>2024-05-11T09:34:13Z</time>
      </trkpt>
      <trkpt lat="45.06715" lon="3.03939">
        <ele>855</ele>
        <time>2024-05-11T09:34:17Z</time>
      </trkpt>
      <trkpt lat="45.06698" lon="3.03928">
        <ele>857</ele>
        <time>2024-05-11T09:34:21Z</time>
      </trkpt>
      <trkpt lat="45.06667" lon="3.03899">
        <ele>865</ele>
        <time>2024-05-11T09:34:30Z</time>
      </trkpt>
      <trkpt lat="45.06643" lon="3.03853">
        <ele>873</ele>
        <time>2024-05-11T09:34:39Z</time>
      </trkpt>
      <trkpt lat="45.06613" lon="3.03825">
        <ele>875</ele>
        <time>2024-05-11T09:34:48Z</time>
      </trkpt>
      <trkpt lat="45.06597" lon="3.03792">
        <ele>882</ele>
        <time>2024-05-11T09:34:54Z</time>
      </trkpt>
      <trkpt lat="45.06557" lon="3.03742">
        <ele>891</ele>
        <time>2024-05-11T09:35:07Z</time>
      </trkpt>
      <trkpt lat="45.06536" lon="3.03709">
        <ele>897</ele>
        <time>2024-05-11T09:35:14Z</time>
      </trkpt>
      <trkpt lat="45.06519" lon="3.03691">
        <ele>900</ele>
        <time>2024-05-11T09:35:19Z</time>
      </trkpt>
      <trkpt lat="45.06476" lon="3.03663">
        <ele>905</ele>
        <time>2024-05-11T09:35:30Z</time>
      </trkpt>
      <trkpt lat="45.0646" lon="3.0365">
        <ele>908</ele>
        <time>2024-05-11T09:35:34Z</time>
      </trkpt>
      <trkpt lat="45.06442" lon="3.0364">
        <ele>909</ele>
        <time>2024-05-11T09:35:39Z</time>
      </trkpt>
      <trkpt lat="45.064" lon="3.03607">
        <ele>917</ele>
        <time>2024-05-11T09:35:50Z</time>
      </trkpt>
      <trkpt lat="45.06388" lon="3.036">
        <ele>918</ele>
        <time>2024-05-11T09:35:53Z</time>
      </trkpt>
      <trkpt lat="45.06366" lon="3.03581">
        <ele>922</ele>
        <time>2024-05-11T09:35:59Z</time>
      </trkpt>
      <trkpt lat="45.06335" lon="3.03564">
        <ele>923</ele>
        <time>2024-05-11T09:36:07Z</time>
      </trkpt>
      <trkpt lat="45.06294" lon="3.03528">
        <ele>924</ele>
        <time>2024-05-11T09:36:18Z</time>
      </trkpt>
      <trkpt lat="45.06258" lon="3.03507">
        <ele>923</ele>
        <time>2024-05-11T09:36:27Z</time>
      </trkpt>
      <trkpt lat="45.06226" lon="3.03479">
        <ele>921</ele>
        <time>2024-05-11T09:36:36Z</time>
      </trkpt>
      <trkpt lat="45.06205" lon="3.03448">
        <ele>921</ele>
        <time>2024-05-11T09:36:43Z</time>
      </trkpt>
      <trkpt lat="45.06163" lon="3.03408">
        <ele>921</ele>
        <time>2024-05-11T09:36:55Z</time>
      </trkpt>
      <trkpt lat="45.06134" lon="3.03392">
        <ele>922</ele>
        <time>2024-05-11T09:37:02Z</time>
      </trkpt>
      <trkpt lat="45.06024" lon="3.03348">
        <ele>924</ele>
        <time>2024-05-11T09:37:29Z</time>
      </trkpt>
      <trkpt lat="45.06003" lon="3.03336">
        <ele>924</ele>
        <time>2024-05-11T09:37:34Z</time>
      </trkpt>
      <trkpt lat="45.0599" lon="3.03334">
        <ele>925</ele>
        <time>2024-05-11T09:37:37Z</time>
      </trkpt>
      <trkpt lat="45.05982" lon="3.03342">
        <ele>924</ele>
        <time>2024-05-11T09:37:40Z</time>
      </trkpt>
      <trkpt lat="45.05976" lon="3.03353">
        <ele>924</ele>
        <time>2024-05-11T09:37:42Z</time>
      </trkpt>
      <trkpt lat="45.05971" lon="3.03375">
        <ele>923</ele>
        <time>2024-05-11T09:37:46Z</time>
      </trkpt>
      <trkpt lat="45.05949" lon="3.03429">
        <ele>922</ele>
        <time>2024-05-11T09:37:56Z</time>
      </trkpt>
      <trkpt lat="45.05941" lon="3.03441">
        <ele>922</ele>
        <time>2024-05-11T09:37:59Z</time>
      </trkpt>
      <trkpt lat="45.05929" lon="3.0347">
        <ele>921</ele>
        <time>2024-05-11T09:38:04Z</time>
      </trkpt>
      <trkpt lat="45.05897" lon="3.03516">
        <ele>920</ele>
        <time>2024-05-11T09:38:15Z</time>
      </trkpt>
      <trkpt lat="45.0588" lon="3.03548">
        <ele>918</ele>
        <time>2024-05-11T09:38:21Z</time>
      </trkpt>
      <trkpt lat="45.05874" lon="3.03573">
        <ele>915</ele>
        <time>2024-05-11T09:38:26Z</time>
      </trkpt>
      <trkpt lat="45.05868" lon="3.03586">
        <ele>914</ele>
        <time>2024-05-11T09:38:28Z</time>
      </trkpt>
      <trkpt lat="45.05856" lon="3.03597">
        <ele>915</ele>
        <time>2024-05-11T09:38:32Z</time>
      </trkpt>
      <trkpt lat="45.05845" lon="3.03616">
        <ele>914</ele>
        <time>2024-05-11T09:38:36Z</time>
      </trkpt>
      <trkpt lat="45.05813" lon="3.03684">
        <ele>911</ele>
        <time>2024-05-11T09:38:49Z</time>
      </trkpt>
      <trkpt lat="45.058" lon="3.03706">
        <ele>910</ele>
        <time>2024-05-11T09:38:54Z</time>
      </trkpt>
      <trkpt lat="45.05783" lon="3.03728">
        <ele>909</ele>
        <time>2024-05-11T09:38:59Z</time>
      </trkpt>
      <trkpt lat="45.05757" lon="3.03748">
        <ele>908</ele>
        <time>2024-05-11T09:39:06Z</time>
      </trkpt>
      <trkpt lat="45.05756" lon="3.03759">
        <ele>907</ele>
        <time>2024-05-11T09:39:08Z</time>
      </trkpt>
      <trkpt lat="45.05757" lon="3.03761">
        <ele>907</ele>
        <time>2024-05-11T09:39:09Z</time>
      </trkpt>
      <trkpt lat="45.05758" lon="3.03756">
        <ele>907</ele>
        <time>2024-05-11T09:39:09Z</time>
      </trkpt>
      <trkpt lat="45.05765" lon="3.03809">
        <ele>904</ele>
        <time>2024-05-11T09:39:18Z</time>
      </trkpt>
      <trkpt lat="45.05764" lon="3.03851">
        <ele>902</ele>
        <time>2024-05-11T09:39:25Z</time>
      </trkpt>
      <trkpt lat="45.05718" lon="3.04039">
        <ele>888</ele>
        <time>2024-05-11T09:39:58Z</time>
      </trkpt>
      <trkpt lat="45.05706" lon="3.04117">
        <ele>882</ele>
        <time>2024-05-11T09:40:11Z</time>
      </trkpt>
      <trkpt lat="45.05684" lon="3.04188">
        <ele>874</ele>
        <time>2024-05-11T09:40:24Z</time>
      </trkpt>
      <trkpt lat="45.0568" lon="3.04214">
        <ele>871</ele>
        <time>2024-05-11T09:40:28Z</time>
      </trkpt>
      <trkpt lat="45.05679" lon="3.04308">
        <ele>868</ele>
        <time>2024-05-11T09:40:44Z</time>
      </trkpt>
      <trkpt lat="45.05661" lon="3.04416">
        <ele>857</ele>
        <time>2024-05-11T09:41:02Z</time>
      </trkpt>
      <trkpt lat="45.05661" lon="3.04433">
        <ele>855</ele>
        <time>2024-05-11T09:41:05Z</time>
      </trkpt>
      <trkpt lat="45.05674" lon="3.04466">
        <ele>853</ele>
        <time>2024-05-11T09:41:11Z</time>
      </trkpt>
      <trkpt lat="45.0567" lon="3.04476">
        <ele>851</ele>
        <time>2024-05-11T09:41:13Z</time>
      </trkpt>
      <trkpt lat="45.05665" lon="3.04477">
        <ele>850</ele>
        <time>2024-05-11T09:41:14Z</time>
      </trkpt>
      <trkpt lat="45.05638" lon="3.04454">
        <ele>847</ele>
        <time>2024-05-11T09:41:22Z</time>
      </trkpt>
      <trkpt lat="45.05606" lon="3.04411">
        <ele>844</ele>
        <time>2024-05-11T09:41:32Z</time>
      </trkpt>
      <trkpt lat="45.05589" lon="3.04377">
        <ele>842</ele>
        <time>2024-05-11T09:41:39Z</time>
      </trkpt>
      <trkpt lat="45.05548" lon="3.04265">
        <ele>838</ele>
        <time>2024-05-11T09:42:00Z</time>
      </trkpt>
      <trkpt lat="45.05538" lon="3.04245">
        <ele>837</ele>
        <time>2024-05-11T09:42:04Z</time>
      </trkpt>
      <trkpt lat="45.05525" lon="3.0423">
        <ele>836</ele>
        <time>2024-05-11T09:42:08Z</time>
      </trkpt>
      <trkpt lat="45.05394" lon="3.04165">
        <ele>825</ele>
        <time>2024-05-11T09:42:40Z</time>
      </trkpt>
      <trkpt lat="45.05347" lon="3.04138">
        <ele>823</ele>
        <time>2024-05-11T09:42:52Z</time>
      </trkpt>
      <trkpt lat="45.05326" lon="3.04121">
        <ele>822</ele>
        <time>2024-05-11T09:42:58Z</time>
      </trkpt>
      <trkpt lat="45.05279" lon="3.04071">
        <ele>823</ele>
        <time>2024-05-11T09:43:11Z</time>
      </trkpt>
      <trkpt lat="45.05274" lon="3.04069">
        <ele>823</ele>
        <time>2024-05-11T09:43:12Z</time>
      </trkpt>
      <trkpt lat="45.05263" lon="3.0407">
        <ele>823</ele>
        <time>2024-05-11T09:43:15Z</time>
      </trkpt>
      <trkpt lat="45.05231" lon="3.04082">
        <ele>822</ele>
        <time>2024-05-11T09:43:23Z</time>
      </trkpt>
      <trkpt lat="45.05225" lon="3.0408">
        <ele>822</ele>
        <time>2024-05-11T09:43:24Z</time>
      </trkpt>
      <trkpt lat="45.05223" lon="3.04073">
        <ele>822</ele>
        <time>2024-05-11T09:43:25Z</time>
      </trkpt>
      <trkpt lat="45.05225" lon="3.04062">
        <ele>823</ele>
        <time>2024-05-11T09:43:27Z</time>
      </trkpt>
      <trkpt lat="45.05225" lon="3.04009">
        <ele>824</ele>
        <time>2024-05-11T09:43:36Z</time>
      </trkpt>
      <trkpt lat="45.05222" lon="3.03961">
        <ele>825</ele>
        <time>2024-05-11T09:43:44Z</time>
      </trkpt>
      <trkpt lat="45.05213" lon="3.03942">
        <ele>825</ele>
        <time>2024-05-11T09:43:48Z</time>
      </trkpt>
      <trkpt lat="45.05208" lon="3.03913">
        <ele>826</ele>
        <time>2024-05-11T09:43:53Z</time>
      </trkpt>
      <trkpt lat="45.05204" lon="3.03904">
        <ele>826</ele>
        <time>2024-05-11T09:43:54Z</time>
      </trkpt>
      <trkpt lat="45.05198" lon="3.03896">
        <ele>825</ele>
        <time>2024-05-11T09:43:56Z</time>
      </trkpt>
      <trkpt lat="45.05187" lon="3.03891">
        <ele>825</ele>
        <time>2024-05-11T09:43:59Z</time>
      </trkpt>
      <trkpt lat="45.05146" lon="3.03908">
        <ele>823</ele>
        <time>2024-05-11T09:44:09Z</time>
      </trkpt>
      <trkpt lat="45.05141" lon="3.03915">
        <ele>823</ele>
        <time>2024-05-11T09:44:11Z</time>
      </trkpt>
      <trkpt lat="45.05137" lon="3.03925">
        <ele>823</ele>
        <time>2024-05-11T09:44:13Z</time>
      </trkpt>
      <trkpt lat="45.05134" lon="3.03956">
        <ele>822</ele>
        <time>2024-05-11T09:44:18Z</time>
      </trkpt>
      <trkpt lat="45.05117" lon="3.04038">
        <ele>821</ele>
        <time>2024-05-11T09:44:32Z</time>
      </trkpt>
      <trkpt lat="45.05114" lon="3.04042">
        <ele>821</ele>
        <time>2024-05-11T09:44:33Z</time>
      </trkpt>
      <trkpt lat="45.0511" lon="3.04044">
        <ele>821</ele>
        <time>2024-05-11T09:44:34Z</time>
      </trkpt>
      <trkpt lat="45.05102" lon="3.04043">
        <ele>821</ele>
        <time>2024-05-11T09:44:36Z</time>
      </trkpt>
      <trkpt lat="45.05061" lon="3.04021">
        <ele>822</ele>
        <time>2024-05-11T09:44:46Z</time>
      </trkpt>
      <trkpt lat="45.0504" lon="3.04021">
        <ele>823</ele>
        <time>2024-05-11T09:44:51Z</time>
      </trkpt>
      <trkpt lat="45.05025" lon="3.04027">
        <ele>824</ele>
        <time>2024-05-11T09:44:54Z</time>
      </trkpt>
      <trkpt lat="45.04981" lon="3.04057">
        <ele>829</ele>
        <time>2024-05-11T09:45:06Z</time>
      </trkpt>
      <trkpt lat="45.04942" lon="3.04087">
        <ele>837</ele>
        <time>2024-05-11T09:45:16Z</time>
      </trkpt>
      <trkpt lat="45.0491" lon="3.04118">
        <ele>843</ele>
        <time>2024-05-11T09:45:25Z</time>
      </trkpt>
      <trkpt lat="45.04883" lon="3.04135">
        <ele>847</ele>
        <time>2024-05-11T09:45:32Z</time>
      </trkpt>
      <trkpt lat="45.04875" lon="3.04143">
        <ele>848</ele>
        <time>2024-05-11T09:45:34Z</time>
      </trkpt>
      <trkpt lat="45.04865" lon="3.04169">
        <ele>849</ele>
        <time>2024-05-11T09:45:39Z</time>
      </trkpt>
      <trkpt lat="45.04857" lon="3.04223">
        <ele>848</ele>
        <time>2024-05-11T09:45:48Z</time>
      </trkpt>
      <trkpt lat="45.04849" lon="3.04235">
        <ele>848</ele>
        <time>2024-05-11T09:45:51Z</time>
      </trkpt>
      <trkpt lat="45.04837" lon="3.04235">
        <ele>850</ele>
        <time>2024-05-11T09:45:54Z</time>
      </trkpt>
      <trkpt lat="45.04801" lon="3.04196">
        <ele>857</ele>
        <time>2024-05-11T09:46:05Z</time>
      </trkpt>
      <trkpt lat="45.04793" lon="3.04196">
        <ele>858</ele>
        <time>2024-05-11T09:46:06Z</time>
      </trkpt>
      <trkpt lat="45.04787" lon="3.04204">
        <ele>858</ele>
        <time>2024-05-11T09:46:08Z</time>
      </trkpt>
      <trkpt lat="45.04782" lon="3.04217">
        <ele>858</ele>
        <time>2024-05-11T09:46:11Z</time>
      </trkpt>
      <trkpt lat="45.04768" lon="3.04269">
        <ele>856</ele>
        <time>2024-05-11T09:46:20Z</time>
      </trkpt>
      <trkpt lat="45.04751" lon="3.04298">
        <ele>856</ele>
        <time>2024-05-11T09:46:26Z</time>
      </trkpt>
      <trkpt lat="45.04729" lon="3.04329">
        <ele>857</ele>
        <time>2024-05-11T09:46:33Z</time>
      </trkpt>
      <trkpt lat="45.04703" lon="3.04357">
        <ele>859</ele>
        <time>2024-05-11T09:46:41Z</time>
      </trkpt>
      <trkpt lat="45.04675" lon="3.04381">
        <ele>861</ele>
        <time>2024-05-11T09:46:49Z</time>
      </trkpt>
      <trkpt lat="45.04655" lon="3.04408">
        <ele>860</ele>
        <time>2024-05-11T09:46:55Z</time>
      </trkpt>
      <trkpt lat="45.04649" lon="3.0442">
        <ele>860</ele>
        <time>2024-05-11T09:46:58Z</time>
      </trkpt>
      <trkpt lat="45.04642" lon="3.0448">
        <ele>860</ele>
        <time>2024-05-11T09:47:08Z</time>
      </trkpt>
      <trkpt lat="45.04635" lon="3.04516">
        <ele>860</ele>
        <time>2024-05-11T09:47:14Z</time>
      </trkpt>
      <trkpt lat="45.04636" lon="3.04524">
        <ele>860</ele>
        <time>2024-05-11T09:47:15Z</time>
      </trkpt>
      <trkpt lat="45.04646" lon="3.0455">
        <ele>859</ele>
        <time>2024-05-11T09:47:20Z</time>
      </trkpt>
      <trkpt lat="45.04663" lon="3.04587">
        <ele>858</ele>
        <time>2024-05-11T09:47:27Z</time>
      </trkpt>
      <trkpt lat="45.04666" lon="3.046">
        <ele>857</ele>
        <time>2024-05-11T09:47:30Z</time>
      </trkpt>
      <trkpt lat="45.04665" lon="3.04615">
        <ele>857</ele>
        <time>2024-05-11T09:47:32Z</time>
      </trkpt>
      <trkpt lat="45.04661" lon="3.04628">
        <ele>856</ele>
        <time>2024-05-11T09:47:34Z</time>
      </trkpt>
      <trkpt lat="45.04656" lon="3.04633">
        <ele>856</ele>
        <time>2024-05-11T09:47:36Z</time>
      </trkpt>
      <trkpt lat="45.0463" lon="3.04646">
        <ele>856</ele>
        <time>2024-05-11T09:47:42Z</time>
      </trkpt>
      <trkpt lat="45.04621" lon="3.04655">
        <ele>856</ele>
        <time>2024-05-11T09:47:45Z</time>
      </trkpt>
      <trkpt lat="45.04619" lon="3.04669">
        <ele>855</ele>
        <time>2024-05-11T09:47:47Z</time>
      </trkpt>
      <trkpt lat="45.04625" lon="3.04694">
        <ele>855</ele>
        <time>2024-05-11T09:47:52Z</time>
      </trkpt>
      <trkpt lat="45.04636" lon="3.04706">
        <ele>854</ele>
        <time>2024-05-11T09:47:55Z</time>
      </trkpt>
      <trkpt lat="45.04643" lon="3.04707">
        <ele>854</ele>
        <time>2024-05-11T09:47:56Z</time>
      </trkpt>
      <trkpt lat="45.0466" lon="3.04703">
        <ele>854</ele>
        <time>2024-05-11T09:48:00Z</time>
      </trkpt>
      <trkpt lat="45.04687" lon="3.04689">
        <ele>853</ele>
        <time>2024-05-11T09:48:07Z</time>
      </trkpt>
      <trkpt lat="45.04693" lon="3.04689">
        <ele>852</ele>
        <time>2024-05-11T09:48:09Z</time>
      </trkpt>
      <trkpt lat="45.04699" lon="3.04695">
        <ele>852</ele>
        <time>2024-05-11T09:48:10Z</time>
      </trkpt>
      <trkpt lat="45.0471" lon="3.04719">
        <ele>851</ele>
        <time>2024-05-11T09:48:15Z</time>
      </trkpt>
      <trkpt lat="45.04727" lon="3.04784">
        <ele>850</ele>
        <time>2024-05-11T09:48:26Z</time>
      </trkpt>
      <trkpt lat="45.04748" lon="3.04921">
        <ele>847</ele>
        <time>2024-05-11T09:48:50Z</time>
      </trkpt>
      <trkpt lat="45.04754" lon="3.04931">
        <ele>846</ele>
        <time>2024-05-11T09:48:52Z</time>
      </trkpt>
      <trkpt lat="45.0476" lon="3.04937">
        <ele>846</ele>
        <time>2024-05-11T09:48:53Z</time>
      </trkpt>
      <trkpt lat="45.04778" lon="3.04942">
        <ele>845</ele>
        <time>2024-05-11T09:48:58Z</time>
      </trkpt>
      <trkpt lat="45.04803" lon="3.04955">
        <ele>845</ele>
        <time>2024-05-11T09:49:04Z</time>
      </trkpt>
      <trkpt lat="45.0485" lon="3.04985">
        <ele>843</ele>
        <time>2024-05-11T09:49:16Z</time>
      </trkpt>
      <trkpt lat="45.04889" lon="3.05026">
        <ele>842</ele>
        <time>2024-05-11T09:49:27Z</time>
      </trkpt>
      <trkpt lat="45.04934" lon="3.05066">
        <ele>840</ele>
        <time>2024-05-11T09:49:40Z</time>
      </trkpt>
      <trkpt lat="45.04949" lon="3.0509">
        <ele>838</ele>
        <time>2024-05-11T09:49:45Z</time>
      </trkpt>
      <trkpt lat="45.0499" lon="3.05145">
        <ele>832</ele>
        <time>2024-05-11T09:49:58Z</time>
      </trkpt>
      <trkpt lat="45.05035" lon="3.0519">
        <ele>827</ele>
        <time>2024-05-11T09:50:11Z</time>
      </trkpt>
      <trkpt lat="45.05053" lon="3.05214">
        <ele>825</ele>
        <time>2024-05-11T09:50:17Z</time>
      </trkpt>
      <trkpt lat="45.05085" lon="3.05288">
        <ele>821</ele>
        <time>2024-05-11T09:50:31Z</time>
      </trkpt>
      <trkpt lat="45.05106" lon="3.05362">
        <ele>821</ele>
        <time>2024-05-11T09:50:44Z</time>
      </trkpt>
      <trkpt lat="45.05094" lon="3.05348">
        <ele>821</ele>
        <time>2024-05-11T09:50:48Z</time>
      </trkpt>
      <trkpt lat="45.0509" lon="3.05351">
        <ele>822</ele>
        <time>2024-05-11T09:50:49Z</time>
      </trkpt>
      <trkpt lat="45.05084" lon="3.05359">
        <ele>822</ele>
        <time>2024-05-11T09:50:51Z</time>
      </trkpt>
      <trkpt lat="45.05079" lon="3.05374">
        <ele>824</ele>
        <time>2024-05-11T09:50:54Z</time>
      </trkpt>
      <trkpt lat="45.05081" lon="3.05385">
        <ele>824</ele>
        <time>2024-05-11T09:50:56Z</time>
      </trkpt>
      <trkpt lat="45.0509" lon="3.05394">
        <ele>824</ele>
        <time>2024-05-11T09:50:58Z</time>
      </trkpt>
      <trkpt lat="45.05119" lon="3.05404">
        <ele>822</ele>
        <time>2024-05-11T09:51:05Z</time>
      </trkpt>
      <trkpt lat="45.05128" lon="3.05415">
        <ele>821</ele>
        <time>2024-05-11T09:51:08Z</time>
      </trkpt>
      <trkpt lat="45.05154" lon="3.05505">
        <ele>823</ele>
        <time>2024-05-11T09:51:24Z</time>
      </trkpt>
      <trkpt lat="45.05156" lon="3.05531">
        <ele>825</ele>
        <time>2024-05-11T09:51:28Z</time>
      </trkpt>
      <trkpt lat="45.05125" lon="3.05582">
        <ele>831</ele>
        <time>2024-05-11T09:51:39Z</time>
      </trkpt>
      <trkpt lat="45.05108" lon="3.0562">
        <ele>832</ele>
        <time>2024-05-11T09:51:47Z</time>
      </trkpt>
      <trkpt lat="45.05094" lon="3.05632">
        <ele>832</ele>
        <time>2024-05-11T09:51:51Z</time>
      </trkpt>
      <trkpt lat="45.05051" lon="3.05658">
        <ele>835</ele>
        <time>2024-05-11T09:52:02Z</time>
      </trkpt>
      <trkpt lat="45.05038" lon="3.05663">
        <ele>836</ele>
        <time>2024-05-11T09:52:05Z</time>
      </trkpt>
      <trkpt lat="45.05027" lon="3.05673">
        <ele>837</ele>
        <time>2024-05-11T09:52:08Z</time>
      </trkpt>
      <trkpt lat="45.05009" lon="3.05724">
        <ele>838</ele>
        <time>2024-05-11T09:52:17Z</time>
      </trkpt>
      <trkpt lat="45.05004" lon="3.05752">
        <ele>839</ele>
        <time>2024-05-11T09:52:22Z</time>
      </trkpt>
      <trkpt lat="45.04999" lon="3.05814">
        <ele>841</ele>
        <time>2024-05-11T09:52:32Z</time>
      </trkpt>
      <trkpt lat="45.04986" lon="3.05903">
        <ele>848</ele>
        <time>2024-05-11T09:52:47Z</time>
      </trkpt>
      <trkpt lat="45.04989" lon="3.0597">
        <ele>851</ele>
        <time>2024-05-11T09:52:58Z</time>
      </trkpt>
      <trkpt lat="45.04984" lon="3.06018">
        <ele>853</ele>
        <time>2024-05-11T09:53:06Z</time>
      </trkpt>
      <trkpt lat="45.04983" lon="3.06065">
        <ele>851</ele>
        <time>2024-05-11T09:53:14Z</time>
      </trkpt>
      <trkpt lat="45.04978" lon="3.06097">
        <ele>851</ele>
        <time>2024-05-11T09:53:19Z</time>
      </trkpt>
      <trkpt lat="45.0496" lon="3.06136">
        <ele>853</ele>
        <time>2024-05-11T09:53:27Z</time>
      </trkpt>
      <trkpt lat="45.04913" lon="3.06276">
        <ele>848</ele>
        <time>2024-05-11T09:53:53Z</time>
      </trkpt>
      <trkpt lat="45.04904" lon="3.06293">
        <ele>846</ele>
        <time>2024-05-11T09:53:56Z</time>
      </trkpt>
      <trkpt lat="45.04898" lon="3.06325">
        <ele>843</ele>
        <time>2024-05-11T09:54:02Z</time>
      </trkpt>
      <trkpt lat="45.04867" lon="3.06415">
        <ele>840</ele>
        <time>2024-05-11T09:54:18Z</time>
      </trkpt>
      <trkpt lat="45.0485" lon="3.06437">
        <ele>839</ele>
        <time>2024-05-11T09:54:24Z</time>
      </trkpt>
      <trkpt lat="45.04829" lon="3.06448">
        <ele>839</ele>
        <time>2024-05-11T09:54:29Z</time>
      </trkpt>
      <trkpt lat="45.04784" lon="3.0648">
        <ele>836</ele>
        <time>2024-05-11T09:54:41Z</time>
      </trkpt>
      <trkpt lat="45.04763" lon="3.06502">
        <ele>836</ele>
        <time>2024-05-11T09:54:47Z</time>
      </trkpt>
      <trkpt lat="45.04752" lon="3.06524">
        <ele>836</ele>
        <time>2024-05-11T09:54:51Z</time>
      </trkpt>
      <trkpt lat="45.0475" lon="3.0655">
        <ele>837</ele>
        <time>2024-05-11T09:54:55Z</time>
      </trkpt>
      <trkpt lat="45.04785" lon="3.0658">
        <ele>834</ele>
        <time>2024-05-11T09:55:05Z</time>
      </trkpt>
      <trkpt lat="45.04802" lon="3.06607">
        <ele>831</ele>
        <time>2024-05-11T09:55:11Z</time>
      </trkpt>
      <trkpt lat="45.04802" lon="3.06621">
        <ele>831</ele>
        <time>2024-05-11T09:55:13Z</time>
      </trkpt>
      <trkpt lat="45.04793" lon="3.06634">
        <ele>831</ele>
        <time>2024-05-11T09:55:16Z</time>
      </trkpt>
      <trkpt lat="45.04767" lon="3.0665">
        <ele>832</ele>
        <time>2024-05-11T09:55:23Z</time>
      </trkpt>
      <trkpt lat="45.04757" lon="3.06665">
        <ele>832</ele>
        <time>2024-05-11T09:55:26Z</time>
      </trkpt>
      <trkpt lat="45.04731" lon="3.06685">
        <ele>832</ele>
        <time>2024-05-11T09:55:33Z</time>
      </trkpt>
      <trkpt lat="45.04702" lon="3.06724">
        <ele>831</ele>
        <time>2024-05-11T09:55:43Z</time>
      </trkpt>
      <trkpt lat="45.04682" lon="3.06781">
        <ele>830</ele>
        <time>2024-05-11T09:55:53Z</time>
      </trkpt>
      <trkpt lat="45.04669" lon="3.06833">
        <ele>831</ele>
        <time>2024-05-11T09:56:02Z</time>
      </trkpt>
      <trkpt lat="45.04645" lon="3.06903">
        <ele>835</ele>
        <time>2024-05-11T09:56:15Z</time>
      </trkpt>
      <trkpt lat="45.04617" lon="3.06951">
        <ele>836</ele>
        <time>2024-05-11T09:56:25Z</time>
      </trkpt>
      <trkpt lat="45.04584" lon="3.06987">
        <ele>838</ele>
        <time>2024-05-11T09:56:35Z</time>
      </trkpt>
      <trkpt lat="45.04573" lon="3.07004">
        <ele>840</ele>
        <time>2024-05-11T09:56:39Z</time>
      </trkpt>
      <trkpt lat="45.04559" lon="3.07036">
        <ele>842</ele>
        <time>2024-05-11T09:56:45Z</time>
      </trkpt>
      <trkpt lat="45.04533" lon="3.07114">
        <ele>847</ele>
        <time>2024-05-11T09:56:59Z</time>
      </trkpt>
      <trkpt lat="45.04519" lon="3.07143">
        <ele>848</ele>
        <time>2024-05-11T09:57:05Z</time>
      </trkpt>
      <trkpt lat="45.045" lon="3.07174">
        <ele>850</ele>
        <time>2024-05-11T09:57:12Z</time>
      </trkpt>
      <trkpt lat="45.04493" lon="3.07181">
        <ele>850</ele>
        <time>2024-05-11T09:57:14Z</time>
      </trkpt>
      <trkpt lat="45.04444" lon="3.07252">
        <ele>853</ele>
        <time>2024-05-11T09:57:30Z</time>
      </trkpt>
      <trkpt lat="45.04428" lon="3.07269">
        <ele>854</ele>
        <time>2024-05-11T09:57:35Z</time>
      </trkpt>
      <trkpt lat="45.04387" lon="3.07303">
        <ele>858</ele>
        <time>2024-05-11T09:57:46Z</time>
      </trkpt>
      <trkpt lat="45.04366" lon="3.07315">
        <ele>862</ele>
        <time>2024-05-11T09:57:51Z</time>
      </trkpt>
      <trkpt lat="45.04334" lon="3.07348">
        <ele>868</ele>
        <time>2024-05-11T09:58:00Z</time>
      </trkpt>
      <trkpt lat="45.04312" lon="3.07378">
        <ele>871</ele>
        <time>2024-05-11T09:58:08Z</time>
      </trkpt>
      <trkpt lat="45.04292" lon="3.07396">
        <ele>873</ele>
        <time>2024-05-11T09:58:13Z</time>
      </trkpt>
      <trkpt lat="45.04271" lon="3.07411">
        <ele>875</ele>
        <time>2024-05-11T09:58:19Z</time>
      </trkpt>
      <trkpt lat="45.04238" lon="3.07426">
        <ele>878</ele>
        <time>2024-05-11T09:58:27Z</time>
      </trkpt>
      <trkpt lat="45.04213" lon="3.07446">
        <ele>880</ele>
        <time>2024-05-11T09:58:33Z</time>
      </trkpt>
      <trkpt lat="45.04209" lon="3.07446">
        <ele>880</ele>
        <time>2024-05-11T09:58:34Z</time>
      </trkpt>
      <trkpt lat="45.042" lon="3.07458">
        <ele>881</ele>
        <time>2024-05-11T09:58:37Z</time>
      </trkpt>
      <trkpt lat="45.04192" lon="3.07476">
        <ele>881</ele>
        <time>2024-05-11T09:58:41Z</time>
      </trkpt>
      <trkpt lat="45.04154" lon="3.07541">
        <ele>883</ele>
        <time>2024-05-11T09:58:55Z</time>
      </trkpt>
      <trkpt lat="45.04137" lon="3.07561">
        <ele>883</ele>
        <time>2024-05-11T09:59:00Z</time>
      </trkpt>
      <trkpt lat="45.0413" lon="3.07566">
        <ele>883</ele>
        <time>2024-05-11T09:59:02Z</time>
      </trkpt>
      <trkpt lat="45.03964" lon="3.07586">
        <ele>885</ele>
        <time>2024-05-11T09:59:41Z</time>
      </trkpt>
      <trkpt lat="45.03944" lon="3.07594">
        <ele>884</ele>
        <time>2024-05-11T09:59:45Z</time>
      </trkpt>
      <trkpt lat="45.03894" lon="3.07636">
        <ele>880</ele>
        <time>2024-05-11T09:59:59Z</time>
      </trkpt>
      <trkpt lat="45.03878" lon="3.07639">
        <ele>880</ele>
        <time>2024-05-11T10:00:03Z</time>
      </trkpt>
      <trkpt lat="45.03872" lon="3.07646">
        <ele>880</ele>
        <time>2024-05-11T10:00:05Z</time>
      </trkpt>
      <trkpt lat="45.03864" lon="3.07664">
        <ele>879</ele>
        <time>2024-05-11T10:00:08Z</time>
      </trkpt>
      <trkpt lat="45.03847" lon="3.07744">
        <ele>879</ele>
        <time>2024-05-11T10:00:22Z</time>
      </trkpt>
      <trkpt lat="45.03833" lon="3.07794">
        <ele>880</ele>
        <time>2024-05-11T10:00:31Z</time>
      </trkpt>
      <trkpt lat="45.03831" lon="3.0781">
        <ele>880</ele>
        <time>2024-05-11T10:00:33Z</time>
      </trkpt>
      <trkpt lat="45.03832" lon="3.07844">
        <ele>878</ele>
        <time>2024-05-11T10:00:39Z</time>
      </trkpt>
      <trkpt lat="45.03823" lon="3.07872">
        <ele>877</ele>
        <time>2024-05-11T10:00:44Z</time>
      </trkpt>
      <trkpt lat="45.03757" lon="3.07988">
        <ele>875</ele>
        <time>2024-05-11T10:01:09Z</time>
      </trkpt>
      <trkpt lat="45.03656" lon="3.08123">
        <ele>881</ele>
        <time>2024-05-11T10:01:41Z</time>
      </trkpt>
      <trkpt lat="45.03629" lon="3.08181">
        <ele>883</ele>
        <time>2024-05-11T10:01:53Z</time>
      </trkpt>
      <trkpt lat="45.03598" lon="3.08277">
        <ele>886</ele>
        <time>2024-05-11T10:02:10Z</time>
      </trkpt>
      <trkpt lat="45.0357" lon="3.08334">
        <ele>889</ele>
        <time>2024-05-11T10:02:22Z</time>
      </trkpt>
      <trkpt lat="45.03553" lon="3.08362">
        <ele>891</ele>
        <time>2024-05-11T10:02:28Z</time>
      </trkpt>
      <trkpt lat="45.03545" lon="3.08381">
        <ele>892</ele>
        <time>2024-05-11T10:02:31Z</time>
      </trkpt>
      <trkpt lat="45.03515" lon="3.0842">
        <ele>894</ele>
        <time>2024-05-11T10:02:41Z</time>
      </trkpt>
      <trkpt lat="45.03495" lon="3.0844">
        <ele>894</ele>
        <time>2024-05-11T10:02:46Z</time>
      </trkpt>
      <trkpt lat="45.03474" lon="3.08475">
        <ele>893</ele>
        <time>2024-05-11T10:02:54Z</time>
      </trkpt>
      <trkpt lat="45.03459" lon="3.08494">
        <ele>892</ele>
        <time>2024-05-11T10:02:59Z</time>
      </trkpt>
      <trkpt lat="45.03452" lon="3.08508">
        <ele>892</ele>
        <time>2024-05-11T10:03:02Z</time>
      </trkpt>
      <trkpt lat="45.03441" lon="3.08569">
        <ele>889</ele>
        <time>2024-05-11T10:03:12Z</time>
      </trkpt>
      <trkpt lat="45.03441" lon="3.08613">
        <ele>888</ele>
        <time>2024-05-11T10:03:19Z</time>
      </trkpt>
      <trkpt lat="45.03448" lon="3.08666">
        <ele>887</ele>
        <time>2024-05-11T10:03:28Z</time>
      </trkpt>
      <trkpt lat="45.03471" lon="3.08748">
        <ele>881</ele>
        <time>2024-05-11T10:03:43Z</time>
      </trkpt>
      <trkpt lat="45.03477" lon="3.08801">
        <ele>879</ele>
        <time>2024-05-11T10:03:52Z</time>
      </trkpt>
      <trkpt lat="45.03465" lon="3.08861">
        <ele>878</ele>
        <time>2024-05-11T10:04:02Z</time>
      </trkpt>
      <trkpt lat="45.03456" lon="3.08884">
        <ele>879</ele>
        <time>2024-05-11T10:04:06Z</time>
      </trkpt>
      <trkpt lat="45.03456" lon="3.08893">
        <ele>879</ele>
        <time>2024-05-11T10:04:08Z</time>
      </trkpt>
      <trkpt lat="45.03462" lon="3.08918">
        <ele>879</ele>
        <time>2024-05-11T10:04:12Z</time>
      </trkpt>
      <trkpt lat="45.0346" lon="3.08935">
        <ele>879</ele>
        <time>2024-05-11T10:04:15Z</time>
      </trkpt>
      <trkpt lat="45.03448" lon="3.08994">
        <ele>881</ele>
        <time>2024-05-11T10:04:25Z</time>
      </trkpt>
      <trkpt lat="45.03439" lon="3.09016">
        <ele>881</ele>
        <time>2024-05-11T10:04:29Z</time>
      </trkpt>
      <trkpt lat="45.03439" lon="3.09031">
        <ele>881</ele>
        <time>2024-05-11T10:04:32Z</time>
      </trkpt>
      <trkpt lat="45.03431" lon="3.09084">
        <ele>880</ele>
        <time>2024-05-11T10:04:41Z</time>
      </trkpt>
      <trkpt lat="45.03389" lon="3.09292">
        <ele>888</ele>
        <time>2024-05-11T10:05:16Z</time>
      </trkpt>
      <trkpt lat="45.03389" lon="3.09329">
        <ele>888</ele>
        <time>2024-05-11T10:05:22Z</time>
      </trkpt>
      <trkpt lat="45.03374" lon="3.09442">
        <ele>887</ele>
        <time>2024-05-11T10:05:41Z</time>
      </trkpt>
      <trkpt lat="45.03371" lon="3.09455">
        <ele>887</ele>
        <time>2024-05-11T10:05:44Z</time>
      </trkpt>
      <trkpt lat="45.03367" lon="3.09462">
        <ele>886</ele>
        <time>2024-05-11T10:05:45Z</time>
      </trkpt>
      <trkpt lat="45.03361" lon="3.09466">
        <ele>886</ele>
        <time>2024-05-11T10:05:47Z</time>
      </trkpt>
      <trkpt lat="45.03358" lon="3.09473">
        <ele>886</ele>
        <time>2024-05-11T10:05:48Z</time>
      </trkpt>
      <trkpt lat="45.03362" lon="3.0948">
        <ele>886</ele>
        <time>2024-05-11T10:05:50Z</time>
      </trkpt>
      <trkpt lat="45.0339" lon="3.09471">
        <ele>885</ele>
        <time>2024-05-11T10:05:56Z</time>
      </trkpt>
      <trkpt lat="45.03394" lon="3.09475">
        <ele>885</ele>
        <time>2024-05-11T10:05:57Z</time>
      </trkpt>
      <trkpt lat="45.03394" lon="3.09483">
        <ele>884</ele>
        <time>2024-05-11T10:05:59Z</time>
      </trkpt>
      <trkpt lat="45.03385" lon="3.09488">
        <ele>884</ele>
        <time>2024-05-11T10:06:01Z</time>
      </trkpt>
      <trkpt lat="45.0338" lon="3.09488">
        <ele>884</ele>
        <time>2024-05-11T10:06:02Z</time>
      </trkpt>
      <trkpt lat="45.03379" lon="3.09492">
        <ele>884</ele>
        <time>2024-05-11T10:06:03Z</time>
      </trkpt>
      <trkpt lat="45.03386" lon="3.09487">
        <ele>884</ele>
        <time>2024-05-11T10:06:05Z</time>
      </trkpt>
      <trkpt lat="45.0339" lon="3.09487">
        <ele>884</ele>
        <time>2024-05-11T10:06:06Z</time>
      </trkpt>
      <trkpt lat="45.03396" lon="3.09478">
        <ele>884</ele>
        <time>2024-05-11T10:06:08Z</time>
      </trkpt>
      <trkpt lat="45.03404" lon="3.0948">
        <ele>884</ele>
        <time>2024-05-11T10:06:10Z</time>
      </trkpt>
      <trkpt lat="45.03406" lon="3.09484">
        <ele>884</ele>
        <time>2024-05-11T10:06:10Z</time>
      </trkpt>
      <trkpt lat="45.034" lon="3.09499">
        <ele>883</ele>
        <time>2024-05-11T10:06:13Z</time>
      </trkpt>
      <trkpt lat="45.03379" lon="3.09512">
        <ele>881</ele>
        <time>2024-05-11T10:06:19Z</time>
      </trkpt>
      <trkpt lat="45.03366" lon="3.0953">
        <ele>880</ele>
        <time>2024-05-11T10:06:23Z</time>
      </trkpt>
      <trkpt lat="45.03362" lon="3.0956">
        <ele>876</ele>
        <time>2024-05-11T10:06:28Z</time>
      </trkpt>
      <trkpt lat="45.03357" lon="3.09571">
        <ele>875</ele>
        <time>2024-05-11T10:06:30Z</time>
      </trkpt>
      <trkpt lat="45.03351" lon="3.09576">
        <ele>876</ele>
        <time>2024-05-11T10:06:32Z</time>
      </trkpt>
      <trkpt lat="45.03341" lon="3.09577">
        <ele>878</ele>
        <time>2024-05-11T10:06:34Z</time>
      </trkpt>
      <trkpt lat="45.03331" lon="3.09571">
        <ele>880</ele>
        <time>2024-05-11T10:06:36Z</time>
      </trkpt>
      <trkpt lat="45.03326" lon="3.09548">
        <ele>880</ele>
        <time>2024-05-11T10:06:40Z</time>
      </trkpt>
      <trkpt lat="45.03327" lon="3.0954">
        <ele>881</ele>
        <time>2024-05-11T10:06:42Z</time>
      </trkpt>
      <trkpt lat="45.03324" lon="3.09537">
        <ele>880</ele>
        <time>2024-05-11T10:06:43Z</time>
      </trkpt>
      <trkpt lat="45.0333" lon="3.09572">
        <ele>880</ele>
        <time>2024-05-11T10:06:49Z</time>
      </trkpt>
      <trkpt lat="45.03345" lon="3.09574">
        <ele>878</ele>
        <time>2024-05-11T10:06:52Z</time>
      </trkpt>
      <trkpt lat="45.03357" lon="3.09568">
        <ele>876</ele>
        <time>2024-05-11T10:06:55Z</time>
      </trkpt>
      <trkpt lat="45.03359" lon="3.0957">
        <ele>875</ele>
        <time>2024-05-11T10:06:56Z</time>
      </trkpt>
      <trkpt lat="45.03352" lon="3.09594">
        <ele>870</ele>
        <time>2024-05-11T10:07:00Z</time>
      </trkpt>
      <trkpt lat="45.03339" lon="3.09617">
        <ele>862</ele>
        <time>2024-05-11T10:07:05Z</time>
      </trkpt>
      <trkpt lat="45.03323" lon="3.09607">
        <ele>865</ele>
        <time>2024-05-11T10:07:09Z</time>
      </trkpt>
      <trkpt lat="45.033" lon="3.09567">
        <ele>869</ele>
        <time>2024-05-11T10:07:17Z</time>
      </trkpt>
      <trkpt lat="45.03269" lon="3.09529">
        <ele>862</ele>
        <time>2024-05-11T10:07:27Z</time>
      </trkpt>
      <trkpt lat="45.03223" lon="3.09463">
        <ele>855</ele>
        <time>2024-05-11T10:07:42Z</time>
      </trkpt>
      <trkpt lat="45.03194" lon="3.09432">
        <ele>846</ele>
        <time>2024-05-11T10:07:51Z</time>
      </trkpt>
      <trkpt lat="45.03186" lon="3.09413">
        <ele>844</ele>
        <time>2024-05-11T10:07:54Z</time>
      </trkpt>
      <trkpt lat="45.03184" lon="3.09394">
        <ele>845</ele>
        <time>2024-05-11T10:07:58Z</time>
      </trkpt>
      <trkpt lat="45.0318" lon="3.0939">
        <ele>843</ele>
        <time>2024-05-11T10:07:59Z</time>
      </trkpt>
      <trkpt lat="45.03177" lon="3.09392">
        <ele>841</ele>
        <time>2024-05-11T10:07:59Z</time>
      </trkpt>
      <trkpt lat="45.03172" lon="3.09437">
        <ele>835</ele>
        <time>2024-05-11T10:08:07Z</time>
      </trkpt>
      <trkpt lat="45.03179" lon="3.0948">
        <ele>833</ele>
        <time>2024-05-11T10:08:14Z</time>
      </trkpt>
      <trkpt lat="45.03181" lon="3.09579">
        <ele>820</ele>
        <time>2024-05-11T10:08:31Z</time>
      </trkpt>
      <trkpt lat="45.0319" lon="3.0963">
        <ele>812</ele>
        <time>2024-05-11T10:08:39Z</time>
      </trkpt>
      <trkpt lat="45.03235" lon="3.0974">
        <ele>802</ele>
        <time>2024-05-11T10:09:00Z</time>
      </trkpt>
      <trkpt lat="45.03248" lon="3.09786">
        <ele>797</ele>
        <time>2024-05-11T10:09:08Z</time>
      </trkpt>
      <trkpt lat="45.03254" lon="3.09821">
        <ele>790</ele>
        <time>2024-05-11T10:09:14Z</time>
      </trkpt>
      <trkpt lat="45.03282" lon="3.09873">
        <ele>784</ele>
        <time>2024-05-11T10:09:25Z</time>
      </trkpt>
      <trkpt lat="45.03279" lon="3.09903">
        <ele>781</ele>
        <time>2024-05-11T10:09:30Z</time>
      </trkpt>
      <trkpt lat="45.03272" lon="3.09936">
        <ele>779</ele>
        <time>2024-05-11T10:09:36Z</time>
      </trkpt>
      <trkpt lat="45.0326" lon="3.09969">
        <ele>779</ele>
        <time>2024-05-11T10:09:42Z</time>
      </trkpt>
      <trkpt lat="45.03256" lon="3.09989">
        <ele>779</ele>
        <time>2024-05-11T10:09:45Z</time>
      </trkpt>
      <trkpt lat="45.03256" lon="3.09993">
        <ele>779</ele>
        <time>2024-05-11T10:09:46Z</time>
      </trkpt>
      <trkpt lat="45.03265" lon="3.10002">
        <ele>779</ele>
        <time>2024-05-11T10:09:49Z</time>
      </trkpt>
      <trkpt lat="45.03265" lon="3.10015">
        <ele>778</ele>
        <time>2024-05-11T10:09:51Z</time>
      </trkpt>
      <trkpt lat="45.03274" lon="3.10026">
        <ele>778</ele>
        <time>2024-05-11T10:09:54Z</time>
      </trkpt>
      <trkpt lat="45.0327" lon="3.10042">
        <ele>777</ele>
        <time>2024-05-11T10:09:56Z</time>
      </trkpt>
      <trkpt lat="45.03259" lon="3.10068">
        <ele>776</ele>
        <time>2024-05-11T10:10:01Z</time>
      </trkpt>
      <trkpt lat="45.03252" lon="3.10099">
        <ele>776</ele>
        <time>2024-05-11T10:10:07Z</time>
      </trkpt>
      <trkpt lat="45.03253" lon="3.10121">
        <ele>776</ele>
        <time>2024-05-11T10:10:10Z</time>
      </trkpt>
      <trkpt lat="45.0324" lon="3.10183">
        <ele>777</ele>
        <time>2024-05-11T10:10:21Z</time>
      </trkpt>
      <trkpt lat="45.03242" lon="3.102">
        <ele>776</ele>
        <time>2024-05-11T10:10:24Z</time>
      </trkpt>
      <trkpt lat="45.03253" lon="3.1024">
        <ele>772</ele>
        <time>2024-05-11T10:10:31Z</time>
      </trkpt>
      <trkpt lat="45.0326" lon="3.10225">
        <ele>773</ele>
        <time>2024-05-11T10:10:34Z</time>
      </trkpt>
      <trkpt lat="45.03255" lon="3.10257">
        <ele>772</ele>
        <time>2024-05-11T10:10:39Z</time>
      </trkpt>
      <trkpt lat="45.03234" lon="3.10336">
        <ele>777</ele>
        <time>2024-05-11T10:10:53Z</time>
      </trkpt>
      <trkpt lat="45.03232" lon="3.1036">
        <ele>778</ele>
        <time>2024-05-11T10:10:57Z</time>
      </trkpt>
      <trkpt lat="45.0325" lon="3.10463">
        <ele>774</ele>
        <time>2024-05-11T10:11:15Z</time>
      </trkpt>
      <trkpt lat="45.03259" lon="3.10531">
        <ele>776</ele>
        <time>2024-05-11T10:11:26Z</time>
      </trkpt>
      <trkpt lat="45.03269" lon="3.10569">
        <ele>777</ele>
        <time>2024-05-11T10:11:33Z</time>
      </trkpt>
      <trkpt lat="45.03268" lon="3.10731">
        <ele>774</ele>
        <time>2024-05-11T10:12:00Z</time>
      </trkpt>
      <trkpt lat="45.03258" lon="3.10818">
        <ele>773</ele>
        <time>2024-05-11T10:12:14Z</time>
      </trkpt>
      <trkpt lat="45.0326" lon="3.10844">
        <ele>773</ele>
        <time>2024-05-11T10:12:19Z</time>
      </trkpt>
      <trkpt lat="45.03263" lon="3.10861">
        <ele>773</ele>
        <time>2024-05-11T10:12:21Z</time>
      </trkpt>
      <trkpt lat="45.03268" lon="3.1087">
        <ele>773</ele>
        <time>2024-05-11T10:12:23Z</time>
      </trkpt>
      <trkpt lat="45.03284" lon="3.10877">
        <ele>772</ele>
        <time>2024-05-11T10:12:27Z</time>
      </trkpt>
      <trkpt lat="45.03311" lon="3.10904">
        <ele>771</ele>
        <time>2024-05-11T10:12:35Z</time>
      </trkpt>
      <trkpt lat="45.03329" lon="3.10947">
        <ele>770</ele>
        <time>2024-05-11T10:12:43Z</time>
      </trkpt>
      <trkpt lat="45.03345" lon="3.10971">
        <ele>770</ele>
        <time>2024-05-11T10:12:49Z</time>
      </trkpt>
      <trkpt lat="45.03356" lon="3.10979">
        <ele>770</ele>
        <time>2024-05-11T10:12:52Z</time>
      </trkpt>
      <trkpt lat="45.03386" lon="3.10981">
        <ele>773</ele>
        <time>2024-05-11T10:12:59Z</time>
      </trkpt>
      <trkpt lat="45.03389" lon="3.11002">
        <ele>774</ele>
        <time>2024-05-11T10:13:02Z</time>
      </trkpt>
      <trkpt lat="45.03386" lon="3.11061">
        <ele>781</ele>
        <time>2024-05-11T10:13:12Z</time>
      </trkpt>
      <trkpt lat="45.03378" lon="3.11072">
        <ele>781</ele>
        <time>2024-05-11T10:13:14Z</time>
      </trkpt>
      <trkpt lat="45.03362" lon="3.11086">
        <ele>779</ele>
        <time>2024-05-11T10:13:19Z</time>
      </trkpt>
      <trkpt lat="45.03322" lon="3.11104">
        <ele>777</ele>
        <time>2024-05-11T10:13:29Z</time>
      </trkpt>
      <trkpt lat="45.03302" lon="3.11116">
        <ele>777</ele>
        <time>2024-05-11T10:13:34Z</time>
      </trkpt>
      <trkpt lat="45.03284" lon="3.1113">
        <ele>777</ele>
        <time>2024-05-11T10:13:39Z</time>
      </trkpt>
      <trkpt lat="45.03268" lon="3.11147">
        <ele>777</ele>
        <time>2024-05-11T10:13:43Z</time>
      </trkpt>
      <trkpt lat="45.03213" lon="3.1126">
        <ele>779</ele>
        <time>2024-05-11T10:14:06Z</time>
      </trkpt>
      <trkpt lat="45.0312" lon="3.11387">
        <ele>775</ele>
        <time>2024-05-11T10:14:36Z</time>
      </trkpt>
      <trkpt lat="45.03094" lon="3.11435">
        <ele>772</ele>
        <time>2024-05-11T10:14:46Z</time>
      </trkpt>
      <trkpt lat="45.03057" lon="3.11532">
        <ele>773</ele>
        <time>2024-05-11T10:15:04Z</time>
      </trkpt>
      <trkpt lat="45.03047" lon="3.11547">
        <ele>775</ele>
        <time>2024-05-11T10:15:08Z</time>
      </trkpt>
      <trkpt lat="45.03026" lon="3.1157">
        <ele>777</ele>
        <time>2024-05-11T10:15:14Z</time>
      </trkpt>
      <trkpt lat="45.0301" lon="3.11581">
        <ele>777</ele>
        <time>2024-05-11T10:15:18Z</time>
      </trkpt>
      <trkpt lat="45.03" lon="3.11585">
        <ele>778</ele>
        <time>2024-05-11T10:15:20Z</time>
      </trkpt>
      <trkpt lat="45.02963" lon="3.11581">
        <ele>781</ele>
        <time>2024-05-11T10:15:29Z</time>
      </trkpt>
      <trkpt lat="45.02925" lon="3.11567">
        <ele>782</ele>
        <time>2024-05-11T10:15:38Z</time>
      </trkpt>
      <trkpt lat="45.02904" lon="3.11554">
        <ele>782</ele>
        <time>2024-05-11T10:15:44Z</time>
      </trkpt>
      <trkpt lat="45.02839" lon="3.11499">
        <ele>775</ele>
        <time>2024-05-11T10:16:01Z</time>
      </trkpt>
      <trkpt lat="45.02775" lon="3.11449">
        <ele>778</ele>
        <time>2024-05-11T10:16:18Z</time>
      </trkpt>
      <trkpt lat="45.02752" lon="3.11418">
        <ele>775</ele>
        <time>2024-05-11T10:16:26Z</time>
      </trkpt>
      <trkpt lat="45.0272" lon="3.11354">
        <ele>770</ele>
        <time>2024-05-11T10:16:39Z</time>
      </trkpt>
      <trkpt lat="45.02707" lon="3.11341">
        <ele>769</ele>
        <time>2024-05-11T10:16:42Z</time>
      </trkpt>
      <trkpt lat="45.02694" lon="3.11333">
        <ele>768</ele>
        <time>2024-05-11T10:16:46Z</time>
      </trkpt>
      <trkpt lat="45.02685" lon="3.1133">
        <ele>768</ele>
        <time>2024-05-11T10:16:48Z</time>
      </trkpt>
      <trkpt lat="45.02667" lon="3.11329">
        <ele>769</ele>
        <time>2024-05-11T10:16:52Z</time>
      </trkpt>
      <trkpt lat="45.0265" lon="3.11333">
        <ele>769</ele>
        <time>2024-05-11T10:16:56Z</time>
      </trkpt>
      <trkpt lat="45.02614" lon="3.11358">
        <ele>771</ele>
        <time>2024-05-11T10:17:05Z</time>
      </trkpt>
      <trkpt lat="45.02562" lon="3.11406">
        <ele>773</ele>
        <time>2024-05-11T10:17:20Z</time>
      </trkpt>
      <trkpt lat="45.02543" lon="3.11431">
        <ele>772</ele>
        <time>2024-05-11T10:17:26Z</time>
      </trkpt>
      <trkpt lat="45.02523" lon="3.11466">
        <ele>771</ele>
        <time>2024-05-11T10:17:33Z</time>
      </trkpt>
      <trkpt lat="45.02499" lon="3.11517">
        <ele>768</ele>
        <time>2024-05-11T10:17:44Z</time>
      </trkpt>
      <trkpt lat="45.02488" lon="3.11553">
        <ele>769</ele>
        <time>2024-05-11T10:17:50Z</time>
      </trkpt>
      <trkpt lat="45.02484" lon="3.11584">
        <ele>769</ele>
        <time>2024-05-11T10:17:55Z</time>
      </trkpt>
      <trkpt lat="45.02479" lon="3.11736">
        <ele>769</ele>
        <time>2024-05-11T10:18:20Z</time>
      </trkpt>
      <trkpt lat="45.02457" lon="3.1186">
        <ele>770</ele>
        <time>2024-05-11T10:18:41Z</time>
      </trkpt>
      <trkpt lat="45.02454" lon="3.11906">
        <ele>772</ele>
        <time>2024-05-11T10:18:49Z</time>
      </trkpt>
      <trkpt lat="45.02457" lon="3.1194">
        <ele>775</ele>
        <time>2024-05-11T10:18:55Z</time>
      </trkpt>
      <trkpt lat="45.02467" lon="3.11997">
        <ele>782</ele>
        <time>2024-05-11T10:19:04Z</time>
      </trkpt>
      <trkpt lat="45.02466" lon="3.12017">
        <ele>784</ele>
        <time>2024-05-11T10:19:08Z</time>
      </trkpt>
      <trkpt lat="45.0245" lon="3.12078">
        <ele>789</ele>
        <time>2024-05-11T10:19:18Z</time>
      </trkpt>
      <trkpt lat="45.02447" lon="3.1211">
        <ele>793</ele>
        <time>2024-05-11T10:19:24Z</time>
      </trkpt>
      <trkpt lat="45.0244" lon="3.1213">
        <ele>795</ele>
        <time>2024-05-11T10:19:27Z</time>
      </trkpt>
      <trkpt lat="45.02424" lon="3.12142">
        <ele>795</ele>
        <time>2024-05-11T10:19:32Z</time>
      </trkpt>
      <trkpt lat="45.02414" lon="3.12143">
        <ele>794</ele>
        <time>2024-05-11T10:19:34Z</time>
      </trkpt>
      <trkpt lat="45.02405" lon="3.12147">
        <ele>793</ele>
        <time>2024-05-11T10:19:36Z</time>
      </trkpt>
      <trkpt lat="45.02398" lon="3.12156">
        <ele>793</ele>
        <time>2024-05-11T10:19:38Z</time>
      </trkpt>
      <trkpt lat="45.02412" lon="3.12213">
        <ele>800</ele>
        <time>2024-05-11T10:19:48Z</time>
      </trkpt>
      <trkpt lat="45.02445" lon="3.12261">
        <ele>807</ele>
        <time>2024-05-11T10:19:59Z</time>
      </trkpt>
      <trkpt lat="45.02454" lon="3.12282">
        <ele>809</ele>
        <time>2024-05-11T10:20:04Z</time>
      </trkpt>
      <trkpt lat="45.02462" lon="3.12319">
        <ele>813</ele>
        <time>2024-05-11T10:20:10Z</time>
      </trkpt>
      <trkpt lat="45.02465" lon="3.12341">
        <ele>814</ele>
        <time>2024-05-11T10:20:14Z</time>
      </trkpt>
      <trkpt lat="45.02466" lon="3.12386">
        <ele>815</ele>
        <time>2024-05-11T10:20:21Z</time>
      </trkpt>
      <trkpt lat="45.02465" lon="3.12409">
        <ele>816</ele>
        <time>2024-05-11T10:20:25Z</time>
      </trkpt>
      <trkpt lat="45.02457" lon="3.12436">
        <ele>817</ele>
        <time>2024-05-11T10:20:30Z</time>
      </trkpt>
      <trkpt lat="45.02445" lon="3.12449">
        <ele>817</ele>
        <time>2024-05-11T10:20:33Z</time>
      </trkpt>
      <trkpt lat="45.02436" lon="3.12454">
        <ele>818</ele>
        <time>2024-05-11T10:20:35Z</time>
      </trkpt>
      <trkpt lat="45.02425" lon="3.1245">
        <ele>817</ele>
        <time>2024-05-11T10:20:38Z</time>
      </trkpt>
      <trkpt lat="45.02392" lon="3.1238">
        <ele>815</ele>
        <time>2024-05-11T10:20:52Z</time>
      </trkpt>
      <trkpt lat="45.02375" lon="3.12359">
        <ele>815</ele>
        <time>2024-05-11T10:20:57Z</time>
      </trkpt>
      <trkpt lat="45.0236" lon="3.12349">
        <ele>815</ele>
        <time>2024-05-11T10:21:01Z</time>
      </trkpt>
      <trkpt lat="45.02335" lon="3.12341">
        <ele>817</ele>
        <time>2024-05-11T10:21:07Z</time>
      </trkpt>
      <trkpt lat="45.02315" lon="3.12341">
        <ele>816</ele>
        <time>2024-05-11T10:21:12Z</time>
      </trkpt>
      <trkpt lat="45.02298" lon="3.12347">
        <ele>815</ele>
        <time>2024-05-11T10:21:16Z</time>
      </trkpt>
      <trkpt lat="45.02282" lon="3.12361">
        <ele>814</ele>
        <time>2024-05-11T10:21:20Z</time>
      </trkpt>
      <trkpt lat="45.02203" lon="3.12486">
        <ele>811</ele>
        <time>2024-05-11T10:21:48Z</time>
      </trkpt>
      <trkpt lat="45.02174" lon="3.12517">
        <ele>809</ele>
        <time>2024-05-11T10:21:56Z</time>
      </trkpt>
      <trkpt lat="45.02155" lon="3.12545">
        <ele>809</ele>
        <time>2024-05-11T10:22:03Z</time>
      </trkpt>
      <trkpt lat="45.02129" lon="3.12572">
        <ele>808</ele>
        <time>2024-05-11T10:22:10Z</time>
      </trkpt>
      <trkpt lat="45.02114" lon="3.12593">
        <ele>809</ele>
        <time>2024-05-11T10:22:15Z</time>
      </trkpt>
      <trkpt lat="45.02105" lon="3.12616">
        <ele>810</ele>
        <time>2024-05-11T10:22:20Z</time>
      </trkpt>
      <trkpt lat="45.02102" lon="3.12638">
        <ele>811</ele>
        <time>2024-05-11T10:22:23Z</time>
      </trkpt>
      <trkpt lat="45.02105" lon="3.12655">
        <ele>814</ele>
        <time>2024-05-11T10:22:26Z</time>
      </trkpt>
      <trkpt lat="45.02118" lon="3.12677">
        <ele>818</ele>
        <time>2024-05-11T10:22:31Z</time>
      </trkpt>
      <trkpt lat="45.0212" lon="3.12685">
        <ele>819</ele>
        <time>2024-05-11T10:22:32Z</time>
      </trkpt>
      <trkpt lat="45.02119" lon="3.12694">
        <ele>820</ele>
        <time>2024-05-11T10:22:34Z</time>
      </trkpt>
      <trkpt lat="45.02112" lon="3.12706">
        <ele>821</ele>
        <time>2024-05-11T10:22:36Z</time>
      </trkpt>
      <trkpt lat="45.02093" lon="3.12719">
        <ele>821</ele>
        <time>2024-05-11T10:22:41Z</time>
      </trkpt>
      <trkpt lat="45.02068" lon="3.12752">
        <ele>824</ele>
        <time>2024-05-11T10:22:49Z</time>
      </trkpt>
      <trkpt lat="45.02048" lon="3.12763">
        <ele>825</ele>
        <time>2024-05-11T10:22:54Z</time>
      </trkpt>
      <trkpt lat="45.02009" lon="3.12775">
        <ele>825</ele>
        <time>2024-05-11T10:23:04Z</time>
      </trkpt>
      <trkpt lat="45.01992" lon="3.12788">
        <ele>825</ele>
        <time>2024-05-11T10:23:08Z</time>
      </trkpt>
      <trkpt lat="45.01983" lon="3.12798">
        <ele>826</ele>
        <time>2024-05-11T10:23:11Z</time>
      </trkpt>
      <trkpt lat="45.01971" lon="3.12802">
        <ele>825</ele>
        <time>2024-05-11T10:23:14Z</time>
      </trkpt>
      <trkpt lat="45.01959" lon="3.12801">
        <ele>824</ele>
        <time>2024-05-11T10:23:17Z</time>
      </trkpt>
      <trkpt lat="45.01915" lon="3.1279">
        <ele>821</ele>
        <time>2024-05-11T10:23:27Z</time>
      </trkpt>
      <trkpt lat="45.01865" lon="3.12767">
        <ele>817</ele>
        <time>2024-05-11T10:23:39Z</time>
      </trkpt>
      <trkpt lat="45.01858" lon="3.1277">
        <ele>817</ele>
        <time>2024-05-11T10:23:41Z</time>
      </trkpt>
      <trkpt lat="45.01854" lon="3.1278">
        <ele>816</ele>
        <time>2024-05-11T10:23:43Z</time>
      </trkpt>
      <trkpt lat="45.01855" lon="3.12799">
        <ele>816</ele>
        <time>2024-05-11T10:23:46Z</time>
      </trkpt>
      <trkpt lat="45.01864" lon="3.12831">
        <ele>816</ele>
        <time>2024-05-11T10:23:52Z</time>
      </trkpt>
      <trkpt lat="45.01874" lon="3.12843">
        <ele>816</ele>
        <time>2024-05-11T10:23:55Z</time>
      </trkpt>
      <trkpt lat="45.01879" lon="3.12853">
        <ele>816</ele>
        <time>2024-05-11T10:23:57Z</time>
      </trkpt>
      <trkpt lat="45.01882" lon="3.12854">
        <ele>816</ele>
        <time>2024-05-11T10:23:58Z</time>
      </trkpt>
      <trkpt lat="45.01885" lon="3.12848">
        <ele>818</ele>
        <time>2024-05-11T10:23:59Z</time>
      </trkpt>
      <trkpt lat="45.01881" lon="3.12853">
        <ele>816</ele>
        <time>2024-05-11T10:24:00Z</time>
      </trkpt>
      <trkpt lat="45.01882" lon="3.1286">
        <ele>816</ele>
        <time>2024-05-11T10:24:01Z</time>
      </trkpt>
      <trkpt lat="45.01897" lon="3.12907">
        <ele>815</ele>
        <time>2024-05-11T10:24:10Z</time>
      </trkpt>
      <trkpt lat="45.01923" lon="3.1302">
        <ele>811</ele>
        <time>2024-05-11T10:24:29Z</time>
      </trkpt>
      <trkpt lat="45.01929" lon="3.13034">
        <ele>810</ele>
        <time>2024-05-11T10:24:32Z</time>
      </trkpt>
      <trkpt lat="45.01943" lon="3.1305">
        <ele>810</ele>
        <time>2024-05-11T10:24:36Z</time>
      </trkpt>
      <trkpt lat="45.01981" lon="3.13067">
        <ele>815</ele>
        <time>2024-05-11T10:24:46Z</time>
      </trkpt>
      <trkpt lat="45.0199" lon="3.13074">
        <ele>816</ele>
        <time>2024-05-11T10:24:48Z</time>
      </trkpt>
      <trkpt lat="45.02029" lon="3.13128">
        <ele>814</ele>
        <time>2024-05-11T10:25:01Z</time>
      </trkpt>
      <trkpt lat="45.02061" lon="3.13183">
        <ele>813</ele>
        <time>2024-05-11T10:25:12Z</time>
      </trkpt>
      <trkpt lat="45.0208" lon="3.13245">
        <ele>811</ele>
        <time>2024-05-11T10:25:24Z</time>
      </trkpt>
      <trkpt lat="45.02118" lon="3.13329">
        <ele>808</ele>
        <time>2024-05-11T10:25:40Z</time>
      </trkpt>
      <trkpt lat="45.02126" lon="3.13342">
        <ele>808</ele>
        <time>2024-05-11T10:25:43Z</time>
      </trkpt>
      <trkpt lat="45.02142" lon="3.13351">
        <ele>809</ele>
        <time>2024-05-11T10:25:47Z</time>
      </trkpt>
      <trkpt lat="45.02168" lon="3.1335">
        <ele>813</ele>
        <time>2024-05-11T10:25:53Z</time>
      </trkpt>
      <trkpt lat="45.02173" lon="3.13352">
        <ele>814</ele>
        <time>2024-05-11T10:25:54Z</time>
      </trkpt>
      <trkpt lat="45.02178" lon="3.13358">
        <ele>813</ele>
        <time>2024-05-11T10:25:56Z</time>
      </trkpt>
      <trkpt lat="45.0218" lon="3.13366">
        <ele>813</ele>
        <time>2024-05-11T10:25:57Z</time>
      </trkpt>
      <trkpt lat="45.02172" lon="3.13413">
        <ele>806</ele>
        <time>2024-05-11T10:26:05Z</time>
      </trkpt>
      <trkpt lat="45.02172" lon="3.13429">
        <ele>804</ele>
        <time>2024-05-11T10:26:08Z</time>
      </trkpt>
      <trkpt lat="45.02177" lon="3.1345">
        <ele>803</ele>
        <time>2024-05-11T10:26:11Z</time>
      </trkpt>
      <trkpt lat="45.0219" lon="3.13474">
        <ele>802</ele>
        <time>2024-05-11T10:26:16Z</time>
      </trkpt>
      <trkpt lat="45.02233" lon="3.13539">
        <ele>801</ele>
        <time>2024-05-11T10:26:31Z</time>
      </trkpt>
      <trkpt lat="45.02245" lon="3.13542">
        <ele>803</ele>
        <time>2024-05-11T10:26:34Z</time>
      </trkpt>
      <trkpt lat="45.02275" lon="3.13536">
        <ele>807</ele>
        <time>2024-05-11T10:26:41Z</time>
      </trkpt>
      <trkpt lat="45.0229" lon="3.13536">
        <ele>808</ele>
        <time>2024-05-11T10:26:45Z</time>
      </trkpt>
      <trkpt lat="45.02312" lon="3.13541">
        <ele>808</ele>
        <time>2024-05-11T10:26:50Z</time>
      </trkpt>
      <trkpt lat="45.02333" lon="3.13552">
        <ele>807</ele>
        <time>2024-05-11T10:26:55Z</time>
      </trkpt>
      <trkpt lat="45.02364" lon="3.13596">
        <ele>803</ele>
        <time>2024-05-11T10:27:05Z</time>
      </trkpt>
      <trkpt lat="45.02392" lon="3.13622">
        <ele>807</ele>
        <time>2024-05-11T10:27:13Z</time>
      </trkpt>
      <trkpt lat="45.024" lon="3.13639">
        <ele>808</ele>
        <time>2024-05-11T10:27:16Z</time>
      </trkpt>
      <trkpt lat="45.02402" lon="3.13658">
        <ele>807</ele>
        <time>2024-05-11T10:27:20Z</time>
      </trkpt>
      <trkpt lat="45.02389" lon="3.1371">
        <ele>803</ele>
        <time>2024-05-11T10:27:29Z</time>
      </trkpt>
      <trkpt lat="45.02387" lon="3.13722">
        <ele>802</ele>
        <time>2024-05-11T10:27:31Z</time>
      </trkpt>
      <trkpt lat="45.02388" lon="3.13737">
        <ele>803</ele>
        <time>2024-05-11T10:27:33Z</time>
      </trkpt>
      <trkpt lat="45.02395" lon="3.13761">
        <ele>803</ele>
        <time>2024-05-11T10:27:37Z</time>
      </trkpt>
      <trkpt lat="45.02425" lon="3.13807">
        <ele>804</ele>
        <time>2024-05-11T10:27:48Z</time>
      </trkpt>
      <trkpt lat="45.02434" lon="3.13829">
        <ele>803</ele>
        <time>2024-05-11T10:27:52Z</time>
      </trkpt>
      <trkpt lat="45.02451" lon="3.13939">
        <ele>801</ele>
        <time>2024-05-11T10:28:11Z</time>
      </trkpt>
      <trkpt lat="45.0246" lon="3.13973">
        <ele>801</ele>
        <time>2024-05-11T10:28:17Z</time>
      </trkpt>
      <trkpt lat="45.02459" lon="3.14033">
        <ele>799</ele>
        <time>2024-05-11T10:28:27Z</time>
      </trkpt>
      <trkpt lat="45.02471" lon="3.14093">
        <ele>803</ele>
        <time>2024-05-11T10:28:37Z</time>
      </trkpt>
      <trkpt lat="45.0247" lon="3.14104">
        <ele>803</ele>
        <time>2024-05-11T10:28:39Z</time>
      </trkpt>
      <trkpt lat="45.02466" lon="3.14112">
        <ele>803</ele>
        <time>2024-05-11T10:28:40Z</time>
      </trkpt>
      <trkpt lat="45.02437" lon="3.14138">
        <ele>799</ele>
        <time>2024-05-11T10:28:48Z</time>
      </trkpt>
      <trkpt lat="45.02423" lon="3.14155">
        <ele>797</ele>
        <time>2024-05-11T10:28:53Z</time>
      </trkpt>
      <trkpt lat="45.02382" lon="3.14235">
        <ele>794</ele>
        <time>2024-05-11T10:29:09Z</time>
      </trkpt>
      <trkpt lat="45.02376" lon="3.14254">
        <ele>793</ele>
        <time>2024-05-11T10:29:12Z</time>
      </trkpt>
      <trkpt lat="45.02375" lon="3.14275">
        <ele>791</ele>
        <time>2024-05-11T10:29:16Z</time>
      </trkpt>
      <trkpt lat="45.02379" lon="3.14296">
        <ele>791</ele>
        <time>2024-05-11T10:29:19Z</time>
      </trkpt>
      <trkpt lat="45.02384" lon="3.14304">
        <ele>791</ele>
        <time>2024-05-11T10:29:21Z</time>
      </trkpt>
      <trkpt lat="45.0239" lon="3.1431">
        <ele>791</ele>
        <time>2024-05-11T10:29:23Z</time>
      </trkpt>
      <trkpt lat="45.02412" lon="3.14323">
        <ele>792</ele>
        <time>2024-05-11T10:29:28Z</time>
      </trkpt>
      <trkpt lat="45.02436" lon="3.14334">
        <ele>792</ele>
        <time>2024-05-11T10:29:34Z</time>
      </trkpt>
      <trkpt lat="45.02444" lon="3.14334">
        <ele>792</ele>
        <time>2024-05-11T10:29:36Z</time>
      </trkpt>
      <trkpt lat="45.02469" lon="3.14323">
        <ele>796</ele>
        <time>2024-05-11T10:29:42Z</time>
      </trkpt>
      <trkpt lat="45.0248" lon="3.14322">
        <ele>797</ele>
        <time>2024-05-11T10:29:45Z</time>
      </trkpt>
      <trkpt lat="45.02538" lon="3.14331">
        <ele>799</ele>
        <time>2024-05-11T10:29:58Z</time>
      </trkpt>
      <trkpt lat="45.0257" lon="3.14339">
        <ele>800</ele>
        <time>2024-05-11T10:30:06Z</time>
      </trkpt>
      <trkpt lat="45.02593" lon="3.14353">
        <ele>801</ele>
        <time>2024-05-11T10:30:12Z</time>
      </trkpt>
      <trkpt lat="45.02614" lon="3.14384">
        <ele>799</ele>
        <time>2024-05-11T10:30:19Z</time>
      </trkpt>
      <trkpt lat="45.02633" lon="3.14402">
        <ele>799</ele>
        <time>2024-05-11T10:30:24Z</time>
      </trkpt>
      <trkpt lat="45.0265" lon="3.14413">
        <ele>799</ele>
        <time>2024-05-11T10:30:29Z</time>
      </trkpt>
      <trkpt lat="45.02664" lon="3.14418">
        <ele>801</ele>
        <time>2024-05-11T10:30:32Z</time>
      </trkpt>
      <trkpt lat="45.02702" lon="3.14418">
        <ele>804</ele>
        <time>2024-05-11T10:30:41Z</time>
      </trkpt>
      <trkpt lat="45.02746" lon="3.14399">
        <ele>810</ele>
        <time>2024-05-11T10:30:52Z</time>
      </trkpt>
      <trkpt lat="45.02763" lon="3.14395">
        <ele>812</ele>
        <time>2024-05-11T10:30:56Z</time>
      </trkpt>
      <trkpt lat="45.0278" lon="3.14394">
        <ele>813</ele>
        <time>2024-05-11T10:31:00Z</time>
      </trkpt>
      <trkpt lat="45.028" lon="3.14399">
        <ele>813</ele>
        <time>2024-05-11T10:31:04Z</time>
      </trkpt>
      <trkpt lat="45.02822" lon="3.14399">
        <ele>814</ele>
        <time>2024-05-11T10:31:10Z</time>
      </trkpt>
      <trkpt lat="45.0286" lon="3.14392">
        <ele>816</ele>
        <time>2024-05-11T10:31:19Z</time>
      </trkpt>
      <trkpt lat="45.02887" lon="3.14383">
        <ele>817</ele>
        <time>2024-05-11T10:31:25Z</time>
      </trkpt>
      <trkpt lat="45.02907" lon="3.14368">
        <ele>818</ele>
        <time>2024-05-11T10:31:30Z</time>
      </trkpt>
      <trkpt lat="45.02924" lon="3.14349">
        <ele>819</ele>
        <time>2024-05-11T10:31:35Z</time>
      </trkpt>
      <trkpt lat="45.02939" lon="3.14327">
        <ele>820</ele>
        <time>2024-05-11T10:31:40Z</time>
      </trkpt>
      <trkpt lat="45.02963" lon="3.14264">
        <ele>822</ele>
        <time>2024-05-11T10:31:52Z</time>
      </trkpt>
      <trkpt lat="45.02974" lon="3.1419">
        <ele>824</ele>
        <time>2024-05-11T10:32:05Z</time>
      </trkpt>
      <trkpt lat="45.02984" lon="3.14155">
        <ele>824</ele>
        <time>2024-05-11T10:32:11Z</time>
      </trkpt>
      <trkpt lat="45.03" lon="3.1413">
        <ele>823</ele>
        <time>2024-05-11T10:32:17Z</time>
      </trkpt>
      <trkpt lat="45.03011" lon="3.14124">
        <ele>823</ele>
        <time>2024-05-11T10:32:19Z</time>
      </trkpt>
      <trkpt lat="45.03017" lon="3.14126">
        <ele>823</ele>
        <time>2024-05-11T10:32:21Z</time>
      </trkpt>
      <trkpt lat="45.03031" lon="3.1416">
        <ele>821</ele>
        <time>2024-05-11T10:32:27Z</time>
      </trkpt>
      <trkpt lat="45.03044" lon="3.14171">
        <ele>821</ele>
        <time>2024-05-11T10:32:31Z</time>
      </trkpt>
      <trkpt lat="45.0305" lon="3.1418">
        <ele>821</ele>
        <time>2024-05-11T10:32:33Z</time>
      </trkpt>
      <trkpt lat="45.03057" lon="3.14205">
        <ele>820</ele>
        <time>2024-05-11T10:32:37Z</time>
      </trkpt>
      <trkpt lat="45.0306" lon="3.14295">
        <ele>817</ele>
        <time>2024-05-11T10:32:52Z</time>
      </trkpt>
      <trkpt lat="45.03058" lon="3.1436">
        <ele>814</ele>
        <time>2024-05-11T10:33:03Z</time>
      </trkpt>
      <trkpt lat="45.0306" lon="3.14391">
        <ele>814</ele>
        <time>2024-05-11T10:33:08Z</time>
      </trkpt>
      <trkpt lat="45.0305" lon="3.14476">
        <ele>812</ele>
        <time>2024-05-11T10:33:22Z</time>
      </trkpt>
      <trkpt lat="45.03038" lon="3.14526">
        <ele>811</ele>
        <time>2024-05-11T10:33:31Z</time>
      </trkpt>
      <trkpt lat="45.03026" lon="3.14561">
        <ele>810</ele>
        <time>2024-05-11T10:33:37Z</time>
      </trkpt>
      <trkpt lat="45.03007" lon="3.14604">
        <ele>808</ele>
        <time>2024-05-11T10:33:46Z</time>
      </trkpt>
      <trkpt lat="45.02982" lon="3.14651">
        <ele>807</ele>
        <time>2024-05-11T10:33:55Z</time>
      </trkpt>
      <trkpt lat="45.02929" lon="3.14739">
        <ele>812</ele>
        <time>2024-05-11T10:34:14Z</time>
      </trkpt>
      <trkpt lat="45.0283" lon="3.14824">
        <ele>816</ele>
        <time>2024-05-11T10:34:42Z</time>
      </trkpt>
      <trkpt lat="45.02796" lon="3.14859">
        <ele>815</ele>
        <time>2024-05-11T10:34:51Z</time>
      </trkpt>
      <trkpt lat="45.02777" lon="3.14867">
        <ele>814</ele>
        <time>2024-05-11T10:34:56Z</time>
      </trkpt>
      <trkpt lat="45.02768" lon="3.14863">
        <ele>815</ele>
        <time>2024-05-11T10:34:58Z</time>
      </trkpt>
      <trkpt lat="45.02765" lon="3.14864">
        <ele>814</ele>
        <time>2024-05-11T10:34:59Z</time>
      </trkpt>
      <trkpt lat="45.02766" lon="3.14908">
        <ele>810</ele>
        <time>2024-05-11T10:35:06Z</time>
      </trkpt>
      <trkpt lat="45.02758" lon="3.14918">
        <ele>808</ele>
        <time>2024-05-11T10:35:09Z</time>
      </trkpt>
      <trkpt lat="45.02731" lon="3.14935">
        <ele>804</ele>
        <time>2024-05-11T10:35:16Z</time>
      </trkpt>
      <trkpt lat="45.02707" lon="3.14962">
        <ele>799</ele>
        <time>2024-05-11T10:35:23Z</time>
      </trkpt>
      <trkpt lat="45.02695" lon="3.14969">
        <ele>798</ele>
        <time>2024-05-11T10:35:26Z</time>
      </trkpt>
      <trkpt lat="45.02682" lon="3.14971">
        <ele>798</ele>
        <time>2024-05-11T10:35:29Z</time>
      </trkpt>
      <trkpt lat="45.02657" lon="3.1498">
        <ele>797</ele>
        <time>2024-05-11T10:35:35Z</time>
      </trkpt>
      <trkpt lat="45.02603" lon="3.14976">
        <ele>799</ele>
        <time>2024-05-11T10:35:47Z</time>
      </trkpt>
      <trkpt lat="45.02593" lon="3.14982">
        <ele>799</ele>
        <time>2024-05-11T10:35:50Z</time>
      </trkpt>
      <trkpt lat="45.02586" lon="3.14993">
        <ele>800</ele>
        <time>2024-05-11T10:35:52Z</time>
      </trkpt>
      <trkpt lat="45.02584" lon="3.15022">
        <ele>803</ele>
        <time>2024-05-11T10:35:57Z</time>
      </trkpt>
      <trkpt lat="45.02569" lon="3.15071">
        <ele>809</ele>
        <time>2024-05-11T10:36:06Z</time>
      </trkpt>
      <trkpt lat="45.02563" lon="3.1512">
        <ele>813</ele>
        <time>2024-05-11T10:36:14Z</time>
      </trkpt>
      <trkpt lat="45.02546" lon="3.15201">
        <ele>820</ele>
        <time>2024-05-11T10:36:28Z</time>
      </trkpt>
      <trkpt lat="45.02531" lon="3.15238">
        <ele>823</ele>
        <time>2024-05-11T10:36:35Z</time>
      </trkpt>
      <trkpt lat="45.02524" lon="3.15246">
        <ele>824</ele>
        <time>2024-05-11T10:36:37Z</time>
      </trkpt>
      <trkpt lat="45.02513" lon="3.15252">
        <ele>824</ele>
        <time>2024-05-11T10:36:40Z</time>
      </trkpt>
      <trkpt lat="45.02503" lon="3.15256">
        <ele>825</ele>
        <time>2024-05-11T10:36:43Z</time>
      </trkpt>
      <trkpt lat="45.02472" lon="3.15262">
        <ele>829</ele>
        <time>2024-05-11T10:36:50Z</time>
      </trkpt>
      <trkpt lat="45.02459" lon="3.15268">
        <ele>831</ele>
        <time>2024-05-11T10:36:53Z</time>
      </trkpt>
      <trkpt lat="45.02441" lon="3.15286">
        <ele>831</ele>
        <time>2024-05-11T10:36:58Z</time>
      </trkpt>
      <trkpt lat="45.02412" lon="3.15322">
        <ele>830</ele>
        <time>2024-05-11T10:37:07Z</time>
      </trkpt>
      <trkpt lat="45.02392" lon="3.15355">
        <ele>832</ele>
        <time>2024-05-11T10:37:14Z</time>
      </trkpt>
      <trkpt lat="45.02361" lon="3.15415">
        <ele>831</ele>
        <time>2024-05-11T10:37:27Z</time>
      </trkpt>
      <trkpt lat="45.0236" lon="3.15422">
        <ele>831</ele>
        <time>2024-05-11T10:37:28Z</time>
      </trkpt>
      <trkpt lat="45.02363" lon="3.1543">
        <ele>831</ele>
        <time>2024-05-11T10:37:29Z</time>
      </trkpt>
      <trkpt lat="45.02393" lon="3.15454">
        <ele>833</ele>
        <time>2024-05-11T10:37:37Z</time>
      </trkpt>
      <trkpt lat="45.02402" lon="3.15467">
        <ele>834</ele>
        <time>2024-05-11T10:37:40Z</time>
      </trkpt>
      <trkpt lat="45.02408" lon="3.15493">
        <ele>835</ele>
        <time>2024-05-11T10:37:45Z</time>
      </trkpt>
      <trkpt lat="45.02424" lon="3.15537">
        <ele>836</ele>
        <time>2024-05-11T10:37:53Z</time>
      </trkpt>
      <trkpt lat="45.02442" lon="3.15599">
        <ele>838</ele>
        <time>2024-05-11T10:38:04Z</time>
      </trkpt>
      <trkpt lat="45.02448" lon="3.15613">
        <ele>840</ele>
        <time>2024-05-11T10:38:07Z</time>
      </trkpt>
      <trkpt lat="45.02467" lon="3.1564">
        <ele>844</ele>
        <time>2024-05-11T10:38:13Z</time>
      </trkpt>
      <trkpt lat="45.02471" lon="3.1573">
        <ele>852</ele>
        <time>2024-05-11T10:38:28Z</time>
      </trkpt>
      <trkpt lat="45.02469" lon="3.15761">
        <ele>854</ele>
        <time>2024-05-11T10:38:33Z</time>
      </trkpt>
      <trkpt lat="45.02475" lon="3.15778">
        <ele>855</ele>
        <time>2024-05-11T10:38:36Z</time>
      </trkpt>
      <trkpt lat="45.02473" lon="3.15793">
        <ele>856</ele>
        <time>2024-05-11T10:38:39Z</time>
      </trkpt>
      <trkpt lat="45.02486" lon="3.15845">
        <ele>860</ele>
        <time>2024-05-11T10:38:48Z</time>
      </trkpt>
      <trkpt lat="45.02468" lon="3.15879">
        <ele>861</ele>
        <time>2024-05-11T10:38:55Z</time>
      </trkpt>
      <trkpt lat="45.02417" lon="3.15946">
        <ele>862</ele>
        <time>2024-05-11T10:39:11Z</time>
      </trkpt>
      <trkpt lat="45.0238" lon="3.15975">
        <ele>864</ele>
        <time>2024-05-11T10:39:21Z</time>
      </trkpt>
      <trkpt lat="45.02363" lon="3.15997">
        <ele>866</ele>
        <time>2024-05-11T10:39:26Z</time>
      </trkpt>
      <trkpt lat="45.0233" lon="3.16064">
        <ele>868</ele>
        <time>2024-05-11T10:39:40Z</time>
      </trkpt>
      <trkpt lat="45.02311" lon="3.16124">
        <ele>869</ele>
        <time>2024-05-11T10:39:51Z</time>
      </trkpt>
      <trkpt lat="45.02305" lon="3.16134">
        <ele>870</ele>
        <time>2024-05-11T10:39:53Z</time>
      </trkpt>
      <trkpt lat="45.02287" lon="3.16147">
        <ele>870</ele>
        <time>2024-05-11T10:39:58Z</time>
      </trkpt>
      <trkpt lat="45.02266" lon="3.16153">
        <ele>870</ele>
        <time>2024-05-11T10:40:03Z</time>
      </trkpt>
      <trkpt lat="45.02228" lon="3.1617">
        <ele>870</ele>
        <time>2024-05-11T10:40:12Z</time>
      </trkpt>
      <trkpt lat="45.02162" lon="3.16195">
        <ele>868</ele>
        <time>2024-05-11T10:40:28Z</time>
      </trkpt>
      <trkpt lat="45.02113" lon="3.16218">
        <ele>869</ele>
        <time>2024-05-11T10:40:40Z</time>
      </trkpt>
      <trkpt lat="45.02094" lon="3.16222">
        <ele>869</ele>
        <time>2024-05-11T10:40:44Z</time>
      </trkpt>
      <trkpt lat="45.02032" lon="3.16223">
        <ele>870</ele>
        <time>2024-05-11T10:40:59Z</time>
      </trkpt>
      <trkpt lat="45.01996" lon="3.16227">
        <ele>870</ele>
        <time>2024-05-11T10:41:07Z</time>
      </trkpt>
      <trkpt lat="45.01977" lon="3.16231">
        <ele>871</ele>
        <time>2024-05-11T10:41:12Z</time>
      </trkpt>
      <trkpt lat="45.0194" lon="3.16245">
        <ele>872</ele>
        <time>2024-05-11T10:41:21Z</time>
      </trkpt>
      <trkpt lat="45.01919" lon="3.16247">
        <ele>873</ele>
        <time>2024-05-11T10:41:26Z</time>
      </trkpt>
      <trkpt lat="45.01843" lon="3.16242">
        <ele>876</ele>
        <time>2024-05-11T10:41:43Z</time>
      </trkpt>
      <trkpt lat="45.01676" lon="3.16194">
        <ele>886</ele>
        <time>2024-05-11T10:42:23Z</time>
      </trkpt>
      <trkpt lat="45.01649" lon="3.16193">
        <ele>886</ele>
        <time>2024-05-11T10:42:30Z</time>
      </trkpt>
      <trkpt lat="45.01621" lon="3.16196">
        <ele>886</ele>
        <time>2024-05-11T10:42:36Z</time>
      </trkpt>
      <trkpt lat="45.01576" lon="3.16209">
        <ele>886</ele>
        <time>2024-05-11T10:42:47Z</time>
      </trkpt>
      <trkpt lat="45.01561" lon="3.16209">
        <ele>886</ele>
        <time>2024-05-11T10:42:50Z</time>
      </trkpt>
      <trkpt lat="45.0151" lon="3.16197">
        <ele>886</ele>
        <time>2024-05-11T10:43:02Z</time>
      </trkpt>
      <trkpt lat="45.01486" lon="3.16187">
        <ele>886</ele>
        <time>2024-05-11T10:43:08Z</time>
      </trkpt>
      <trkpt lat="45.01467" lon="3.16172">
        <ele>887</ele>
        <time>2024-05-11T10:43:13Z</time>
      </trkpt>
      <trkpt lat="45.01447" lon="3.16147">
        <ele>887</ele>
        <time>2024-05-11T10:43:20Z</time>
      </trkpt>
      <trkpt lat="45.01435" lon="3.16145">
        <ele>888</ele>
        <time>2024-05-11T10:43:22Z</time>
      </trkpt>
      <trkpt lat="45.01429" lon="3.16153">
        <ele>888</ele>
        <time>2024-05-11T10:43:24Z</time>
      </trkpt>
      <trkpt lat="45.01401" lon="3.16204">
        <ele>887</ele>
        <time>2024-05-11T10:43:35Z</time>
      </trkpt>
      <trkpt lat="45.01326" lon="3.16311">
        <ele>881</ele>
        <time>2024-05-11T10:44:00Z</time>
      </trkpt>
      <trkpt lat="45.01298" lon="3.16358">
        <ele>880</ele>
        <time>2024-05-11T10:44:10Z</time>
      </trkpt>
      <trkpt lat="45.01288" lon="3.1638">
        <ele>880</ele>
        <time>2024-05-11T10:44:14Z</time>
      </trkpt>
      <trkpt lat="45.01279" lon="3.16417">
        <ele>879</ele>
        <time>2024-05-11T10:44:21Z</time>
      </trkpt>
      <trkpt lat="45.01271" lon="3.16509">
        <ele>880</ele>
        <time>2024-05-11T10:44:36Z</time>
      </trkpt>
      <trkpt lat="45.01255" lon="3.16539">
        <ele>880</ele>
        <time>2024-05-11T10:44:42Z</time>
      </trkpt>
      <trkpt lat="45.01258" lon="3.16546">
        <ele>880</ele>
        <time>2024-05-11T10:44:44Z</time>
      </trkpt>
      <trkpt lat="45.01255" lon="3.16553">
        <ele>880</ele>
        <time>2024-05-11T10:44:45Z</time>
      </trkpt>
      <trkpt lat="45.01254" lon="3.16596">
        <ele>879</ele>
        <time>2024-05-11T10:44:52Z</time>
      </trkpt>
      <trkpt lat="45.01265" lon="3.16699">
        <ele>878</ele>
        <time>2024-05-11T10:45:09Z</time>
      </trkpt>
      <trkpt lat="45.01261" lon="3.16764">
        <ele>878</ele>
        <time>2024-05-11T10:45:20Z</time>
      </trkpt>
      <trkpt lat="45.01107" lon="3.17375">
        <ele>878</ele>
        <time>2024-05-11T10:47:07Z</time>
      </trkpt>
      <trkpt lat="45.01099" lon="3.17427">
        <ele>878</ele>
        <time>2024-05-11T10:47:16Z</time>
      </trkpt>
      <trkpt lat="45.01093" lon="3.17618">
        <ele>884</ele>
        <time>2024-05-11T10:47:48Z</time>
      </trkpt>
      <trkpt lat="45.011" lon="3.17651">
        <ele>886</ele>
        <time>2024-05-11T10:47:53Z</time>
      </trkpt>
      <trkpt lat="45.01109" lon="3.17669">
        <ele>887</ele>
        <time>2024-05-11T10:47:57Z</time>
      </trkpt>
      <trkpt lat="45.01133" lon="3.17695">
        <ele>887</ele>
        <time>2024-05-11T10:48:04Z</time>
      </trkpt>
      <trkpt lat="45.01146" lon="3.17705">
        <ele>887</ele>
        <time>2024-05-11T10:48:07Z</time>
      </trkpt>
      <trkpt lat="45.01176" lon="3.17735">
        <ele>887</ele>
        <time>2024-05-11T10:48:16Z</time>
      </trkpt>
      <trkpt lat="45.01189" lon="3.17753">
        <ele>887</ele>
        <time>2024-05-11T10:48:20Z</time>
      </trkpt>
      <trkpt lat="45.01208" lon="3.17787">
        <ele>887</ele>
        <time>2024-05-11T10:48:27Z</time>
      </trkpt>
      <trkpt lat="45.01246" lon="3.17881">
        <ele>884</ele>
        <time>2024-05-11T10:48:45Z</time>
      </trkpt>
      <trkpt lat="45.01272" lon="3.17937">
        <ele>882</ele>
        <time>2024-05-11T10:48:56Z</time>
      </trkpt>
      <trkpt lat="45.01334" lon="3.18031">
        <ele>880</ele>
        <time>2024-05-11T10:49:17Z</time>
      </trkpt>
      <trkpt lat="45.01399" lon="3.1812">
        <ele>876</ele>
        <time>2024-05-11T10:49:39Z</time>
      </trkpt>
      <trkpt lat="45.01422" lon="3.18156">
        <ele>875</ele>
        <time>2024-05-11T10:49:47Z</time>
      </trkpt>
      <trkpt lat="45.01443" lon="3.18182">
        <ele>875</ele>
        <time>2024-05-11T10:49:53Z</time>
      </trkpt>
      <trkpt lat="45.01525" lon="3.18309">
        <ele>880</ele>
        <time>2024-05-11T10:50:22Z</time>
      </trkpt>
      <trkpt lat="45.01595" lon="3.18426">
        <ele>875</ele>
        <time>2024-05-11T10:50:47Z</time>
      </trkpt>
      <trkpt lat="45.01653" lon="3.1855">
        <ele>876</ele>
        <time>2024-05-11T10:51:11Z</time>
      </trkpt>
      <trkpt lat="45.01661" lon="3.18584">
        <ele>876</ele>
        <time>2024-05-11T10:51:17Z</time>
      </trkpt>
      <trkpt lat="45.01692" lon="3.18652">
        <ele>873</ele>
        <time>2024-05-11T10:51:31Z</time>
      </trkpt>
      <trkpt lat="45.01756" lon="3.1874">
        <ele>871</ele>
        <time>2024-05-11T10:51:52Z</time>
      </trkpt>
      <trkpt lat="45.01803" lon="3.1882">
        <ele>866</ele>
        <time>2024-05-11T10:52:09Z</time>
      </trkpt>
      <trkpt lat="45.01809" lon="3.18836">
        <ele>865</ele>
        <time>2024-05-11T10:52:12Z</time>
      </trkpt>
      <trkpt lat="45.01808" lon="3.18845">
        <ele>864</ele>
        <time>2024-05-11T10:52:13Z</time>
      </trkpt>
      <trkpt lat="45.01803" lon="3.18851">
        <ele>864</ele>
        <time>2024-05-11T10:52:15Z</time>
      </trkpt>
      <trkpt lat="45.01743" lon="3.18898">
        <ele>862</ele>
        <time>2024-05-11T10:52:31Z</time>
      </trkpt>
      <trkpt lat="45.01711" lon="3.1892">
        <ele>861</ele>
        <time>2024-05-11T10:52:39Z</time>
      </trkpt>
      <trkpt lat="45.01706" lon="3.18929">
        <ele>861</ele>
        <time>2024-05-11T10:52:41Z</time>
      </trkpt>
      <trkpt lat="45.01714" lon="3.18975">
        <ele>861</ele>
        <time>2024-05-11T10:52:49Z</time>
      </trkpt>
      <trkpt lat="45.01718" lon="3.18984">
        <ele>861</ele>
        <time>2024-05-11T10:52:50Z</time>
      </trkpt>
      <trkpt lat="45.01723" lon="3.18991">
        <ele>861</ele>
        <time>2024-05-11T10:52:52Z</time>
      </trkpt>
      <trkpt lat="45.01729" lon="3.18992">
        <ele>861</ele>
        <time>2024-05-11T10:52:54Z</time>
      </trkpt>
      <trkpt lat="45.01766" lon="3.18975">
        <ele>862</ele>
        <time>2024-05-11T10:53:03Z</time>
      </trkpt>
      <trkpt lat="45.01823" lon="3.18954">
        <ele>863</ele>
        <time>2024-05-11T10:53:16Z</time>
      </trkpt>
      <trkpt lat="45.01849" lon="3.1894">
        <ele>863</ele>
        <time>2024-05-11T10:53:23Z</time>
      </trkpt>
      <trkpt lat="45.01858" lon="3.18937">
        <ele>862</ele>
        <time>2024-05-11T10:53:25Z</time>
      </trkpt>
      <trkpt lat="45.01867" lon="3.18939">
        <ele>863</ele>
        <time>2024-05-11T10:53:27Z</time>
      </trkpt>
      <trkpt lat="45.01876" lon="3.18948">
        <ele>863</ele>
        <time>2024-05-11T10:53:30Z</time>
      </trkpt>
      <trkpt lat="45.01883" lon="3.1896">
        <ele>864</ele>
        <time>2024-05-11T10:53:32Z</time>
      </trkpt>
      <trkpt lat="45.01897" lon="3.18994">
        <ele>867</ele>
        <time>2024-05-11T10:53:39Z</time>
      </trkpt>
      <trkpt lat="45.01943" lon="3.19086">
        <ele>872</ele>
        <time>2024-05-11T10:53:57Z</time>
      </trkpt>
      <trkpt lat="45.0194" lon="3.19096">
        <ele>872</ele>
        <time>2024-05-11T10:53:59Z</time>
      </trkpt>
      <trkpt lat="45.01932" lon="3.19101">
        <ele>872</ele>
        <time>2024-05-11T10:54:01Z</time>
      </trkpt>
      <trkpt lat="45.0183" lon="3.19149">
        <ele>870</ele>
        <time>2024-05-11T10:54:26Z</time>
      </trkpt>
      <trkpt lat="45.01696" lon="3.19207">
        <ele>865</ele>
        <time>2024-05-11T10:54:59Z</time>
      </trkpt>
      <trkpt lat="45.01672" lon="3.19222">
        <ele>864</ele>
        <time>2024-05-11T10:55:05Z</time>
      </trkpt>
      <trkpt lat="45.01649" lon="3.19244">
        <ele>863</ele>
        <time>2024-05-11T10:55:12Z</time>
      </trkpt>
      <trkpt lat="45.0163" lon="3.19274">
        <ele>862</ele>
        <time>2024-05-11T10:55:18Z</time>
      </trkpt>
      <trkpt lat="45.01576" lon="3.19398">
        <ele>854</ele>
        <time>2024-05-11T10:55:42Z</time>
      </trkpt>
      <trkpt lat="45.01569" lon="3.19423">
        <ele>852</ele>
        <time>2024-05-11T10:55:47Z</time>
      </trkpt>
      <trkpt lat="45.0156" lon="3.19436">
        <ele>850</ele>
        <time>2024-05-11T10:55:50Z</time>
      </trkpt>
      <trkpt lat="45.01551" lon="3.19439">
        <ele>849</ele>
        <time>2024-05-11T10:55:52Z</time>
      </trkpt>
      <trkpt lat="45.01481" lon="3.1944">
        <ele>846</ele>
        <time>2024-05-11T10:56:08Z</time>
      </trkpt>
      <trkpt lat="45.01466" lon="3.19438">
        <ele>845</ele>
        <time>2024-05-11T10:56:12Z</time>
      </trkpt>
      <trkpt lat="45.01446" lon="3.19431">
        <ele>845</ele>
        <time>2024-05-11T10:56:17Z</time>
      </trkpt>
      <trkpt lat="45.01421" lon="3.19416">
        <ele>845</ele>
        <time>2024-05-11T10:56:23Z</time>
      </trkpt>
      <trkpt lat="45.01345" lon="3.19351">
        <ele>845</ele>
        <time>2024-05-11T10:56:44Z</time>
      </trkpt>
      <trkpt lat="45.0129" lon="3.19321">
        <ele>843</ele>
        <time>2024-05-11T10:56:58Z</time>
      </trkpt>
      <trkpt lat="45.01276" lon="3.19319">
        <ele>842</ele>
        <time>2024-05-11T10:57:01Z</time>
      </trkpt>
      <trkpt lat="45.01248" lon="3.19321">
        <ele>840</ele>
        <time>2024-05-11T10:57:07Z</time>
      </trkpt>
      <trkpt lat="45.01209" lon="3.19335">
        <ele>839</ele>
        <time>2024-05-11T10:57:17Z</time>
      </trkpt>
      <trkpt lat="45.01162" lon="3.19347">
        <ele>837</ele>
        <time>2024-05-11T10:57:28Z</time>
      </trkpt>
      <trkpt lat="45.01142" lon="3.19346">
        <ele>837</ele>
        <time>2024-05-11T10:57:33Z</time>
      </trkpt>
      <trkpt lat="45.01108" lon="3.19335">
        <ele>837</ele>
        <time>2024-05-11T10:57:41Z</time>
      </trkpt>
      <trkpt lat="45.01047" lon="3.19288">
        <ele>836</ele>
        <time>2024-05-11T10:57:57Z</time>
      </trkpt>
      <trkpt lat="45.0102" lon="3.19275">
        <ele>835</ele>
        <time>2024-05-11T10:58:04Z</time>
      </trkpt>
      <trkpt lat="45.00969" lon="3.1926">
        <ele>835</ele>
        <time>2024-05-11T10:58:16Z</time>
      </trkpt>
      <trkpt lat="45.00962" lon="3.19262">
        <ele>835</ele>
        <time>2024-05-11T10:58:17Z</time>
      </trkpt>
      <trkpt lat="45.00957" lon="3.19267">
        <ele>835</ele>
        <time>2024-05-11T10:58:19Z</time>
      </trkpt>
      <trkpt lat="45.00954" lon="3.19282">
        <ele>834</ele>
        <time>2024-05-11T10:58:21Z</time>
      </trkpt>
      <trkpt lat="45.00961" lon="3.19321">
        <ele>833</ele>
        <time>2024-05-11T10:58:28Z</time>
      </trkpt>
      <trkpt lat="45.00956" lon="3.19456">
        <ele>832</ele>
        <time>2024-05-11T10:58:50Z</time>
      </trkpt>
      <trkpt lat="45.00959" lon="3.19588">
        <ele>835</ele>
        <time>2024-05-11T10:59:12Z</time>
      </trkpt>
      <trkpt lat="45.00954" lon="3.19733">
        <ele>840</ele>
        <time>2024-05-11T10:59:36Z</time>
      </trkpt>
      <trkpt lat="45.00956" lon="3.19783">
        <ele>843</ele>
        <time>2024-05-11T10:59:44Z</time>
      </trkpt>
      <trkpt lat="45.00947" lon="3.20003">
        <ele>857</ele>
        <time>2024-05-11T11:00:21Z</time>
      </trkpt>
      <trkpt lat="45.00957" lon="3.20214">
        <ele>865</ele>
        <time>2024-05-11T11:00:56Z</time>
      </trkpt>
      <trkpt lat="45.00955" lon="3.20363">
        <ele>870</ele>
        <time>2024-05-11T11:01:20Z</time>
      </trkpt>
      <trkpt lat="45.00957" lon="3.20517">
        <ele>873</ele>
        <time>2024-05-11T11:01:46Z</time>
      </trkpt>
      <trkpt lat="45.0096" lon="3.20544">
        <ele>872</ele>
        <time>2024-05-11T11:01:50Z</time>
      </trkpt>
      <trkpt lat="45.00965" lon="3.20563">
        <ele>872</ele>
        <time>2024-05-11T11:01:54Z</time>
      </trkpt>
      <trkpt lat="45.0101" lon="3.20684">
        <ele>877</ele>
        <time>2024-05-11T11:02:16Z</time>
      </trkpt>
      <trkpt lat="45.01024" lon="3.20743">
        <ele>880</ele>
        <time>2024-05-11T11:02:26Z</time>
      </trkpt>
      <trkpt lat="45.01045" lon="3.20809">
        <ele>886</ele>
        <time>2024-05-11T11:02:38Z</time>
      </trkpt>
      <trkpt lat="45.01054" lon="3.20851">
        <ele>888</ele>
        <time>2024-05-11T11:02:46Z</time>
      </trkpt>
      <trkpt lat="45.01059" lon="3.20896">
        <ele>891</ele>
        <time>2024-05-11T11:02:53Z</time>
      </trkpt>
      <trkpt lat="45.0107" lon="3.20944">
        <ele>893</ele>
        <time>2024-05-11T11:03:02Z</time>
      </trkpt>
      <trkpt lat="45.01069" lon="3.20963">
        <ele>893</ele>
        <time>2024-05-11T11:03:05Z</time>
      </trkpt>
      <trkpt lat="45.01081" lon="3.2107">
        <ele>897</ele>
        <time>2024-05-11T11:03:23Z</time>
      </trkpt>
      <trkpt lat="45.01093" lon="3.21121">
        <ele>898</ele>
        <time>2024-05-11T11:03:31Z</time>
      </trkpt>
      <trkpt lat="45.01109" lon="3.21225">
        <ele>899</ele>
        <time>2024-05-11T11:03:49Z</time>
      </trkpt>
      <trkpt lat="45.01123" lon="3.2128">
        <ele>902</ele>
        <time>2024-05-11T11:03:59Z</time>
      </trkpt>
      <trkpt lat="45.01166" lon="3.21331">
        <ele>905</ele>
        <time>2024-05-11T11:04:12Z</time>
      </trkpt>
      <trkpt lat="45.01189" lon="3.21362">
        <ele>906</ele>
        <time>2024-05-11T11:04:19Z</time>
      </trkpt>
      <trkpt lat="45.01244" lon="3.21419">
        <ele>908</ele>
        <time>2024-05-11T11:04:35Z</time>
      </trkpt>
      <trkpt lat="45.0126" lon="3.21444">
        <ele>908</ele>
        <time>2024-05-11T11:04:41Z</time>
      </trkpt>
      <trkpt lat="45.01279" lon="3.21481">
        <ele>909</ele>
        <time>2024-05-11T11:04:48Z</time>
      </trkpt>
      <trkpt lat="45.01312" lon="3.21524">
        <ele>910</ele>
        <time>2024-05-11T11:04:59Z</time>
      </trkpt>
      <trkpt lat="45.01328" lon="3.21539">
        <ele>910</ele>
        <time>2024-05-11T11:05:03Z</time>
      </trkpt>
      <trkpt lat="45.01376" lon="3.21562">
        <ele>912</ele>
        <time>2024-05-11T11:05:15Z</time>
      </trkpt>
      <trkpt lat="45.01416" lon="3.21591">
        <ele>914</ele>
        <time>2024-05-11T11:05:26Z</time>
      </trkpt>
      <trkpt lat="45.01434" lon="3.21614">
        <ele>914</ele>
        <time>2024-05-11T11:05:31Z</time>
      </trkpt>
      <trkpt lat="45.01473" lon="3.21681">
        <ele>915</ele>
        <time>2024-05-11T11:05:46Z</time>
      </trkpt>
      <trkpt lat="45.01487" lon="3.21696">
        <ele>916</ele>
        <time>2024-05-11T11:05:50Z</time>
      </trkpt>
      <trkpt lat="45.01503" lon="3.21709">
        <ele>916</ele>
        <time>2024-05-11T11:05:54Z</time>
      </trkpt>
      <trkpt lat="45.01529" lon="3.21724">
        <ele>916</ele>
        <time>2024-05-11T11:06:00Z</time>
      </trkpt>
      <trkpt lat="45.01577" lon="3.21746">
        <ele>917</ele>
        <time>2024-05-11T11:06:12Z</time>
      </trkpt>
      <trkpt lat="45.01604" lon="3.21766">
        <ele>917</ele>
        <time>2024-05-11T11:06:19Z</time>
      </trkpt>
      <trkpt lat="45.01724" lon="3.21921">
        <ele>925</ele>
        <time>2024-05-11T11:06:57Z</time>
      </trkpt>
      <trkpt lat="45.01783" lon="3.21987">
        <ele>926</ele>
        <time>2024-05-11T11:07:15Z</time>
      </trkpt>
      <trkpt lat="45.01853" lon="3.22077">
        <ele>931</ele>
        <time>2024-05-11T11:07:37Z</time>
      </trkpt>
      <trkpt lat="45.01891" lon="3.22118">
        <ele>936</ele>
        <time>2024-05-11T11:07:48Z</time>
      </trkpt>
      <trkpt lat="45.01906" lon="3.22128">
        <ele>938</ele>
        <time>2024-05-11T11:07:52Z</time>
      </trkpt>
      <trkpt lat="45.01924" lon="3.22148">
        <ele>941</ele>
        <time>2024-05-11T11:07:57Z</time>
      </trkpt>
      <trkpt lat="45.01947" lon="3.22194">
        <ele>944</ele>
        <time>2024-05-11T11:08:07Z</time>
      </trkpt>
      <trkpt lat="45.01993" lon="3.2227">
        <ele>951</ele>
        <time>2024-05-11T11:08:23Z</time>
      </trkpt>
      <trkpt lat="45.0203" lon="3.22337">
        <ele>954</ele>
        <time>2024-05-11T11:08:37Z</time>
      </trkpt>
      <trkpt lat="45.02081" lon="3.22408">
        <ele>961</ele>
        <time>2024-05-11T11:08:54Z</time>
      </trkpt>
      <trkpt lat="45.02091" lon="3.22427">
        <ele>963</ele>
        <time>2024-05-11T11:08:58Z</time>
      </trkpt>
      <trkpt lat="45.02103" lon="3.22453">
        <ele>964</ele>
        <time>2024-05-11T11:09:03Z</time>
      </trkpt>
      <trkpt lat="45.02107" lon="3.22474">
        <ele>966</ele>
        <time>2024-05-11T11:09:07Z</time>
      </trkpt>
      <trkpt lat="45.02107" lon="3.2249">
        <ele>966</ele>
        <time>2024-05-11T11:09:09Z</time>
      </trkpt>
      <trkpt lat="45.02099" lon="3.22511">
        <ele>967</ele>
        <time>2024-05-11T11:09:13Z</time>
      </trkpt>
      <trkpt lat="45.02099" lon="3.22521">
        <ele>967</ele>
        <time>2024-05-11T11:09:15Z</time>
      </trkpt>
      <trkpt lat="45.02103" lon="3.22523">
        <ele>967</ele>
        <time>2024-05-11T11:09:16Z</time>
      </trkpt>
      <trkpt lat="45.02109" lon="3.22519">
        <ele>968</ele>
        <time>2024-05-11T11:09:17Z</time>
      </trkpt>
      <trkpt lat="45.02109" lon="3.22537">
        <ele>968</ele>
        <time>2024-05-11T11:09:20Z</time>
      </trkpt>
      <trkpt lat="45.02112" lon="3.22549">
        <ele>969</ele>
        <time>2024-05-11T11:09:22Z</time>
      </trkpt>
      <trkpt lat="45.02123" lon="3.22573">
        <ele>971</ele>
        <time>2024-05-11T11:09:27Z</time>
      </trkpt>
      <trkpt lat="45.02147" lon="3.22605">
        <ele>974</ele>
        <time>2024-05-11T11:09:35Z</time>
      </trkpt>
      <trkpt lat="45.02155" lon="3.22611">
        <ele>975</ele>
        <time>2024-05-11T11:09:37Z</time>
      </trkpt>
      <trkpt lat="45.0217" lon="3.22617">
        <ele>977</ele>
        <time>2024-05-11T11:09:41Z</time>
      </trkpt>
      <trkpt lat="45.02182" lon="3.22618">
        <ele>979</ele>
        <time>2024-05-11T11:09:43Z</time>
      </trkpt>
      <trkpt lat="45.02193" lon="3.22615">
        <ele>980</ele>
        <time>2024-05-11T11:09:46Z</time>
      </trkpt>
      <trkpt lat="45.02234" lon="3.22614">
        <ele>984</ele>
        <time>2024-05-11T11:09:56Z</time>
      </trkpt>
      <trkpt lat="45.02258" lon="3.22619">
        <ele>987</ele>
        <time>2024-05-11T11:10:01Z</time>
      </trkpt>
      <trkpt lat="45.02297" lon="3.22646">
        <ele>994</ele>
        <time>2024-05-11T11:10:11Z</time>
      </trkpt>
      <trkpt lat="45.02304" lon="3.22648">
        <ele>995</ele>
        <time>2024-05-11T11:10:13Z</time>
      </trkpt>
      <trkpt lat="45.02345" lon="3.22655">
        <ele>1002</ele>
        <time>2024-05-11T11:10:23Z</time>
      </trkpt>
      <trkpt lat="45.02372" lon="3.22648">
        <ele>1004</ele>
        <time>2024-05-11T11:10:29Z</time>
      </trkpt>
      <trkpt lat="45.02391" lon="3.22649">
        <ele>1006</ele>
        <time>2024-05-11T11:10:34Z</time>
      </trkpt>
      <trkpt lat="45.02409" lon="3.22653">
        <ele>1009</ele>
        <time>2024-05-11T11:10:38Z</time>
      </trkpt>
      <trkpt lat="45.02425" lon="3.22664">
        <ele>1012</ele>
        <time>2024-05-11T11:10:42Z</time>
      </trkpt>
      <trkpt lat="45.02443" lon="3.22694">
        <ele>1016</ele>
        <time>2024-05-11T11:10:48Z</time>
      </trkpt>
      <trkpt lat="45.02451" lon="3.22703">
        <ele>1017</ele>
        <time>2024-05-11T11:10:51Z</time>
      </trkpt>
      <trkpt lat="45.02511" lon="3.22733">
        <ele>1025</ele>
        <time>2024-05-11T11:11:06Z</time>
      </trkpt>
      <trkpt lat="45.02575" lon="3.22786">
        <ele>1034</ele>
        <time>2024-05-11T11:11:23Z</time>
      </trkpt>
      <trkpt lat="45.02582" lon="3.22797">
        <ele>1035</ele>
        <time>2024-05-11T11:11:25Z</time>
      </trkpt>
      <trkpt lat="45.02589" lon="3.22829">
        <ele>1036</ele>
        <time>2024-05-11T11:11:31Z</time>
      </trkpt>
      <trkpt lat="45.02596" lon="3.22845">
        <ele>1036</ele>
        <time>2024-05-11T11:11:34Z</time>
      </trkpt>
      <trkpt lat="45.02627" lon="3.22887">
        <ele>1037</ele>
        <time>2024-05-11T11:11:44Z</time>
      </trkpt>
      <trkpt lat="45.02655" lon="3.22936">
        <ele>1041</ele>
        <time>2024-05-11T11:11:55Z</time>
      </trkpt>
      <trkpt lat="45.02694" lon="3.22983">
        <ele>1047</ele>
        <time>2024-05-11T11:12:06Z</time>
      </trkpt>
      <trkpt lat="45.02706" lon="3.23001">
        <ele>1050</ele>
        <time>2024-05-11T11:12:11Z</time>
      </trkpt>
      <trkpt lat="45.02718" lon="3.2301">
        <ele>1051</ele>
        <time>2024-05-11T11:12:14Z</time>
      </trkpt>
      <trkpt lat="45.02723" lon="3.23018">
        <ele>1052</ele>
        <time>2024-05-11T11:12:15Z</time>
      </trkpt>
      <trkpt lat="45.02774" lon="3.23151">
        <ele>1064</ele>
        <time>2024-05-11T11:12:40Z</time>
      </trkpt>
      <trkpt lat="45.02785" lon="3.23171">
        <ele>1067</ele>
        <time>2024-05-11T11:12:45Z</time>
      </trkpt>
      <trkpt lat="45.02812" lon="3.23203">
        <ele>1071</ele>
        <time>2024-05-11T11:12:53Z</time>
      </trkpt>
      <trkpt lat="45.02867" lon="3.23255">
        <ele>1081</ele>
        <time>2024-05-11T11:13:08Z</time>
      </trkpt>
      <trkpt lat="45.02941" lon="3.23298">
        <ele>1093</ele>
        <time>2024-05-11T11:13:27Z</time>
      </trkpt>
      <trkpt lat="45.0299" lon="3.23348">
        <ele>1099</ele>
        <time>2024-05-11T11:13:41Z</time>
      </trkpt>
      <trkpt lat="45.03011" lon="3.23364">
        <ele>1101</ele>
        <time>2024-05-11T11:13:47Z</time>
      </trkpt>
      <trkpt lat="45.03038" lon="3.23379">
        <ele>1102</ele>
        <time>2024-05-11T11:13:53Z</time>
      </trkpt>
      <trkpt lat="45.03055" lon="3.23384">
        <ele>1104</ele>
        <time>2024-05-11T11:13:58Z</time>
      </trkpt>
      <trkpt lat="45.03078" lon="3.23395">
        <ele>1106</ele>
        <time>2024-05-11T11:14:03Z</time>
      </trkpt>
      <trkpt lat="45.03145" lon="3.23442">
        <ele>1112</ele>
        <time>2024-05-11T11:14:21Z</time>
      </trkpt>
      <trkpt lat="45.03166" lon="3.23463">
        <ele>1115</ele>
        <time>2024-05-11T11:14:27Z</time>
      </trkpt>
      <trkpt lat="45.03179" lon="3.2347">
        <ele>1117</ele>
        <time>2024-05-11T11:14:30Z</time>
      </trkpt>
      <trkpt lat="45.03199" lon="3.23475">
        <ele>1119</ele>
        <time>2024-05-11T11:14:35Z</time>
      </trkpt>
      <trkpt lat="45.03222" lon="3.23485">
        <ele>1121</ele>
        <time>2024-05-11T11:14:40Z</time>
      </trkpt>
      <trkpt lat="45.03235" lon="3.23493">
        <ele>1123</ele>
        <time>2024-05-11T11:14:44Z</time>
      </trkpt>
      <trkpt lat="45.03275" lon="3.23542">
        <ele>1126</ele>
        <time>2024-05-11T11:14:56Z</time>
      </trkpt>
      <trkpt lat="45.03308" lon="3.23564">
        <ele>1129</ele>
        <time>2024-05-11T11:15:04Z</time>
      </trkpt>
      <trkpt lat="45.03335" lon="3.2359">
        <ele>1132</ele>
        <time>2024-05-11T11:15:12Z</time>
      </trkpt>
      <trkpt lat="45.03393" lon="3.23672">
        <ele>1136</ele>
        <time>2024-05-11T11:15:31Z</time>
      </trkpt>
      <trkpt lat="45.03419" lon="3.23694">
        <ele>1138</ele>
        <time>2024-05-11T11:15:38Z</time>
      </trkpt>
      <trkpt lat="45.03429" lon="3.23699">
        <ele>1139</ele>
        <time>2024-05-11T11:15:41Z</time>
      </trkpt>
      <trkpt lat="45.03435" lon="3.23699">
        <ele>1140</ele>
        <time>2024-05-11T11:15:42Z</time>
      </trkpt>
      <trkpt lat="45.03486" lon="3.23679">
        <ele>1144</ele>
        <time>2024-05-11T11:15:55Z</time>
      </trkpt>
      <trkpt lat="45.03501" lon="3.23681">
        <ele>1145</ele>
        <time>2024-05-11T11:15:58Z</time>
      </trkpt>
      <trkpt lat="45.0352" lon="3.23678">
        <ele>1148</ele>
        <time>2024-05-11T11:16:03Z</time>
      </trkpt>
      <trkpt lat="45.03545" lon="3.23681">
        <ele>1152</ele>
        <time>2024-05-11T11:16:08Z</time>
      </trkpt>
      <trkpt lat="45.03582" lon="3.237">
        <ele>1159</ele>
        <time>2024-05-11T11:16:18Z</time>
      </trkpt>
      <trkpt lat="45.03598" lon="3.23694">
        <ele>1161</ele>
        <time>2024-05-11T11:16:21Z</time>
      </trkpt>
      <trkpt lat="45.03615" lon="3.23684">
        <ele>1163</ele>
        <time>2024-05-11T11:16:26Z</time>
      </trkpt>
      <trkpt lat="45.03624" lon="3.23672">
        <ele>1164</ele>
        <time>2024-05-11T11:16:29Z</time>
      </trkpt>
      <trkpt lat="45.03643" lon="3.23661">
        <ele>1166</ele>
        <time>2024-05-11T11:16:33Z</time>
      </trkpt>
      <trkpt lat="45.03658" lon="3.23659">
        <ele>1167</ele>
        <time>2024-05-11T11:16:37Z</time>
      </trkpt>
      <trkpt lat="45.03664" lon="3.23656">
        <ele>1168</ele>
        <time>2024-05-11T11:16:38Z</time>
      </trkpt>
      <trkpt lat="45.0367" lon="3.23657">
        <ele>1169</ele>
        <time>2024-05-11T11:16:40Z</time>
      </trkpt>
      <trkpt lat="45.03696" lon="3.23653">
        <ele>1172</ele>
        <time>2024-05-11T11:16:46Z</time>
      </trkpt>
      <trkpt lat="45.03761" lon="3.23657">
        <ele>1181</ele>
        <time>2024-05-11T11:17:01Z</time>
      </trkpt>
      <trkpt lat="45.03809" lon="3.23655">
        <ele>1189</ele>
        <time>2024-05-11T11:17:12Z</time>
      </trkpt>
      <trkpt lat="45.03847" lon="3.23661">
        <ele>1195</ele>
        <time>2024-05-11T11:17:21Z</time>
      </trkpt>
      <trkpt lat="45.03868" lon="3.23652">
        <ele>1196</ele>
        <time>2024-05-11T11:17:26Z</time>
      </trkpt>
      <trkpt lat="45.03885" lon="3.23651">
        <ele>1197</ele>
        <time>2024-05-11T11:17:30Z</time>
      </trkpt>
      <trkpt lat="45.03897" lon="3.23653">
        <ele>1199</ele>
        <time>2024-05-11T11:17:33Z</time>
      </trkpt>
      <trkpt lat="45.03919" lon="3.23651">
        <ele>1201</ele>
        <time>2024-05-11T11:17:38Z</time>
      </trkpt>
      <trkpt lat="45.03935" lon="3.23655">
        <ele>1202</ele>
        <time>2024-05-11T11:17:42Z</time>
      </trkpt>
      <trkpt lat="45.03967" lon="3.23656">
        <ele>1203</ele>
        <time>2024-05-11T11:17:50Z</time>
      </trkpt>
      <trkpt lat="45.04018" lon="3.23668">
        <ele>1209</ele>
        <time>2024-05-11T11:18:02Z</time>
      </trkpt>
      <trkpt lat="45.04046" lon="3.23657">
        <ele>1212</ele>
        <time>2024-05-11T11:18:08Z</time>
      </trkpt>
      <trkpt lat="45.04083" lon="3.23622">
        <ele>1211</ele>
        <time>2024-05-11T11:18:19Z</time>
      </trkpt>
      <trkpt lat="45.04118" lon="3.2358">
        <ele>1213</ele>
        <time>2024-05-11T11:18:30Z</time>
      </trkpt>
      <trkpt lat="45.04159" lon="3.23537">
        <ele>1220</ele>
        <time>2024-05-11T11:18:41Z</time>
      </trkpt>
      <trkpt lat="45.04185" lon="3.23496">
        <ele>1221</ele>
        <time>2024-05-11T11:18:51Z</time>
      </trkpt>
      <trkpt lat="45.04228" lon="3.23437">
        <ele>1223</ele>
        <time>2024-05-11T11:19:05Z</time>
      </trkpt>
      <trkpt lat="45.04238" lon="3.23428">
        <ele>1224</ele>
        <time>2024-05-11T11:19:07Z</time>
      </trkpt>
      <trkpt lat="45.04258" lon="3.23416">
        <ele>1225</ele>
        <time>2024-05-11T11:19:12Z</time>
      </trkpt>
      <trkpt lat="45.04276" lon="3.23412">
        <ele>1224</ele>
        <time>2024-05-11T11:19:17Z</time>
      </trkpt>
      <trkpt lat="45.04289" lon="3.23412">
        <ele>1224</ele>
        <time>2024-05-11T11:19:20Z</time>
      </trkpt>
      <trkpt lat="45.04303" lon="3.23416">
        <ele>1224</ele>
        <time>2024-05-11T11:19:23Z</time>
      </trkpt>
      <trkpt lat="45.04315" lon="3.23414">
        <ele>1223</ele>
        <time>2024-05-11T11:19:26Z</time>
      </trkpt>
      <trkpt lat="45.04332" lon="3.23416">
        <ele>1223</ele>
        <time>2024-05-11T11:19:30Z</time>
      </trkpt>
      <trkpt lat="45.04346" lon="3.23423">
        <ele>1223</ele>
        <time>2024-05-11T11:19:33Z</time>
      </trkpt>
      <trkpt lat="45.04362" lon="3.23427">
        <ele>1223</ele>
        <time>2024-05-11T11:19:37Z</time>
      </trkpt>
      <trkpt lat="45.04381" lon="3.23439">
        <ele>1223</ele>
        <time>2024-05-11T11:19:42Z</time>
      </trkpt>
      <trkpt lat="45.04415" lon="3.23476">
        <ele>1224</ele>
        <time>2024-05-11T11:19:52Z</time>
      </trkpt>
      <trkpt lat="45.04438" lon="3.23497">
        <ele>1223</ele>
        <time>2024-05-11T11:19:58Z</time>
      </trkpt>
      <trkpt lat="45.04465" lon="3.23527">
        <ele>1223</ele>
        <time>2024-05-11T11:20:06Z</time>
      </trkpt>
      <trkpt lat="45.04476" lon="3.23546">
        <ele>1224</ele>
        <time>2024-05-11T11:20:10Z</time>
      </trkpt>
      <trkpt lat="45.04483" lon="3.23553">
        <ele>1224</ele>
        <time>2024-05-11T11:20:12Z</time>
      </trkpt>
      <trkpt lat="45.04541" lon="3.23596">
        <ele>1225</ele>
        <time>2024-05-11T11:20:28Z</time>
      </trkpt>
      <trkpt lat="45.04548" lon="3.23605">
        <ele>1225</ele>
        <time>2024-05-11T11:20:30Z</time>
      </trkpt>
      <trkpt lat="45.04567" lon="3.23613">
        <ele>1224</ele>
        <time>2024-05-11T11:20:35Z</time>
      </trkpt>
      <trkpt lat="45.04591" lon="3.23616">
        <ele>1223</ele>
        <time>2024-05-11T11:20:40Z</time>
      </trkpt>
      <trkpt lat="45.04615" lon="3.23632">
        <ele>1224</ele>
        <time>2024-05-11T11:20:46Z</time>
      </trkpt>
      <trkpt lat="45.04628" lon="3.23637">
        <ele>1224</ele>
        <time>2024-05-11T11:20:50Z</time>
      </trkpt>
      <trkpt lat="45.04651" lon="3.23636">
        <ele>1223</ele>
        <time>2024-05-11T11:20:55Z</time>
      </trkpt>
      <trkpt lat="45.04656" lon="3.2364">
        <ele>1223</ele>
        <time>2024-05-11T11:20:56Z</time>
      </trkpt>
      <trkpt lat="45.04661" lon="3.23639">
        <ele>1223</ele>
        <time>2024-05-11T11:20:57Z</time>
      </trkpt>
      <trkpt lat="45.04665" lon="3.23641">
        <ele>1223</ele>
        <time>2024-05-11T11:20:58Z</time>
      </trkpt>
      <trkpt lat="45.04669" lon="3.23649">
        <ele>1223</ele>
        <time>2024-05-11T11:21:00Z</time>
      </trkpt>
      <trkpt lat="45.04679" lon="3.23659">
        <ele>1222</ele>
        <time>2024-05-11T11:21:03Z</time>
      </trkpt>
      <trkpt lat="45.04692" lon="3.23662">
        <ele>1221</ele>
        <time>2024-05-11T11:21:06Z</time>
      </trkpt>
      <trkpt lat="45.0471" lon="3.23671">
        <ele>1220</ele>
        <time>2024-05-11T11:21:10Z</time>
      </trkpt>
      <trkpt lat="45.04727" lon="3.23684">
        <ele>1219</ele>
        <time>2024-05-11T11:21:15Z</time>
      </trkpt>
      <trkpt lat="45.0476" lon="3.23698">
        <ele>1216</ele>
        <time>2024-05-11T11:21:23Z</time>
      </trkpt>
      <trkpt lat="45.04782" lon="3.23717">
        <ele>1215</ele>
        <time>2024-05-11T11:21:29Z</time>
      </trkpt>
      <trkpt lat="45.04799" lon="3.23721">
        <ele>1214</ele>
        <time>2024-05-11T11:21:33Z</time>
      </trkpt>
      <trkpt lat="45.04823" lon="3.23733">
        <ele>1212</ele>
        <time>2024-05-11T11:21:39Z</time>
      </trkpt>
      <trkpt lat="45.04857" lon="3.23761">
        <ele>1209</ele>
        <time>2024-05-11T11:21:48Z</time>
      </trkpt>
      <trkpt lat="45.04885" lon="3.23789">
        <ele>1206</ele>
        <time>2024-05-11T11:21:56Z</time>
      </trkpt>
      <trkpt lat="45.049" lon="3.23808">
        <ele>1203</ele>
        <time>2024-05-11T11:22:01Z</time>
      </trkpt>
      <trkpt lat="45.04906" lon="3.23818">
        <ele>1203</ele>
        <time>2024-05-11T11:22:03Z</time>
      </trkpt>
      <trkpt lat="45.04916" lon="3.23845">
        <ele>1201</ele>
        <time>2024-05-11T11:22:08Z</time>
      </trkpt>
      <trkpt lat="45.0494" lon="3.23885">
        <ele>1197</ele>
        <time>2024-05-11T11:22:17Z</time>
      </trkpt>
      <trkpt lat="45.04956" lon="3.23905">
        <ele>1195</ele>
        <time>2024-05-11T11:22:22Z</time>
      </trkpt>
      <trkpt lat="45.04977" lon="3.23939">
        <ele>1192</ele>
        <time>2024-05-11T11:22:29Z</time>
      </trkpt>
      <trkpt lat="45.0498" lon="3.23953">
        <ele>1191</ele>
        <time>2024-05-11T11:22:32Z</time>
      </trkpt>
      <trkpt lat="45.04982" lon="3.23997">
        <ele>1190</ele>
        <time>2024-05-11T11:22:39Z</time>
      </trkpt>
      <trkpt lat="45.04971" lon="3.23936">
        <ele>1193</ele>
        <time>2024-05-11T11:22:49Z</time>
      </trkpt>
      <trkpt lat="45.04967" lon="3.23926">
        <ele>1193</ele>
        <time>2024-05-11T11:22:51Z</time>
      </trkpt>
      <trkpt lat="45.04944" lon="3.23899">
        <ele>1197</ele>
        <time>2024-05-11T11:22:58Z</time>
      </trkpt>
      <trkpt lat="45.04933" lon="3.23876">
        <ele>1198</ele>
        <time>2024-05-11T11:23:03Z</time>
      </trkpt>
      <trkpt lat="45.04921" lon="3.23858">
        <ele>1200</ele>
        <time>2024-05-11T11:23:07Z</time>
      </trkpt>
      <trkpt lat="45.0493" lon="3.23866">
        <ele>1199</ele>
        <time>2024-05-11T11:23:09Z</time>
      </trkpt>
      <trkpt lat="45.04941" lon="3.23887">
        <ele>1197</ele>
        <time>2024-05-11T11:23:14Z</time>
      </trkpt>
      <trkpt lat="45.0495" lon="3.23898">
        <ele>1196</ele>
        <time>2024-05-11T11:23:16Z</time>
      </trkpt>
      <trkpt lat="45.04957" lon="3.23914">
        <ele>1195</ele>
        <time>2024-05-11T11:23:19Z</time>
      </trkpt>
      <trkpt lat="45.04972" lon="3.23929">
        <ele>1193</ele>
        <time>2024-05-11T11:23:24Z</time>
      </trkpt>
      <trkpt lat="45.04978" lon="3.23939">
        <ele>1192</ele>
        <time>2024-05-11T11:23:26Z</time>
      </trkpt>
      <trkpt lat="45.04981" lon="3.23964">
        <ele>1191</ele>
        <time>2024-05-11T11:23:30Z</time>
      </trkpt>
      <trkpt lat="45.0498" lon="3.2399">
        <ele>1191</ele>
        <time>2024-05-11T11:23:34Z</time>
      </trkpt>
      <trkpt lat="45.04982" lon="3.24015">
        <ele>1189</ele>
        <time>2024-05-11T11:23:39Z</time>
      </trkpt>
      <trkpt lat="45.04974" lon="3.2404">
        <ele>1190</ele>
        <time>2024-05-11T11:23:43Z</time>
      </trkpt>
      <trkpt lat="45.04977" lon="3.24087">
        <ele>1187</ele>
        <time>2024-05-11T11:23:51Z</time>
      </trkpt>
      <trkpt lat="45.04971" lon="3.24124">
        <ele>1186</ele>
        <time>2024-05-11T11:23:57Z</time>
      </trkpt>
      <trkpt lat="45.04991" lon="3.24225">
        <ele>1180</ele>
        <time>2024-05-11T11:24:14Z</time>
      </trkpt>
      <trkpt lat="45.04989" lon="3.24246">
        <ele>1180</ele>
        <time>2024-05-11T11:24:18Z</time>
      </trkpt>
      <trkpt lat="45.04995" lon="3.24285">
        <ele>1178</ele>
        <time>2024-05-11T11:24:24Z</time>
      </trkpt>
      <trkpt lat="45.05008" lon="3.24346">
        <ele>1174</ele>
        <time>2024-05-11T11:24:35Z</time>
      </trkpt>
      <trkpt lat="45.05012" lon="3.2436">
        <ele>1173</ele>
        <time>2024-05-11T11:24:38Z</time>
      </trkpt>
      <trkpt lat="45.05016" lon="3.24362">
        <ele>1172</ele>
        <time>2024-05-11T11:24:38Z</time>
      </trkpt>
      <trkpt lat="45.05017" lon="3.24327">
        <ele>1174</ele>
        <time>2024-05-11T11:24:44Z</time>
      </trkpt>
      <trkpt lat="45.05026" lon="3.24288">
        <ele>1174</ele>
        <time>2024-05-11T11:24:51Z</time>
      </trkpt>
      <trkpt lat="45.05032" lon="3.24247">
        <ele>1175</ele>
        <time>2024-05-11T11:24:58Z</time>
      </trkpt>
      <trkpt lat="45.05035" lon="3.2418">
        <ele>1175</ele>
        <time>2024-05-11T11:25:09Z</time>
      </trkpt>
      <trkpt lat="45.05048" lon="3.24129">
        <ele>1174</ele>
        <time>2024-05-11T11:25:18Z</time>
      </trkpt>
      <trkpt lat="45.05069" lon="3.24073">
        <ele>1172</ele>
        <time>2024-05-11T11:25:28Z</time>
      </trkpt>
      <trkpt lat="45.05074" lon="3.24065">
        <ele>1172</ele>
        <time>2024-05-11T11:25:30Z</time>
      </trkpt>
      <trkpt lat="45.05089" lon="3.24047">
        <ele>1170</ele>
        <time>2024-05-11T11:25:35Z</time>
      </trkpt>
      <trkpt lat="45.05098" lon="3.24043">
        <ele>1170</ele>
        <time>2024-05-11T11:25:37Z</time>
      </trkpt>
      <trkpt lat="45.05116" lon="3.2402">
        <ele>1169</ele>
        <time>2024-05-11T11:25:43Z</time>
      </trkpt>
      <trkpt lat="45.05139" lon="3.23996">
        <ele>1169</ele>
        <time>2024-05-11T11:25:49Z</time>
      </trkpt>
      <trkpt lat="45.05146" lon="3.23991">
        <ele>1168</ele>
        <time>2024-05-11T11:25:51Z</time>
      </trkpt>
      <trkpt lat="45.05162" lon="3.23992">
        <ele>1167</ele>
        <time>2024-05-11T11:25:55Z</time>
      </trkpt>
      <trkpt lat="45.05192" lon="3.23985">
        <ele>1165</ele>
        <time>2024-05-11T11:26:02Z</time>
      </trkpt>
      <trkpt lat="45.05211" lon="3.23987">
        <ele>1163</ele>
        <time>2024-05-11T11:26:06Z</time>
      </trkpt>
      <trkpt lat="45.05235" lon="3.23995">
        <ele>1161</ele>
        <time>2024-05-11T11:26:12Z</time>
      </trkpt>
      <trkpt lat="45.05254" lon="3.24005">
        <ele>1159</ele>
        <time>2024-05-11T11:26:17Z</time>
      </trkpt>
      <trkpt lat="45.05286" lon="3.24012">
        <ele>1155</ele>
        <time>2024-05-11T11:26:25Z</time>
      </trkpt>
      <trkpt lat="45.05329" lon="3.24039">
        <ele>1150</ele>
        <time>2024-05-11T11:26:35Z</time>
      </trkpt>
      <trkpt lat="45.05351" lon="3.24045">
        <ele>1148</ele>
        <time>2024-05-11T11:26:41Z</time>
      </trkpt>
      <trkpt lat="45.05377" lon="3.24032">
        <ele>1146</ele>
        <time>2024-05-11T11:26:47Z</time>
      </trkpt>
      <trkpt lat="45.05418" lon="3.24007">
        <ele>1141</ele>
        <time>2024-05-11T11:26:58Z</time>
      </trkpt>
      <trkpt lat="45.05445" lon="3.24008">
        <ele>1140</ele>
        <time>2024-05-11T11:27:04Z</time>
      </trkpt>
      <trkpt lat="45.05456" lon="3.24006">
        <ele>1140</ele>
        <time>2024-05-11T11:27:06Z</time>
      </trkpt>
      <trkpt lat="45.05469" lon="3.23999">
        <ele>1139</ele>
        <time>2024-05-11T11:27:10Z</time>
      </trkpt>
      <trkpt lat="45.05498" lon="3.23972">
        <ele>1136</ele>
        <time>2024-05-11T11:27:18Z</time>
      </trkpt>
      <trkpt lat="45.05537" lon="3.23924">
        <ele>1132</ele>
        <time>2024-05-11T11:27:30Z</time>
      </trkpt>
      <trkpt lat="45.0558" lon="3.23889">
        <ele>1129</ele>
        <time>2024-05-11T11:27:41Z</time>
      </trkpt>
      <trkpt lat="45.05604" lon="3.23865">
        <ele>1129</ele>
        <time>2024-05-11T11:27:48Z</time>
      </trkpt>
      <trkpt lat="45.05631" lon="3.23848">
        <ele>1128</ele>
        <time>2024-05-11T11:27:55Z</time>
      </trkpt>
      <trkpt lat="45.05642" lon="3.23838">
        <ele>1127</ele>
        <time>2024-05-11T11:27:58Z</time>
      </trkpt>
      <trkpt lat="45.05649" lon="3.23835">
        <ele>1127</ele>
        <time>2024-05-11T11:28:00Z</time>
      </trkpt>
      <trkpt lat="45.0566" lon="3.23835">
        <ele>1126</ele>
        <time>2024-05-11T11:28:03Z</time>
      </trkpt>
      <trkpt lat="45.05691" lon="3.23824">
        <ele>1124</ele>
        <time>2024-05-11T11:28:10Z</time>
      </trkpt>
      <trkpt lat="45.05713" lon="3.23808">
        <ele>1122</ele>
        <time>2024-05-11T11:28:16Z</time>
      </trkpt>
      <trkpt lat="45.05718" lon="3.23801">
        <ele>1121</ele>
        <time>2024-05-11T11:28:17Z</time>
      </trkpt>
      <trkpt lat="45.05724" lon="3.23788">
        <ele>1121</ele>
        <time>2024-05-11T11:28:20Z</time>
      </trkpt>
      <trkpt lat="45.05741" lon="3.23732">
        <ele>1118</ele>
        <time>2024-05-11T11:28:30Z</time>
      </trkpt>
      <trkpt lat="45.05756" lon="3.23664">
        <ele>1112</ele>
        <time>2024-05-11T11:28:42Z</time>
      </trkpt>
      <trkpt lat="45.05767" lon="3.23628">
        <ele>1110</ele>
        <time>2024-05-11T11:28:48Z</time>
      </trkpt>
      <trkpt lat="45.05772" lon="3.23584">
        <ele>1108</ele>
        <time>2024-05-11T11:28:56Z</time>
      </trkpt>
      <trkpt lat="45.05768" lon="3.23539">
        <ele>1104</ele>
        <time>2024-05-11T11:29:03Z</time>
      </trkpt>
      <trkpt lat="45.05773" lon="3.23514">
        <ele>1102</ele>
        <time>2024-05-11T11:29:07Z</time>
      </trkpt>
      <trkpt lat="45.058" lon="3.23459">
        <ele>1104</ele>
        <time>2024-05-11T11:29:18Z</time>
      </trkpt>
      <trkpt lat="45.05813" lon="3.23427">
        <ele>1105</ele>
        <time>2024-05-11T11:29:25Z</time>
      </trkpt>
      <trkpt lat="45.05843" lon="3.23371">
        <ele>1105</ele>
        <time>2024-05-11T11:29:36Z</time>
      </trkpt>
      <trkpt lat="45.0589" lon="3.23226">
        <ele>1102</ele>
        <time>2024-05-11T11:30:02Z</time>
      </trkpt>
      <trkpt lat="45.05902" lon="3.23197">
        <ele>1100</ele>
        <time>2024-05-11T11:30:08Z</time>
      </trkpt>
      <trkpt lat="45.05927" lon="3.23154">
        <ele>1098</ele>
        <time>2024-05-11T11:30:17Z</time>
      </trkpt>
      <trkpt lat="45.05942" lon="3.23113">
        <ele>1098</ele>
        <time>2024-05-11T11:30:25Z</time>
      </trkpt>
      <trkpt lat="45.05968" lon="3.2307">
        <ele>1097</ele>
        <time>2024-05-11T11:30:34Z</time>
      </trkpt>
      <trkpt lat="45.05992" lon="3.23048">
        <ele>1096</ele>
        <time>2024-05-11T11:30:41Z</time>
      </trkpt>
      <trkpt lat="45.06007" lon="3.23038">
        <ele>1095</ele>
        <time>2024-05-11T11:30:45Z</time>
      </trkpt>
      <trkpt lat="45.06018" lon="3.23034">
        <ele>1095</ele>
        <time>2024-05-11T11:30:47Z</time>
      </trkpt>
      <trkpt lat="45.06021" lon="3.23029">
        <ele>1095</ele>
        <time>2024-05-11T11:30:48Z</time>
      </trkpt>
      <trkpt lat="45.06018" lon="3.23021">
        <ele>1095</ele>
        <time>2024-05-11T11:30:50Z</time>
      </trkpt>
      <trkpt lat="45.06011" lon="3.23013">
        <ele>1096</ele>
        <time>2024-05-11T11:30:52Z</time>
      </trkpt>
      <trkpt lat="45.05996" lon="3.22987">
        <ele>1097</ele>
        <time>2024-05-11T11:30:58Z</time>
      </trkpt>
      <trkpt lat="45.05971" lon="3.22921">
        <ele>1100</ele>
        <time>2024-05-11T11:31:10Z</time>
      </trkpt>
      <trkpt lat="45.05971" lon="3.22735">
        <ele>1109</ele>
        <time>2024-05-11T11:31:41Z</time>
      </trkpt>
      <trkpt lat="45.05976" lon="3.22707">
        <ele>1109</ele>
        <time>2024-05-11T11:31:45Z</time>
      </trkpt>
      <trkpt lat="45.05999" lon="3.22663">
        <ele>1107</ele>
        <time>2024-05-11T11:31:54Z</time>
      </trkpt>
      <trkpt lat="45.06011" lon="3.22626">
        <ele>1107</ele>
        <time>2024-05-11T11:32:01Z</time>
      </trkpt>
      <trkpt lat="45.06014" lon="3.22624">
        <ele>1106</ele>
        <time>2024-05-11T11:32:02Z</time>
      </trkpt>
      <trkpt lat="45.06023" lon="3.22632">
        <ele>1105</ele>
        <time>2024-05-11T11:32:04Z</time>
      </trkpt>
      <trkpt lat="45.06028" lon="3.22628">
        <ele>1104</ele>
        <time>2024-05-11T11:32:06Z</time>
      </trkpt>
      <trkpt lat="45.06041" lon="3.22611">
        <ele>1103</ele>
        <time>2024-05-11T11:32:10Z</time>
      </trkpt>
      <trkpt lat="45.06074" lon="3.22554">
        <ele>1098</ele>
        <time>2024-05-11T11:32:22Z</time>
      </trkpt>
      <trkpt lat="45.06084" lon="3.22551">
        <ele>1097</ele>
        <time>2024-05-11T11:32:24Z</time>
      </trkpt>
      <trkpt lat="45.06094" lon="3.22538">
        <ele>1096</ele>
        <time>2024-05-11T11:32:28Z</time>
      </trkpt>
      <trkpt lat="45.06102" lon="3.22534">
        <ele>1096</ele>
        <time>2024-05-11T11:32:30Z</time>
      </trkpt>
      <trkpt lat="45.06124" lon="3.22563">
        <ele>1094</ele>
        <time>2024-05-11T11:32:37Z</time>
      </trkpt>
      <trkpt lat="45.06143" lon="3.22599">
        <ele>1092</ele>
        <time>2024-05-11T11:32:44Z</time>
      </trkpt>
      <trkpt lat="45.06218" lon="3.22759">
        <ele>1083</ele>
        <time>2024-05-11T11:33:16Z</time>
      </trkpt>
      <trkpt lat="45.06236" lon="3.22817">
        <ele>1081</ele>
        <time>2024-05-11T11:33:26Z</time>
      </trkpt>
      <trkpt lat="45.06267" lon="3.2285">
        <ele>1078</ele>
        <time>2024-05-11T11:33:35Z</time>
      </trkpt>
      <trkpt lat="45.06279" lon="3.22882">
        <ele>1078</ele>
        <time>2024-05-11T11:33:41Z</time>
      </trkpt>
      <trkpt lat="45.06291" lon="3.22899">
        <ele>1078</ele>
        <time>2024-05-11T11:33:45Z</time>
      </trkpt>
      <trkpt lat="45.06304" lon="3.229">
        <ele>1078</ele>
        <time>2024-05-11T11:33:48Z</time>
      </trkpt>
      <trkpt lat="45.06335" lon="3.22884">
        <ele>1078</ele>
        <time>2024-05-11T11:33:56Z</time>
      </trkpt>
      <trkpt lat="45.06377" lon="3.2287">
        <ele>1081</ele>
        <time>2024-05-11T11:34:06Z</time>
      </trkpt>
      <trkpt lat="45.06386" lon="3.22865">
        <ele>1082</ele>
        <time>2024-05-11T11:34:08Z</time>
      </trkpt>
      <trkpt lat="45.06441" lon="3.22828">
        <ele>1085</ele>
        <time>2024-05-11T11:34:22Z</time>
      </trkpt>
      <trkpt lat="45.06461" lon="3.22804">
        <ele>1086</ele>
        <time>2024-05-11T11:34:29Z</time>
      </trkpt>
      <trkpt lat="45.06473" lon="3.22785">
        <ele>1086</ele>
        <time>2024-05-11T11:34:33Z</time>
      </trkpt>
      <trkpt lat="45.06479" lon="3.22782">
        <ele>1086</ele>
        <time>2024-05-11T11:34:34Z</time>
      </trkpt>
      <trkpt lat="45.06491" lon="3.22781">
        <ele>1087</ele>
        <time>2024-05-11T11:34:37Z</time>
      </trkpt>
      <trkpt lat="45.06497" lon="3.22773">
        <ele>1088</ele>
        <time>2024-05-11T11:34:39Z</time>
      </trkpt>
      <trkpt lat="45.06506" lon="3.22734">
        <ele>1087</ele>
        <time>2024-05-11T11:34:46Z</time>
      </trkpt>
      <trkpt lat="45.0651" lon="3.2269">
        <ele>1085</ele>
        <time>2024-05-11T11:34:53Z</time>
      </trkpt>
      <trkpt lat="45.06497" lon="3.22585">
        <ele>1082</ele>
        <time>2024-05-11T11:35:11Z</time>
      </trkpt>
      <trkpt lat="45.06503" lon="3.22565">
        <ele>1082</ele>
        <time>2024-05-11T11:35:14Z</time>
      </trkpt>
      <trkpt lat="45.0651" lon="3.22498">
        <ele>1080</ele>
        <time>2024-05-11T11:35:25Z</time>
      </trkpt>
      <trkpt lat="45.06517" lon="3.22457">
        <ele>1080</ele>
        <time>2024-05-11T11:35:32Z</time>
      </trkpt>
      <trkpt lat="45.06522" lon="3.22355">
        <ele>1077</ele>
        <time>2024-05-11T11:35:49Z</time>
      </trkpt>
      <trkpt lat="45.06539" lon="3.2223">
        <ele>1077</ele>
        <time>2024-05-11T11:36:10Z</time>
      </trkpt>
      <trkpt lat="45.06543" lon="3.22145">
        <ele>1075</ele>
        <time>2024-05-11T11:36:24Z</time>
      </trkpt>
      <trkpt lat="45.0654" lon="3.22101">
        <ele>1072</ele>
        <time>2024-05-11T11:36:32Z</time>
      </trkpt>
      <trkpt lat="45.06543" lon="3.22048">
        <ele>1071</ele>
        <time>2024-05-11T11:36:40Z</time>
      </trkpt>
      <trkpt lat="45.06566" lon="3.2199">
        <ele>1072</ele>
        <time>2024-05-11T11:36:51Z</time>
      </trkpt>
      <trkpt lat="45.06578" lon="3.21967">
        <ele>1073</ele>
        <time>2024-05-11T11:36:56Z</time>
      </trkpt>
      <trkpt lat="45.06679" lon="3.21652">
        <ele>1070</ele>
        <time>2024-05-11T11:37:53Z</time>
      </trkpt>
      <trkpt lat="45.06697" lon="3.21605">
        <ele>1069</ele>
        <time>2024-05-11T11:38:02Z</time>
      </trkpt>
      <trkpt lat="45.06722" lon="3.21549">
        <ele>1069</ele>
        <time>2024-05-11T11:38:13Z</time>
      </trkpt>
      <trkpt lat="45.06879" lon="3.21225">
        <ele>1065</ele>
        <time>2024-05-11T11:39:18Z</time>
      </trkpt>
      <trkpt lat="45.06934" lon="3.21104">
        <ele>1057</ele>
        <time>2024-05-11T11:39:41Z</time>
      </trkpt>
      <trkpt lat="45.0694" lon="3.21077">
        <ele>1053</ele>
        <time>2024-05-11T11:39:46Z</time>
      </trkpt>
      <trkpt lat="45.06939" lon="3.20999">
        <ele>1049</ele>
        <time>2024-05-11T11:39:59Z</time>
      </trkpt>
      <trkpt lat="45.06944" lon="3.20965">
        <ele>1050</ele>
        <time>2024-05-11T11:40:05Z</time>
      </trkpt>
      <trkpt lat="45.06996" lon="3.20786">
        <ele>1059</ele>
        <time>2024-05-11T11:40:37Z</time>
      </trkpt>
      <trkpt lat="45.07064" lon="3.20533">
        <ele>1071</ele>
        <time>2024-05-11T11:41:21Z</time>
      </trkpt>
      <trkpt lat="45.07068" lon="3.20506">
        <ele>1072</ele>
        <time>2024-05-11T11:41:26Z</time>
      </trkpt>
      <trkpt lat="45.07073" lon="3.20416">
        <ele>1076</ele>
        <time>2024-05-11T11:41:41Z</time>
      </trkpt>
      <trkpt lat="45.07078" lon="3.20378">
        <ele>1079</ele>
        <time>2024-05-11T11:41:47Z</time>
      </trkpt>
      <trkpt lat="45.07092" lon="3.20306">
        <ele>1083</ele>
        <time>2024-05-11T11:41:59Z</time>
      </trkpt>
      <trkpt lat="45.07097" lon="3.20302">
        <ele>1083</ele>
        <time>2024-05-11T11:42:01Z</time>
      </trkpt>
      <trkpt lat="45.07101" lon="3.20306">
        <ele>1082</ele>
        <time>2024-05-11T11:42:02Z</time>
      </trkpt>
      <trkpt lat="45.071" lon="3.2031">
        <ele>1082</ele>
        <time>2024-05-11T11:42:02Z</time>
      </trkpt>
      <trkpt lat="45.07102" lon="3.20299">
        <ele>1082</ele>
        <time>2024-05-11T11:42:04Z</time>
      </trkpt>
      <trkpt lat="45.07096" lon="3.20278">
        <ele>1083</ele>
        <time>2024-05-11T11:42:08Z</time>
      </trkpt>
      <trkpt lat="45.07096" lon="3.20255">
        <ele>1083</ele>
        <time>2024-05-11T11:42:12Z</time>
      </trkpt>
      <trkpt lat="45.07089" lon="3.20233">
        <ele>1084</ele>
        <time>2024-05-11T11:42:16Z</time>
      </trkpt>
      <trkpt lat="45.07084" lon="3.20201">
        <ele>1083</ele>
        <time>2024-05-11T11:42:21Z</time>
      </trkpt>
      <trkpt lat="45.07079" lon="3.20187">
        <ele>1084</ele>
        <time>2024-05-11T11:42:24Z</time>
      </trkpt>
      <trkpt lat="45.07076" lon="3.20186">
        <ele>1084</ele>
        <time>2024-05-11T11:42:25Z</time>
      </trkpt>
      <trkpt lat="45.07074" lon="3.2019">
        <ele>1084</ele>
        <time>2024-05-11T11:42:25Z</time>
      </trkpt>
      <trkpt lat="45.07088" lon="3.2022">
        <ele>1083</ele>
        <time>2024-05-11T11:42:31Z</time>
      </trkpt>
      <trkpt lat="45.07093" lon="3.20219">
        <ele>1083</ele>
        <time>2024-05-11T11:42:32Z</time>
      </trkpt>
      <trkpt lat="45.07099" lon="3.20214">
        <ele>1083</ele>
        <time>2024-05-11T11:42:34Z</time>
      </trkpt>
      <trkpt lat="45.07109" lon="3.20214">
        <ele>1082</ele>
        <time>2024-05-11T11:42:36Z</time>
      </trkpt>
      <trkpt lat="45.07122" lon="3.20209">
        <ele>1081</ele>
        <time>2024-05-11T11:42:40Z</time>
      </trkpt>
      <trkpt lat="45.0712" lon="3.20185">
        <ele>1081</ele>
        <time>2024-05-11T11:42:44Z</time>
      </trkpt>
      <trkpt lat="45.07114" lon="3.20154">
        <ele>1081</ele>
        <time>2024-05-11T11:42:49Z</time>
      </trkpt>
      <trkpt lat="45.07108" lon="3.20139">
        <ele>1082</ele>
        <time>2024-05-11T11:42:52Z</time>
      </trkpt>
      <trkpt lat="45.07107" lon="3.20125">
        <ele>1082</ele>
        <time>2024-05-11T11:42:54Z</time>
      </trkpt>
      <trkpt lat="45.07121" lon="3.20115">
        <ele>1081</ele>
        <time>2024-05-11T11:42:58Z</time>
      </trkpt>
      <trkpt lat="45.07136" lon="3.20108">
        <ele>1080</ele>
        <time>2024-05-11T11:43:01Z</time>
      </trkpt>
      <trkpt lat="45.07142" lon="3.20097">
        <ele>1079</ele>
        <time>2024-05-11T11:43:04Z</time>
      </trkpt>
      <trkpt lat="45.07145" lon="3.20082">
        <ele>1079</ele>
        <time>2024-05-11T11:43:06Z</time>
      </trkpt>
      <trkpt lat="45.07143" lon="3.20042">
        <ele>1078</ele>
        <time>2024-05-11T11:43:13Z</time>
      </trkpt>
      <trkpt lat="45.07149" lon="3.20022">
        <ele>1077</ele>
        <time>2024-05-11T11:43:16Z</time>
      </trkpt>
      <trkpt lat="45.07155" lon="3.20013">
        <ele>1076</ele>
        <time>2024-05-11T11:43:19Z</time>
      </trkpt>
      <trkpt lat="45.07163" lon="3.20009">
        <ele>1076</ele>
        <time>2024-05-11T11:43:20Z</time>
      </trkpt>
      <trkpt lat="45.07189" lon="3.20007">
        <ele>1074</ele>
        <time>2024-05-11T11:43:27Z</time>
      </trkpt>
      <trkpt lat="45.07218" lon="3.19994">
        <ele>1073</ele>
        <time>2024-05-11T11:43:34Z</time>
      </trkpt>
      <trkpt lat="45.07254" lon="3.19961">
        <ele>1073</ele>
        <time>2024-05-11T11:43:44Z</time>
      </trkpt>
      <trkpt lat="45.0731" lon="3.19925">
        <ele>1070</ele>
        <time>2024-05-11T11:43:58Z</time>
      </trkpt>
      <trkpt lat="45.07343" lon="3.19899">
        <ele>1069</ele>
        <time>2024-05-11T11:44:07Z</time>
      </trkpt>
      <trkpt lat="45.0736" lon="3.1989">
        <ele>1068</ele>
        <time>2024-05-11T11:44:11Z</time>
      </trkpt>
      <trkpt lat="45.07394" lon="3.19865">
        <ele>1068</ele>
        <time>2024-05-11T11:44:20Z</time>
      </trkpt>
      <trkpt lat="45.07419" lon="3.19857">
        <ele>1067</ele>
        <time>2024-05-11T11:44:26Z</time>
      </trkpt>
      <trkpt lat="45.07431" lon="3.1985">
        <ele>1067</ele>
        <time>2024-05-11T11:44:29Z</time>
      </trkpt>
      <trkpt lat="45.0749" lon="3.19797">
        <ele>1065</ele>
        <time>2024-05-11T11:44:45Z</time>
      </trkpt>
      <trkpt lat="45.07516" lon="3.19787">
        <ele>1064</ele>
        <time>2024-05-11T11:44:52Z</time>
      </trkpt>
      <trkpt lat="45.07542" lon="3.19783">
        <ele>1063</ele>
        <time>2024-05-11T11:44:58Z</time>
      </trkpt>
      <trkpt lat="45.07555" lon="3.19777">
        <ele>1063</ele>
        <time>2024-05-11T11:45:01Z</time>
      </trkpt>
      <trkpt lat="45.07567" lon="3.19768">
        <ele>1063</ele>
        <time>2024-05-11T11:45:04Z</time>
      </trkpt>
      <trkpt lat="45.07619" lon="3.19714">
        <ele>1064</ele>
        <time>2024-05-11T11:45:19Z</time>
      </trkpt>
      <trkpt lat="45.07627" lon="3.19699">
        <ele>1065</ele>
        <time>2024-05-11T11:45:22Z</time>
      </trkpt>
      <trkpt lat="45.07633" lon="3.1967">
        <ele>1067</ele>
        <time>2024-05-11T11:45:27Z</time>
      </trkpt>
      <trkpt lat="45.07641" lon="3.19652">
        <ele>1068</ele>
        <time>2024-05-11T11:45:31Z</time>
      </trkpt>
      <trkpt lat="45.07679" lon="3.1963">
        <ele>1069</ele>
        <time>2024-05-11T11:45:40Z</time>
      </trkpt>
      <trkpt lat="45.07691" lon="3.1961">
        <ele>1070</ele>
        <time>2024-05-11T11:45:45Z</time>
      </trkpt>
      <trkpt lat="45.07711" lon="3.19566">
        <ele>1073</ele>
        <time>2024-05-11T11:45:53Z</time>
      </trkpt>
      <trkpt lat="45.07731" lon="3.19539">
        <ele>1075</ele>
        <time>2024-05-11T11:46:00Z</time>
      </trkpt>
      <trkpt lat="45.07806" lon="3.19491">
        <ele>1078</ele>
        <time>2024-05-11T11:46:19Z</time>
      </trkpt>
      <trkpt lat="45.07977" lon="3.19337">
        <ele>1090</ele>
        <time>2024-05-11T11:47:06Z</time>
      </trkpt>
      <trkpt lat="45.08041" lon="3.193">
        <ele>1092</ele>
        <time>2024-05-11T11:47:22Z</time>
      </trkpt>
      <trkpt lat="45.08061" lon="3.19286">
        <ele>1091</ele>
        <time>2024-05-11T11:47:28Z</time>
      </trkpt>
      <trkpt lat="45.08078" lon="3.19279">
        <ele>1091</ele>
        <time>2024-05-11T11:47:32Z</time>
      </trkpt>
      <trkpt lat="45.08091" lon="3.19277">
        <ele>1090</ele>
        <time>2024-05-11T11:47:35Z</time>
      </trkpt>
      <trkpt lat="45.08095" lon="3.19272">
        <ele>1090</ele>
        <time>2024-05-11T11:47:36Z</time>
      </trkpt>
      <trkpt lat="45.08094" lon="3.19265">
        <ele>1090</ele>
        <time>2024-05-11T11:47:37Z</time>
      </trkpt>
      <trkpt lat="45.08097" lon="3.19256">
        <ele>1090</ele>
        <time>2024-05-11T11:47:39Z</time>
      </trkpt>
      <trkpt lat="45.08115" lon="3.19132">
        <ele>1088</ele>
        <time>2024-05-11T11:48:00Z</time>
      </trkpt>
      <trkpt lat="45.08142" lon="3.19018">
        <ele>1089</ele>
        <time>2024-05-11T11:48:20Z</time>
      </trkpt>
      <trkpt lat="45.08146" lon="3.18949">
        <ele>1091</ele>
        <time>2024-05-11T11:48:31Z</time>
      </trkpt>
      <trkpt lat="45.08153" lon="3.18882">
        <ele>1092</ele>
        <time>2024-05-11T11:48:42Z</time>
      </trkpt>
      <trkpt lat="45.08153" lon="3.18841">
        <ele>1093</ele>
        <time>2024-05-11T11:48:49Z</time>
      </trkpt>
      <trkpt lat="45.08138" lon="3.1873">
        <ele>1090</ele>
        <time>2024-05-11T11:49:08Z</time>
      </trkpt>
      <trkpt lat="45.08134" lon="3.18644">
        <ele>1089</ele>
        <time>2024-05-11T11:49:22Z</time>
      </trkpt>
      <trkpt lat="45.08127" lon="3.18584">
        <ele>1088</ele>
        <time>2024-05-11T11:49:32Z</time>
      </trkpt>
      <trkpt lat="45.08115" lon="3.18541">
        <ele>1088</ele>
        <time>2024-05-11T11:49:39Z</time>
      </trkpt>
      <trkpt lat="45.081" lon="3.18513">
        <ele>1088</ele>
        <time>2024-05-11T11:49:45Z</time>
      </trkpt>
      <trkpt lat="45.08046" lon="3.18432">
        <ele>1087</ele>
        <time>2024-05-11T11:50:04Z</time>
      </trkpt>
      <trkpt lat="45.08017" lon="3.18398">
        <ele>1088</ele>
        <time>2024-05-11T11:50:12Z</time>
      </trkpt>
      <trkpt lat="45.07983" lon="3.18369">
        <ele>1088</ele>
        <time>2024-05-11T11:50:22Z</time>
      </trkpt>
      <trkpt lat="45.07965" lon="3.18341">
        <ele>1087</ele>
        <time>2024-05-11T11:50:28Z</time>
      </trkpt>
      <trkpt lat="45.07939" lon="3.18258">
        <ele>1087</ele>
        <time>2024-05-11T11:50:43Z</time>
      </trkpt>
      <trkpt lat="45.07923" lon="3.18183">
        <ele>1086</ele>
        <time>2024-05-11T11:50:56Z</time>
      </trkpt>
      <trkpt lat="45.07896" lon="3.18084">
        <ele>1086</ele>
        <time>2024-05-11T11:51:13Z</time>
      </trkpt>
      <trkpt lat="45.07897" lon="3.18076">
        <ele>1086</ele>
        <time>2024-05-11T11:51:15Z</time>
      </trkpt>
      <trkpt lat="45.07901" lon="3.18071">
        <ele>1086</ele>
        <time>2024-05-11T11:51:16Z</time>
      </trkpt>
      <trkpt lat="45.079" lon="3.18068">
        <ele>1086</ele>
        <time>2024-05-11T11:51:16Z</time>
      </trkpt>
      <trkpt lat="45.07892" lon="3.18077">
        <ele>1087</ele>
        <time>2024-05-11T11:51:19Z</time>
      </trkpt>
      <trkpt lat="45.07902" lon="3.18073">
        <ele>1086</ele>
        <time>2024-05-11T11:51:21Z</time>
      </trkpt>
      <trkpt lat="45.07974" lon="3.17963">
        <ele>1085</ele>
        <time>2024-05-11T11:51:46Z</time>
      </trkpt>
      <trkpt lat="45.08017" lon="3.17903">
        <ele>1084</ele>
        <time>2024-05-11T11:52:00Z</time>
      </trkpt>
      <trkpt lat="45.08059" lon="3.17858">
        <ele>1085</ele>
        <time>2024-05-11T11:52:12Z</time>
      </trkpt>
      <trkpt lat="45.081" lon="3.17824">
        <ele>1086</ele>
        <time>2024-05-11T11:52:24Z</time>
      </trkpt>
      <trkpt lat="45.08179" lon="3.17771">
        <ele>1088</ele>
        <time>2024-05-11T11:52:44Z</time>
      </trkpt>
      <trkpt lat="45.08369" lon="3.17605">
        <ele>1092</ele>
        <time>2024-05-11T11:53:36Z</time>
      </trkpt>
      <trkpt lat="45.08375" lon="3.17607">
        <ele>1092</ele>
        <time>2024-05-11T11:53:38Z</time>
      </trkpt>
      <trkpt lat="45.08398" lon="3.17648">
        <ele>1093</ele>
        <time>2024-05-11T11:53:46Z</time>
      </trkpt>
      <trkpt lat="45.08494" lon="3.17875">
        <ele>1096</ele>
        <time>2024-05-11T11:54:30Z</time>
      </trkpt>
      <trkpt lat="45.08531" lon="3.17971">
        <ele>1094</ele>
        <time>2024-05-11T11:54:48Z</time>
      </trkpt>
      <trkpt lat="45.08612" lon="3.18146">
        <ele>1090</ele>
        <time>2024-05-11T11:55:22Z</time>
      </trkpt>
      <trkpt lat="45.08619" lon="3.18154">
        <ele>1089</ele>
        <time>2024-05-11T11:55:24Z</time>
      </trkpt>
      <trkpt lat="45.0865" lon="3.18167">
        <ele>1089</ele>
        <time>2024-05-11T11:55:32Z</time>
      </trkpt>
      <trkpt lat="45.08706" lon="3.18208">
        <ele>1087</ele>
        <time>2024-05-11T11:55:47Z</time>
      </trkpt>
      <trkpt lat="45.08753" lon="3.18247">
        <ele>1084</ele>
        <time>2024-05-11T11:55:59Z</time>
      </trkpt>
      <trkpt lat="45.0872" lon="3.18224">
        <ele>1085</ele>
        <time>2024-05-11T11:56:08Z</time>
      </trkpt>
      <trkpt lat="45.08677" lon="3.18189">
        <ele>1088</ele>
        <time>2024-05-11T11:56:20Z</time>
      </trkpt>
      <trkpt lat="45.08675" lon="3.18185">
        <ele>1088</ele>
        <time>2024-05-11T11:56:20Z</time>
      </trkpt>
      <trkpt lat="45.08686" lon="3.18189">
        <ele>1088</ele>
        <time>2024-05-11T11:56:23Z</time>
      </trkpt>
      <trkpt lat="45.08695" lon="3.18184">
        <ele>1089</ele>
        <time>2024-05-11T11:56:25Z</time>
      </trkpt>
      <trkpt lat="45.08707" lon="3.1817">
        <ele>1091</ele>
        <time>2024-05-11T11:56:29Z</time>
      </trkpt>
      <trkpt lat="45.08714" lon="3.18156">
        <ele>1093</ele>
        <time>2024-05-11T11:56:32Z</time>
      </trkpt>
      <trkpt lat="45.08742" lon="3.18138">
        <ele>1095</ele>
        <time>2024-05-11T11:56:39Z</time>
      </trkpt>
      <trkpt lat="45.08757" lon="3.18113">
        <ele>1098</ele>
        <time>2024-05-11T11:56:44Z</time>
      </trkpt>
      <trkpt lat="45.08763" lon="3.18109">
        <ele>1099</ele>
        <time>2024-05-11T11:56:46Z</time>
      </trkpt>
      <trkpt lat="45.08769" lon="3.181">
        <ele>1100</ele>
        <time>2024-05-11T11:56:48Z</time>
      </trkpt>
      <trkpt lat="45.08791" lon="3.18082">
        <ele>1103</ele>
        <time>2024-05-11T11:56:54Z</time>
      </trkpt>
      <trkpt lat="45.08796" lon="3.18073">
        <ele>1103</ele>
        <time>2024-05-11T11:56:56Z</time>
      </trkpt>
      <trkpt lat="45.08823" lon="3.18048">
        <ele>1105</ele>
        <time>2024-05-11T11:57:03Z</time>
      </trkpt>
      <trkpt lat="45.08833" lon="3.1802">
        <ele>1106</ele>
        <time>2024-05-11T11:57:08Z</time>
      </trkpt>
      <trkpt lat="45.08847" lon="3.17993">
        <ele>1106</ele>
        <time>2024-05-11T11:57:14Z</time>
      </trkpt>
      <trkpt lat="45.08883" lon="3.17942">
        <ele>1105</ele>
        <time>2024-05-11T11:57:26Z</time>
      </trkpt>
      <trkpt lat="45.08891" lon="3.17927">
        <ele>1105</ele>
        <time>2024-05-11T11:57:29Z</time>
      </trkpt>
      <trkpt lat="45.08899" lon="3.17921">
        <ele>1105</ele>
        <time>2024-05-11T11:57:31Z</time>
      </trkpt>
      <trkpt lat="45.08926" lon="3.17883">
        <ele>1104</ele>
        <time>2024-05-11T11:57:40Z</time>
      </trkpt>
      <trkpt lat="45.08935" lon="3.17861">
        <ele>1104</ele>
        <time>2024-05-11T11:57:44Z</time>
      </trkpt>
      <trkpt lat="45.08976" lon="3.17817">
        <ele>1105</ele>
        <time>2024-05-11T11:57:56Z</time>
      </trkpt>
      <trkpt lat="45.08992" lon="3.17793">
        <ele>1106</ele>
        <time>2024-05-11T11:58:02Z</time>
      </trkpt>
      <trkpt lat="45.09007" lon="3.17761">
        <ele>1108</ele>
        <time>2024-05-11T11:58:08Z</time>
      </trkpt>
      <trkpt lat="45.0902" lon="3.17745">
        <ele>1108</ele>
        <time>2024-05-11T11:58:12Z</time>
      </trkpt>
      <trkpt lat="45.09031" lon="3.17725">
        <ele>1108</ele>
        <time>2024-05-11T11:58:16Z</time>
      </trkpt>
      <trkpt lat="45.09038" lon="3.17719">
        <ele>1108</ele>
        <time>2024-05-11T11:58:18Z</time>
      </trkpt>
      <trkpt lat="45.0905" lon="3.17716">
        <ele>1108</ele>
        <time>2024-05-11T11:58:21Z</time>
      </trkpt>
      <trkpt lat="45.09055" lon="3.17709">
        <ele>1108</ele>
        <time>2024-05-11T11:58:23Z</time>
      </trkpt>
      <trkpt lat="45.09069" lon="3.17701">
        <ele>1109</ele>
        <time>2024-05-11T11:58:26Z</time>
      </trkpt>
      <trkpt lat="45.09076" lon="3.1769">
        <ele>1109</ele>
        <time>2024-05-11T11:58:29Z</time>
      </trkpt>
      <trkpt lat="45.09088" lon="3.17679">
        <ele>1109</ele>
        <time>2024-05-11T11:58:32Z</time>
      </trkpt>
      <trkpt lat="45.09091" lon="3.1767">
        <ele>1110</ele>
        <time>2024-05-11T11:58:34Z</time>
      </trkpt>
      <trkpt lat="45.09102" lon="3.17652">
        <ele>1110</ele>
        <time>2024-05-11T11:58:37Z</time>
      </trkpt>
      <trkpt lat="45.09071" lon="3.17702">
        <ele>1109</ele>
        <time>2024-05-11T11:58:48Z</time>
      </trkpt>
      <trkpt lat="45.09061" lon="3.1771">
        <ele>1108</ele>
        <time>2024-05-11T11:58:51Z</time>
      </trkpt>
      <trkpt lat="45.09052" lon="3.17707">
        <ele>1108</ele>
        <time>2024-05-11T11:58:53Z</time>
      </trkpt>
      <trkpt lat="45.09042" lon="3.1772">
        <ele>1108</ele>
        <time>2024-05-11T11:58:56Z</time>
      </trkpt>
      <trkpt lat="45.09034" lon="3.17724">
        <ele>1108</ele>
        <time>2024-05-11T11:58:58Z</time>
      </trkpt>
      <trkpt lat="45.09008" lon="3.17763">
        <ele>1107</ele>
        <time>2024-05-11T11:59:07Z</time>
      </trkpt>
      <trkpt lat="45.08993" lon="3.17792">
        <ele>1106</ele>
        <time>2024-05-11T11:59:13Z</time>
      </trkpt>
      <trkpt lat="45.08983" lon="3.17804">
        <ele>1106</ele>
        <time>2024-05-11T11:59:16Z</time>
      </trkpt>
      <trkpt lat="45.08979" lon="3.17813">
        <ele>1106</ele>
        <time>2024-05-11T11:59:18Z</time>
      </trkpt>
      <trkpt lat="45.08952" lon="3.17848">
        <ele>1104</ele>
        <time>2024-05-11T11:59:27Z</time>
      </trkpt>
      <trkpt lat="45.08942" lon="3.17854">
        <ele>1104</ele>
        <time>2024-05-11T11:59:29Z</time>
      </trkpt>
      <trkpt lat="45.08932" lon="3.17878">
        <ele>1104</ele>
        <time>2024-05-11T11:59:34Z</time>
      </trkpt>
      <trkpt lat="45.08921" lon="3.17895">
        <ele>1104</ele>
        <time>2024-05-11T11:59:37Z</time>
      </trkpt>
      <trkpt lat="45.08911" lon="3.17904">
        <ele>1104</ele>
        <time>2024-05-11T11:59:40Z</time>
      </trkpt>
      <trkpt lat="45.08914" lon="3.17908">
        <ele>1104</ele>
        <time>2024-05-11T11:59:41Z</time>
      </trkpt>
      <trkpt lat="45.08909" lon="3.17909">
        <ele>1104</ele>
        <time>2024-05-11T11:59:42Z</time>
      </trkpt>
      <trkpt lat="45.08871" lon="3.17956">
        <ele>1106</ele>
        <time>2024-05-11T11:59:54Z</time>
      </trkpt>
      <trkpt lat="45.08861" lon="3.17976">
        <ele>1106</ele>
        <time>2024-05-11T11:59:58Z</time>
      </trkpt>
      <trkpt lat="45.08845" lon="3.17998">
        <ele>1106</ele>
        <time>2024-05-11T12:00:03Z</time>
      </trkpt>
      <trkpt lat="45.08824" lon="3.18044">
        <ele>1105</ele>
        <time>2024-05-11T12:00:12Z</time>
      </trkpt>
      <trkpt lat="45.08812" lon="3.18054">
        <ele>1104</ele>
        <time>2024-05-11T12:00:16Z</time>
      </trkpt>
      <trkpt lat="45.08783" lon="3.18091">
        <ele>1101</ele>
        <time>2024-05-11T12:00:25Z</time>
      </trkpt>
      <trkpt lat="45.08772" lon="3.18099">
        <ele>1100</ele>
        <time>2024-05-11T12:00:28Z</time>
      </trkpt>
      <trkpt lat="45.08749" lon="3.18133">
        <ele>1096</ele>
        <time>2024-05-11T12:00:35Z</time>
      </trkpt>
      <trkpt lat="45.08722" lon="3.18151">
        <ele>1093</ele>
        <time>2024-05-11T12:00:42Z</time>
      </trkpt>
      <trkpt lat="45.08691" lon="3.18186">
        <ele>1089</ele>
        <time>2024-05-11T12:00:52Z</time>
      </trkpt>
      <trkpt lat="45.08683" lon="3.1819">
        <ele>1088</ele>
        <time>2024-05-11T12:00:54Z</time>
      </trkpt>
      <trkpt lat="45.08668" lon="3.18179">
        <ele>1089</ele>
        <time>2024-05-11T12:00:58Z</time>
      </trkpt>
      <trkpt lat="45.08619" lon="3.18155">
        <ele>1089</ele>
        <time>2024-05-11T12:01:10Z</time>
      </trkpt>
      <trkpt lat="45.08608" lon="3.18139">
        <ele>1090</ele>
        <time>2024-05-11T12:01:13Z</time>
      </trkpt>
      <trkpt lat="45.08578" lon="3.18068">
        <ele>1094</ele>
        <time>2024-05-11T12:01:27Z</time>
      </trkpt>
      <trkpt lat="45.08539" lon="3.17991">
        <ele>1093</ele>
        <time>2024-05-11T12:01:43Z</time>
      </trkpt>
      <trkpt lat="45.08471" lon="3.17815">
        <ele>1095</ele>
        <time>2024-05-11T12:02:16Z</time>
      </trkpt>
      <trkpt lat="45.08464" lon="3.17805">
        <ele>1094</ele>
        <time>2024-05-11T12:02:18Z</time>
      </trkpt>
      <trkpt lat="45.08377" lon="3.176">
        <ele>1092</ele>
        <time>2024-05-11T12:02:58Z</time>
      </trkpt>
      <trkpt lat="45.08381" lon="3.17592">
        <ele>1093</ele>
        <time>2024-05-11T12:02:59Z</time>
      </trkpt>
      <trkpt lat="45.08471" lon="3.17515">
        <ele>1093</ele>
        <time>2024-05-11T12:03:24Z</time>
      </trkpt>
      <trkpt lat="45.08513" lon="3.17475">
        <ele>1094</ele>
        <time>2024-05-11T12:03:36Z</time>
      </trkpt>
      <trkpt lat="45.08528" lon="3.17464">
        <ele>1094</ele>
        <time>2024-05-11T12:03:39Z</time>
      </trkpt>
      <trkpt lat="45.08612" lon="3.17389">
        <ele>1093</ele>
        <time>2024-05-11T12:04:03Z</time>
      </trkpt>
      <trkpt lat="45.08644" lon="3.17355">
        <ele>1091</ele>
        <time>2024-05-11T12:04:12Z</time>
      </trkpt>
      <trkpt lat="45.08672" lon="3.17314">
        <ele>1089</ele>
        <time>2024-05-11T12:04:21Z</time>
      </trkpt>
      <trkpt lat="45.08699" lon="3.17261">
        <ele>1087</ele>
        <time>2024-05-11T12:04:32Z</time>
      </trkpt>
      <trkpt lat="45.08937" lon="3.16732">
        <ele>1081</ele>
        <time>2024-05-11T12:06:16Z</time>
      </trkpt>
      <trkpt lat="45.08971" lon="3.16663">
        <ele>1083</ele>
        <time>2024-05-11T12:06:29Z</time>
      </trkpt>
      <trkpt lat="45.09033" lon="3.16565">
        <ele>1083</ele>
        <time>2024-05-11T12:06:51Z</time>
      </trkpt>
      <trkpt lat="45.09047" lon="3.16539">
        <ele>1083</ele>
        <time>2024-05-11T12:06:57Z</time>
      </trkpt>
      <trkpt lat="45.09124" lon="3.1636">
        <ele>1081</ele>
        <time>2024-05-11T12:07:31Z</time>
      </trkpt>
      <trkpt lat="45.09143" lon="3.16301">
        <ele>1080</ele>
        <time>2024-05-11T12:07:42Z</time>
      </trkpt>
      <trkpt lat="45.09153" lon="3.1626">
        <ele>1079</ele>
        <time>2024-05-11T12:07:49Z</time>
      </trkpt>
      <trkpt lat="45.09161" lon="3.1624">
        <ele>1079</ele>
        <time>2024-05-11T12:07:53Z</time>
      </trkpt>
      <trkpt lat="45.09169" lon="3.16228">
        <ele>1079</ele>
        <time>2024-05-11T12:07:55Z</time>
      </trkpt>
      <trkpt lat="45.09183" lon="3.16215">
        <ele>1078</ele>
        <time>2024-05-11T12:07:59Z</time>
      </trkpt>
      <trkpt lat="45.09294" lon="3.16128">
        <ele>1072</ele>
        <time>2024-05-11T12:08:29Z</time>
      </trkpt>
      <trkpt lat="45.09324" lon="3.16092">
        <ele>1070</ele>
        <time>2024-05-11T12:08:38Z</time>
      </trkpt>
      <trkpt lat="45.09359" lon="3.16044">
        <ele>1070</ele>
        <time>2024-05-11T12:08:50Z</time>
      </trkpt>
      <trkpt lat="45.09372" lon="3.16022">
        <ele>1070</ele>
        <time>2024-05-11T12:08:54Z</time>
      </trkpt>
      <trkpt lat="45.09381" lon="3.15997">
        <ele>1070</ele>
        <time>2024-05-11T12:08:59Z</time>
      </trkpt>
      <trkpt lat="45.09382" lon="3.15969">
        <ele>1069</ele>
        <time>2024-05-11T12:09:04Z</time>
      </trkpt>
      <trkpt lat="45.09372" lon="3.15938">
        <ele>1068</ele>
        <time>2024-05-11T12:09:09Z</time>
      </trkpt>
      <trkpt lat="45.09355" lon="3.15904">
        <ele>1067</ele>
        <time>2024-05-11T12:09:16Z</time>
      </trkpt>
      <trkpt lat="45.09339" lon="3.1586">
        <ele>1068</ele>
        <time>2024-05-11T12:09:24Z</time>
      </trkpt>
      <trkpt lat="45.09327" lon="3.15812">
        <ele>1069</ele>
        <time>2024-05-11T12:09:33Z</time>
      </trkpt>
      <trkpt lat="45.09323" lon="3.1578">
        <ele>1070</ele>
        <time>2024-05-11T12:09:38Z</time>
      </trkpt>
      <trkpt lat="45.09324" lon="3.15725">
        <ele>1070</ele>
        <time>2024-05-11T12:09:47Z</time>
      </trkpt>
      <trkpt lat="45.09327" lon="3.15697">
        <ele>1069</ele>
        <time>2024-05-11T12:09:52Z</time>
      </trkpt>
      <trkpt lat="45.09335" lon="3.15662">
        <ele>1069</ele>
        <time>2024-05-11T12:09:58Z</time>
      </trkpt>
      <trkpt lat="45.09348" lon="3.1562">
        <ele>1066</ele>
        <time>2024-05-11T12:10:05Z</time>
      </trkpt>
      <trkpt lat="45.09359" lon="3.15598">
        <ele>1066</ele>
        <time>2024-05-11T12:10:10Z</time>
      </trkpt>
      <trkpt lat="45.09405" lon="3.15538">
        <ele>1065</ele>
        <time>2024-05-11T12:10:24Z</time>
      </trkpt>
      <trkpt lat="45.09434" lon="3.15508">
        <ele>1063</ele>
        <time>2024-05-11T12:10:33Z</time>
      </trkpt>
      <trkpt lat="45.09463" lon="3.15486">
        <ele>1060</ele>
        <time>2024-05-11T12:10:40Z</time>
      </trkpt>
      <trkpt lat="45.09484" lon="3.15474">
        <ele>1059</ele>
        <time>2024-05-11T12:10:46Z</time>
      </trkpt>
      <trkpt lat="45.09501" lon="3.1547">
        <ele>1059</ele>
        <time>2024-05-11T12:10:50Z</time>
      </trkpt>
      <trkpt lat="45.09494" lon="3.15468">
        <ele>1059</ele>
        <time>2024-05-11T12:10:51Z</time>
      </trkpt>
      <trkpt lat="45.0948" lon="3.15471">
        <ele>1059</ele>
        <time>2024-05-11T12:10:55Z</time>
      </trkpt>
      <trkpt lat="45.09462" lon="3.15442">
        <ele>1054</ele>
        <time>2024-05-11T12:11:01Z</time>
      </trkpt>
      <trkpt lat="45.09393" lon="3.15358">
        <ele>1046</ele>
        <time>2024-05-11T12:11:22Z</time>
      </trkpt>
      <trkpt lat="45.09326" lon="3.15222">
        <ele>1051</ele>
        <time>2024-05-11T12:11:50Z</time>
      </trkpt>
      <trkpt lat="45.09311" lon="3.15205">
        <ele>1053</ele>
        <time>2024-05-11T12:11:54Z</time>
      </trkpt>
      <trkpt lat="45.09271" lon="3.15181">
        <ele>1057</ele>
        <time>2024-05-11T12:12:04Z</time>
      </trkpt>
      <trkpt lat="45.09253" lon="3.15165">
        <ele>1059</ele>
        <time>2024-05-11T12:12:09Z</time>
      </trkpt>
      <trkpt lat="45.09236" lon="3.1514">
        <ele>1060</ele>
        <time>2024-05-11T12:12:15Z</time>
      </trkpt>
      <trkpt lat="45.09209" lon="3.1508">
        <ele>1061</ele>
        <time>2024-05-11T12:12:27Z</time>
      </trkpt>
      <trkpt lat="45.09199" lon="3.15067">
        <ele>1061</ele>
        <time>2024-05-11T12:12:30Z</time>
      </trkpt>
      <trkpt lat="45.09178" lon="3.1505">
        <ele>1062</ele>
        <time>2024-05-11T12:12:36Z</time>
      </trkpt>
      <trkpt lat="45.09132" lon="3.15026">
        <ele>1063</ele>
        <time>2024-05-11T12:12:47Z</time>
      </trkpt>
      <trkpt lat="45.09119" lon="3.15017">
        <ele>1064</ele>
        <time>2024-05-11T12:12:50Z</time>
      </trkpt>
      <trkpt lat="45.09106" lon="3.15005">
        <ele>1064</ele>
        <time>2024-05-11T12:12:54Z</time>
      </trkpt>
      <trkpt lat="45.09059" lon="3.1495">
        <ele>1069</ele>
        <time>2024-05-11T12:13:08Z</time>
      </trkpt>
      <trkpt lat="45.09039" lon="3.14933">
        <ele>1071</ele>
        <time>2024-05-11T12:13:14Z</time>
      </trkpt>
      <trkpt lat="45.09025" lon="3.14927">
        <ele>1072</ele>
        <time>2024-05-11T12:13:17Z</time>
      </trkpt>
      <trkpt lat="45.09005" lon="3.14925">
        <ele>1073</ele>
        <time>2024-05-11T12:13:22Z</time>
      </trkpt>
      <trkpt lat="45.08985" lon="3.14918">
        <ele>1074</ele>
        <time>2024-05-11T12:13:27Z</time>
      </trkpt>
      <trkpt lat="45.0897" lon="3.14907">
        <ele>1076</ele>
        <time>2024-05-11T12:13:31Z</time>
      </trkpt>
      <trkpt lat="45.08944" lon="3.14895">
        <ele>1077</ele>
        <time>2024-05-11T12:13:37Z</time>
      </trkpt>
      <trkpt lat="45.08927" lon="3.14883">
        <ele>1078</ele>
        <time>2024-05-11T12:13:41Z</time>
      </trkpt>
      <trkpt lat="45.08815" lon="3.14744">
        <ele>1075</ele>
        <time>2024-05-11T12:14:16Z</time>
      </trkpt>
      <trkpt lat="45.08792" lon="3.14717">
        <ele>1073</ele>
        <time>2024-05-11T12:14:23Z</time>
      </trkpt>
      <trkpt lat="45.08751" lon="3.14676">
        <ele>1069</ele>
        <time>2024-05-11T12:14:35Z</time>
      </trkpt>
      <trkpt lat="45.08741" lon="3.14658">
        <ele>1068</ele>
        <time>2024-05-11T12:14:39Z</time>
      </trkpt>
      <trkpt lat="45.08728" lon="3.14622">
        <ele>1065</ele>
        <time>2024-05-11T12:14:45Z</time>
      </trkpt>
      <trkpt lat="45.08721" lon="3.14578">
        <ele>1062</ele>
        <time>2024-05-11T12:14:53Z</time>
      </trkpt>
      <trkpt lat="45.08713" lon="3.1455">
        <ele>1061</ele>
        <time>2024-05-11T12:14:58Z</time>
      </trkpt>
      <trkpt lat="45.08646" lon="3.14401">
        <ele>1052</ele>
        <time>2024-05-11T12:15:27Z</time>
      </trkpt>
      <trkpt lat="45.08618" lon="3.14315">
        <ele>1046</ele>
        <time>2024-05-11T12:15:42Z</time>
      </trkpt>
      <trkpt lat="45.08609" lon="3.14299">
        <ele>1045</ele>
        <time>2024-05-11T12:15:46Z</time>
      </trkpt>
      <trkpt lat="45.08577" lon="3.14263">
        <ele>1039</ele>
        <time>2024-05-11T12:15:55Z</time>
      </trkpt>
      <trkpt lat="45.08568" lon="3.14248">
        <ele>1037</ele>
        <time>2024-05-11T12:15:59Z</time>
      </trkpt>
      <trkpt lat="45.08541" lon="3.1419">
        <ele>1031</ele>
        <time>2024-05-11T12:16:10Z</time>
      </trkpt>
      <trkpt lat="45.08516" lon="3.14149">
        <ele>1025</ele>
        <time>2024-05-11T12:16:19Z</time>
      </trkpt>
      <trkpt lat="45.08481" lon="3.14077">
        <ele>1017</ele>
        <time>2024-05-11T12:16:33Z</time>
      </trkpt>
      <trkpt lat="45.08463" lon="3.14047">
        <ele>1014</ele>
        <time>2024-05-11T12:16:40Z</time>
      </trkpt>
      <trkpt lat="45.08457" lon="3.14017">
        <ele>1012</ele>
        <time>2024-05-11T12:16:45Z</time>
      </trkpt>
      <trkpt lat="45.08459" lon="3.14006">
        <ele>1012</ele>
        <time>2024-05-11T12:16:47Z</time>
      </trkpt>
      <trkpt lat="45.08472" lon="3.13971">
        <ele>1011</ele>
        <time>2024-05-11T12:16:53Z</time>
      </trkpt>
      <trkpt lat="45.08471" lon="3.13946">
        <ele>1008</ele>
        <time>2024-05-11T12:16:58Z</time>
      </trkpt>
      <trkpt lat="45.08479" lon="3.13924">
        <ele>1007</ele>
        <time>2024-05-11T12:17:02Z</time>
      </trkpt>
      <trkpt lat="45.08494" lon="3.13904">
        <ele>1007</ele>
        <time>2024-05-11T12:17:06Z</time>
      </trkpt>
      <trkpt lat="45.08488" lon="3.13894">
        <ele>1005</ele>
        <time>2024-05-11T12:17:09Z</time>
      </trkpt>
      <trkpt lat="45.0847" lon="3.13895">
        <ele>1003</ele>
        <time>2024-05-11T12:17:13Z</time>
      </trkpt>
      <trkpt lat="45.08466" lon="3.13887">
        <ele>1001</ele>
        <time>2024-05-11T12:17:14Z</time>
      </trkpt>
      <trkpt lat="45.08467" lon="3.13882">
        <ele>1001</ele>
        <time>2024-05-11T12:17:15Z</time>
      </trkpt>
      <trkpt lat="45.08485" lon="3.13851">
        <ele>999</ele>
        <time>2024-05-11T12:17:22Z</time>
      </trkpt>
      <trkpt lat="45.08514" lon="3.13812">
        <ele>999</ele>
        <time>2024-05-11T12:17:31Z</time>
      </trkpt>
      <trkpt lat="45.0852" lon="3.13794">
        <ele>1000</ele>
        <time>2024-05-11T12:17:34Z</time>
      </trkpt>
      <trkpt lat="45.08518" lon="3.13777">
        <ele>999</ele>
        <time>2024-05-11T12:17:37Z</time>
      </trkpt>
      <trkpt lat="45.08513" lon="3.13765">
        <ele>999</ele>
        <time>2024-05-11T12:17:40Z</time>
      </trkpt>
      <trkpt lat="45.08485" lon="3.1372">
        <ele>1002</ele>
        <time>2024-05-11T12:17:50Z</time>
      </trkpt>
      <trkpt lat="45.0848" lon="3.13705">
        <ele>1004</ele>
        <time>2024-05-11T12:17:52Z</time>
      </trkpt>
      <trkpt lat="45.08481" lon="3.13691">
        <ele>1006</ele>
        <time>2024-05-11T12:17:55Z</time>
      </trkpt>
      <trkpt lat="45.08487" lon="3.1368">
        <ele>1007</ele>
        <time>2024-05-11T12:17:57Z</time>
      </trkpt>
      <trkpt lat="45.08508" lon="3.13662">
        <ele>1009</ele>
        <time>2024-05-11T12:18:03Z</time>
      </trkpt>
      <trkpt lat="45.08512" lon="3.13643">
        <ele>1010</ele>
        <time>2024-05-11T12:18:06Z</time>
      </trkpt>
      <trkpt lat="45.08519" lon="3.13631">
        <ele>1011</ele>
        <time>2024-05-11T12:18:08Z</time>
      </trkpt>
      <trkpt lat="45.08527" lon="3.13626">
        <ele>1012</ele>
        <time>2024-05-11T12:18:10Z</time>
      </trkpt>
      <trkpt lat="45.08553" lon="3.13617">
        <ele>1016</ele>
        <time>2024-05-11T12:18:17Z</time>
      </trkpt>
      <trkpt lat="45.08565" lon="3.13602">
        <ele>1019</ele>
        <time>2024-05-11T12:18:20Z</time>
      </trkpt>
      <trkpt lat="45.0858" lon="3.13547">
        <ele>1024</ele>
        <time>2024-05-11T12:18:30Z</time>
      </trkpt>
      <trkpt lat="45.0861" lon="3.13488">
        <ele>1027</ele>
        <time>2024-05-11T12:18:42Z</time>
      </trkpt>
      <trkpt lat="45.08622" lon="3.13443">
        <ele>1030</ele>
        <time>2024-05-11T12:18:50Z</time>
      </trkpt>
      <trkpt lat="45.08635" lon="3.13422">
        <ele>1032</ele>
        <time>2024-05-11T12:18:55Z</time>
      </trkpt>
      <trkpt lat="45.08655" lon="3.13403">
        <ele>1034</ele>
        <time>2024-05-11T12:19:00Z</time>
      </trkpt>
      <trkpt lat="45.08686" lon="3.13348">
        <ele>1037</ele>
        <time>2024-05-11T12:19:12Z</time>
      </trkpt>
      <trkpt lat="45.08698" lon="3.13321">
        <ele>1038</ele>
        <time>2024-05-11T12:19:17Z</time>
      </trkpt>
      <trkpt lat="45.08701" lon="3.13296">
        <ele>1037</ele>
        <time>2024-05-11T12:19:21Z</time>
      </trkpt>
      <trkpt lat="45.08698" lon="3.13292">
        <ele>1037</ele>
        <time>2024-05-11T12:19:22Z</time>
      </trkpt>
      <trkpt lat="45.08692" lon="3.1329">
        <ele>1036</ele>
        <time>2024-05-11T12:19:24Z</time>
      </trkpt>
      <trkpt lat="45.08648" lon="3.13284">
        <ele>1034</ele>
        <time>2024-05-11T12:19:34Z</time>
      </trkpt>
      <trkpt lat="45.08612" lon="3.13285">
        <ele>1034</ele>
        <time>2024-05-11T12:19:43Z</time>
      </trkpt>
      <trkpt lat="45.08591" lon="3.1329">
        <ele>1033</ele>
        <time>2024-05-11T12:19:47Z</time>
      </trkpt>
      <trkpt lat="45.08588" lon="3.13288">
        <ele>1033</ele>
        <time>2024-05-11T12:19:48Z</time>
      </trkpt>
      <trkpt lat="45.08586" lon="3.13281">
        <ele>1033</ele>
        <time>2024-05-11T12:19:50Z</time>
      </trkpt>
      <trkpt lat="45.0859" lon="3.13275">
        <ele>1033</ele>
        <time>2024-05-11T12:19:51Z</time>
      </trkpt>
      <trkpt lat="45.0861" lon="3.13259">
        <ele>1034</ele>
        <time>2024-05-11T12:19:56Z</time>
      </trkpt>
      <trkpt lat="45.08627" lon="3.1324">
        <ele>1033</ele>
        <time>2024-05-11T12:20:01Z</time>
      </trkpt>
      <trkpt lat="45.08656" lon="3.132">
        <ele>1033</ele>
        <time>2024-05-11T12:20:11Z</time>
      </trkpt>
      <trkpt lat="45.0866" lon="3.13186">
        <ele>1032</ele>
        <time>2024-05-11T12:20:13Z</time>
      </trkpt>
      <trkpt lat="45.08658" lon="3.13177">
        <ele>1032</ele>
        <time>2024-05-11T12:20:15Z</time>
      </trkpt>
      <trkpt lat="45.08653" lon="3.13169">
        <ele>1032</ele>
        <time>2024-05-11T12:20:17Z</time>
      </trkpt>
      <trkpt lat="45.08598" lon="3.13116">
        <ele>1032</ele>
        <time>2024-05-11T12:20:32Z</time>
      </trkpt>
      <trkpt lat="45.08539" lon="3.13036">
        <ele>1032</ele>
        <time>2024-05-11T12:20:51Z</time>
      </trkpt>
      <trkpt lat="45.08515" lon="3.13001">
        <ele>1032</ele>
        <time>2024-05-11T12:20:59Z</time>
      </trkpt>
      <trkpt lat="45.08508" lon="3.12986">
        <ele>1032</ele>
        <time>2024-05-11T12:21:02Z</time>
      </trkpt>
      <trkpt lat="45.0845" lon="3.12953">
        <ele>1030</ele>
        <time>2024-05-11T12:21:17Z</time>
      </trkpt>
      <trkpt lat="45.08426" lon="3.1292">
        <ele>1028</ele>
        <time>2024-05-11T12:21:25Z</time>
      </trkpt>
      <trkpt lat="45.08391" lon="3.12858">
        <ele>1022</ele>
        <time>2024-05-11T12:21:38Z</time>
      </trkpt>
      <trkpt lat="45.08354" lon="3.12811">
        <ele>1016</ele>
        <time>2024-05-11T12:21:49Z</time>
      </trkpt>
      <trkpt lat="45.0832" lon="3.12774">
        <ele>1012</ele>
        <time>2024-05-11T12:21:59Z</time>
      </trkpt>
      <trkpt lat="45.083" lon="3.1276">
        <ele>1009</ele>
        <time>2024-05-11T12:22:04Z</time>
      </trkpt>
      <trkpt lat="45.08257" lon="3.12743">
        <ele>1005</ele>
        <time>2024-05-11T12:22:15Z</time>
      </trkpt>
      <trkpt lat="45.0821" lon="3.12737">
        <ele>1001</ele>
        <time>2024-05-11T12:22:26Z</time>
      </trkpt>
      <trkpt lat="45.08185" lon="3.12717">
        <ele>999</ele>
        <time>2024-05-11T12:22:33Z</time>
      </trkpt>
      <trkpt lat="45.08173" lon="3.12711">
        <ele>998</ele>
        <time>2024-05-11T12:22:36Z</time>
      </trkpt>
      <trkpt lat="45.08125" lon="3.12701">
        <ele>990</ele>
        <time>2024-05-11T12:22:47Z</time>
      </trkpt>
      <trkpt lat="45.08119" lon="3.12697">
        <ele>989</ele>
        <time>2024-05-11T12:22:48Z</time>
      </trkpt>
      <trkpt lat="45.08104" lon="3.12701">
        <ele>986</ele>
        <time>2024-05-11T12:22:52Z</time>
      </trkpt>
      <trkpt lat="45.08087" lon="3.12696">
        <ele>983</ele>
        <time>2024-05-11T12:22:56Z</time>
      </trkpt>
      <trkpt lat="45.08083" lon="3.12687">
        <ele>982</ele>
        <time>2024-05-11T12:22:58Z</time>
      </trkpt>
      <trkpt lat="45.08082" lon="3.12672">
        <ele>981</ele>
        <time>2024-05-11T12:23:00Z</time>
      </trkpt>
      <trkpt lat="45.08092" lon="3.12641">
        <ele>982</ele>
        <time>2024-05-11T12:23:06Z</time>
      </trkpt>
      <trkpt lat="45.08075" lon="3.12617">
        <ele>979</ele>
        <time>2024-05-11T12:23:12Z</time>
      </trkpt>
      <trkpt lat="45.0807" lon="3.12606">
        <ele>978</ele>
        <time>2024-05-11T12:23:14Z</time>
      </trkpt>
      <trkpt lat="45.08069" lon="3.12597">
        <ele>978</ele>
        <time>2024-05-11T12:23:15Z</time>
      </trkpt>
      <trkpt lat="45.0807" lon="3.12592">
        <ele>978</ele>
        <time>2024-05-11T12:23:16Z</time>
      </trkpt>
      <trkpt lat="45.08074" lon="3.12588">
        <ele>978</ele>
        <time>2024-05-11T12:23:17Z</time>
      </trkpt>
      <trkpt lat="45.08081" lon="3.12592">
        <ele>980</ele>
        <time>2024-05-11T12:23:19Z</time>
      </trkpt>
      <trkpt lat="45.08082" lon="3.12624">
        <ele>980</ele>
        <time>2024-05-11T12:23:24Z</time>
      </trkpt>
      <trkpt lat="45.08091" lon="3.12633">
        <ele>982</ele>
        <time>2024-05-11T12:23:27Z</time>
      </trkpt>
      <trkpt lat="45.08092" lon="3.12638">
        <ele>982</ele>
        <time>2024-05-11T12:23:28Z</time>
      </trkpt>
      <trkpt lat="45.0809" lon="3.12662">
        <ele>982</ele>
        <time>2024-05-11T12:23:32Z</time>
      </trkpt>
      <trkpt lat="45.08096" lon="3.12671">
        <ele>984</ele>
        <time>2024-05-11T12:23:34Z</time>
      </trkpt>
      <trkpt lat="45.08111" lon="3.12685">
        <ele>987</ele>
        <time>2024-05-11T12:23:38Z</time>
      </trkpt>
      <trkpt lat="45.08115" lon="3.12681">
        <ele>988</ele>
        <time>2024-05-11T12:23:39Z</time>
      </trkpt>
      <trkpt lat="45.08111" lon="3.12671">
        <ele>987</ele>
        <time>2024-05-11T12:23:41Z</time>
      </trkpt>
      <trkpt lat="45.08112" lon="3.12647">
        <ele>986</ele>
        <time>2024-05-11T12:23:45Z</time>
      </trkpt>
      <trkpt lat="45.08121" lon="3.12624">
        <ele>987</ele>
        <time>2024-05-11T12:23:49Z</time>
      </trkpt>
      <trkpt lat="45.08136" lon="3.12598">
        <ele>988</ele>
        <time>2024-05-11T12:23:55Z</time>
      </trkpt>
      <trkpt lat="45.08144" lon="3.12589">
        <ele>988</ele>
        <time>2024-05-11T12:23:57Z</time>
      </trkpt>
      <trkpt lat="45.08158" lon="3.12578">
        <ele>989</ele>
        <time>2024-05-11T12:24:01Z</time>
      </trkpt>
      <trkpt lat="45.08172" lon="3.12572">
        <ele>989</ele>
        <time>2024-05-11T12:24:04Z</time>
      </trkpt>
      <trkpt lat="45.08185" lon="3.12578">
        <ele>991</ele>
        <time>2024-05-11T12:24:08Z</time>
      </trkpt>
      <trkpt lat="45.08223" lon="3.12586">
        <ele>995</ele>
        <time>2024-05-11T12:24:17Z</time>
      </trkpt>
      <trkpt lat="45.08258" lon="3.12605">
        <ele>999</ele>
        <time>2024-05-11T12:24:25Z</time>
      </trkpt>
      <trkpt lat="45.08268" lon="3.12606">
        <ele>999</ele>
        <time>2024-05-11T12:24:28Z</time>
      </trkpt>
      <trkpt lat="45.08283" lon="3.12615">
        <ele>1001</ele>
        <time>2024-05-11T12:24:31Z</time>
      </trkpt>
      <trkpt lat="45.08317" lon="3.12627">
        <ele>1003</ele>
        <time>2024-05-11T12:24:40Z</time>
      </trkpt>
      <trkpt lat="45.08304" lon="3.12623">
        <ele>1002</ele>
        <time>2024-05-11T12:24:43Z</time>
      </trkpt>
      <trkpt lat="45.08292" lon="3.12615">
        <ele>1001</ele>
        <time>2024-05-11T12:24:46Z</time>
      </trkpt>
      <trkpt lat="45.08285" lon="3.12615">
        <ele>1001</ele>
        <time>2024-05-11T12:24:47Z</time>
      </trkpt>
      <trkpt lat="45.08263" lon="3.12603">
        <ele>999</ele>
        <time>2024-05-11T12:24:53Z</time>
      </trkpt>
      <trkpt lat="45.08267" lon="3.12589">
        <ele>998</ele>
        <time>2024-05-11T12:24:55Z</time>
      </trkpt>
      <trkpt lat="45.08277" lon="3.1258">
        <ele>998</ele>
        <time>2024-05-11T12:24:58Z</time>
      </trkpt>
      <trkpt lat="45.08285" lon="3.12576">
        <ele>998</ele>
        <time>2024-05-11T12:25:00Z</time>
      </trkpt>
      <trkpt lat="45.08303" lon="3.12579">
        <ele>999</ele>
        <time>2024-05-11T12:25:04Z</time>
      </trkpt>
      <trkpt lat="45.08308" lon="3.12584">
        <ele>1000</ele>
        <time>2024-05-11T12:25:06Z</time>
      </trkpt>
      <trkpt lat="45.08315" lon="3.12586">
        <ele>1000</ele>
        <time>2024-05-11T12:25:08Z</time>
      </trkpt>
      <trkpt lat="45.08323" lon="3.12573">
        <ele>999</ele>
        <time>2024-05-11T12:25:10Z</time>
      </trkpt>
      <trkpt lat="45.08336" lon="3.12561">
        <ele>999</ele>
        <time>2024-05-11T12:25:14Z</time>
      </trkpt>
      <trkpt lat="45.08334" lon="3.12552">
        <ele>998</ele>
        <time>2024-05-11T12:25:16Z</time>
      </trkpt>
      <trkpt lat="45.08328" lon="3.12549">
        <ele>997</ele>
        <time>2024-05-11T12:25:17Z</time>
      </trkpt>
      <trkpt lat="45.08325" lon="3.12527">
        <ele>995</ele>
        <time>2024-05-11T12:25:21Z</time>
      </trkpt>
      <trkpt lat="45.08328" lon="3.12511">
        <ele>994</ele>
        <time>2024-05-11T12:25:23Z</time>
      </trkpt>
      <trkpt lat="45.08323" lon="3.1248">
        <ele>991</ele>
        <time>2024-05-11T12:25:29Z</time>
      </trkpt>
      <trkpt lat="45.08325" lon="3.12467">
        <ele>990</ele>
        <time>2024-05-11T12:25:31Z</time>
      </trkpt>
      <trkpt lat="45.0832" lon="3.12436">
        <ele>987</ele>
        <time>2024-05-11T12:25:36Z</time>
      </trkpt>
      <trkpt lat="45.0832" lon="3.12405">
        <ele>984</ele>
        <time>2024-05-11T12:25:41Z</time>
      </trkpt>
      <trkpt lat="45.08312" lon="3.12383">
        <ele>979</ele>
        <time>2024-05-11T12:25:45Z</time>
      </trkpt>
      <trkpt lat="45.08316" lon="3.12368">
        <ele>978</ele>
        <time>2024-05-11T12:25:48Z</time>
      </trkpt>
      <trkpt lat="45.08323" lon="3.12359">
        <ele>978</ele>
        <time>2024-05-11T12:25:50Z</time>
      </trkpt>
      <trkpt lat="45.08333" lon="3.12334">
        <ele>977</ele>
        <time>2024-05-11T12:25:55Z</time>
      </trkpt>
      <trkpt lat="45.08371" lon="3.12261">
        <ele>965</ele>
        <time>2024-05-11T12:26:10Z</time>
      </trkpt>
      <trkpt lat="45.08401" lon="3.12231">
        <ele>964</ele>
        <time>2024-05-11T12:26:18Z</time>
      </trkpt>
      <trkpt lat="45.08429" lon="3.12215">
        <ele>965</ele>
        <time>2024-05-11T12:26:25Z</time>
      </trkpt>
      <trkpt lat="45.08451" lon="3.12209">
        <ele>967</ele>
        <time>2024-05-11T12:26:31Z</time>
      </trkpt>
      <trkpt lat="45.0848" lon="3.1222">
        <ele>970</ele>
        <time>2024-05-11T12:26:38Z</time>
      </trkpt>
      <trkpt lat="45.08489" lon="3.12221">
        <ele>971</ele>
        <time>2024-05-11T12:26:40Z</time>
      </trkpt>
      <trkpt lat="45.08496" lon="3.12215">
        <ele>971</ele>
        <time>2024-05-11T12:26:42Z</time>
      </trkpt>
      <trkpt lat="45.08474" lon="3.12192">
        <ele>969</ele>
        <time>2024-05-11T12:26:48Z</time>
      </trkpt>
      <trkpt lat="45.08455" lon="3.12152">
        <ele>968</ele>
        <time>2024-05-11T12:26:56Z</time>
      </trkpt>
      <trkpt lat="45.08442" lon="3.12135">
        <ele>969</ele>
        <time>2024-05-11T12:27:00Z</time>
      </trkpt>
      <trkpt lat="45.08429" lon="3.12127">
        <ele>969</ele>
        <time>2024-05-11T12:27:04Z</time>
      </trkpt>
      <trkpt lat="45.08411" lon="3.12123">
        <ele>967</ele>
        <time>2024-05-11T12:27:08Z</time>
      </trkpt>
      <trkpt lat="45.08336" lon="3.12088">
        <ele>963</ele>
        <time>2024-05-11T12:27:26Z</time>
      </trkpt>
      <trkpt lat="45.08328" lon="3.12087">
        <ele>962</ele>
        <time>2024-05-11T12:27:28Z</time>
      </trkpt>
      <trkpt lat="45.08312" lon="3.1209">
        <ele>959</ele>
        <time>2024-05-11T12:27:32Z</time>
      </trkpt>
      <trkpt lat="45.08307" lon="3.12089">
        <ele>959</ele>
        <time>2024-05-11T12:27:33Z</time>
      </trkpt>
      <trkpt lat="45.08303" lon="3.12084">
        <ele>959</ele>
        <time>2024-05-11T12:27:34Z</time>
      </trkpt>
      <trkpt lat="45.08296" lon="3.12062">
        <ele>958</ele>
        <time>2024-05-11T12:27:38Z</time>
      </trkpt>
      <trkpt lat="45.08296" lon="3.12055">
        <ele>959</ele>
        <time>2024-05-11T12:27:39Z</time>
      </trkpt>
      <trkpt lat="45.083" lon="3.12042">
        <ele>960</ele>
        <time>2024-05-11T12:27:42Z</time>
      </trkpt>
      <trkpt lat="45.08302" lon="3.12012">
        <ele>961</ele>
        <time>2024-05-11T12:27:47Z</time>
      </trkpt>
      <trkpt lat="45.0831" lon="3.11959">
        <ele>961</ele>
        <time>2024-05-11T12:27:56Z</time>
      </trkpt>
      <trkpt lat="45.08311" lon="3.11921">
        <ele>960</ele>
        <time>2024-05-11T12:28:02Z</time>
      </trkpt>
      <trkpt lat="45.08308" lon="3.11887">
        <ele>959</ele>
        <time>2024-05-11T12:28:08Z</time>
      </trkpt>
      <trkpt lat="45.08302" lon="3.11874">
        <ele>958</ele>
        <time>2024-05-11T12:28:10Z</time>
      </trkpt>
      <trkpt lat="45.08293" lon="3.11862">
        <ele>958</ele>
        <time>2024-05-11T12:28:13Z</time>
      </trkpt>
      <trkpt lat="45.08281" lon="3.11854">
        <ele>957</ele>
        <time>2024-05-11T12:28:16Z</time>
      </trkpt>
      <trkpt lat="45.08275" lon="3.11853">
        <ele>956</ele>
        <time>2024-05-11T12:28:18Z</time>
      </trkpt>
      <trkpt lat="45.08217" lon="3.11869">
        <ele>952</ele>
        <time>2024-05-11T12:28:31Z</time>
      </trkpt>
      <trkpt lat="45.08201" lon="3.11871">
        <ele>951</ele>
        <time>2024-05-11T12:28:35Z</time>
      </trkpt>
      <trkpt lat="45.08142" lon="3.11862">
        <ele>948</ele>
        <time>2024-05-11T12:28:49Z</time>
      </trkpt>
      <trkpt lat="45.0811" lon="3.11867">
        <ele>946</ele>
        <time>2024-05-11T12:28:56Z</time>
      </trkpt>
      <trkpt lat="45.081" lon="3.11861">
        <ele>946</ele>
        <time>2024-05-11T12:28:59Z</time>
      </trkpt>
      <trkpt lat="45.08097" lon="3.11854">
        <ele>946</ele>
        <time>2024-05-11T12:29:00Z</time>
      </trkpt>
      <trkpt lat="45.08096" lon="3.11841">
        <ele>947</ele>
        <time>2024-05-11T12:29:03Z</time>
      </trkpt>
      <trkpt lat="45.08098" lon="3.11803">
        <ele>948</ele>
        <time>2024-05-11T12:29:09Z</time>
      </trkpt>
      <trkpt lat="45.08103" lon="3.11783">
        <ele>949</ele>
        <time>2024-05-11T12:29:12Z</time>
      </trkpt>
      <trkpt lat="45.08107" lon="3.11745">
        <ele>950</ele>
        <time>2024-05-11T12:29:19Z</time>
      </trkpt>
      <trkpt lat="45.08104" lon="3.1173">
        <ele>949</ele>
        <time>2024-05-11T12:29:21Z</time>
      </trkpt>
      <trkpt lat="45.08089" lon="3.11714">
        <ele>947</ele>
        <time>2024-05-11T12:29:26Z</time>
      </trkpt>
      <trkpt lat="45.08054" lon="3.11687">
        <ele>945</ele>
        <time>2024-05-11T12:29:35Z</time>
      </trkpt>
      <trkpt lat="45.08033" lon="3.11666">
        <ele>944</ele>
        <time>2024-05-11T12:29:41Z</time>
      </trkpt>
      <trkpt lat="45.08027" lon="3.11657">
        <ele>944</ele>
        <time>2024-05-11T12:29:43Z</time>
      </trkpt>
      <trkpt lat="45.08005" lon="3.11607">
        <ele>948</ele>
        <time>2024-05-11T12:29:53Z</time>
      </trkpt>
      <trkpt lat="45.07993" lon="3.11588">
        <ele>949</ele>
        <time>2024-05-11T12:29:57Z</time>
      </trkpt>
      <trkpt lat="45.07937" lon="3.11538">
        <ele>952</ele>
        <time>2024-05-11T12:30:12Z</time>
      </trkpt>
      <trkpt lat="45.07899" lon="3.1149">
        <ele>955</ele>
        <time>2024-05-11T12:30:24Z</time>
      </trkpt>
      <trkpt lat="45.07885" lon="3.11468">
        <ele>957</ele>
        <time>2024-05-11T12:30:29Z</time>
      </trkpt>
      <trkpt lat="45.07864" lon="3.11421">
        <ele>961</ele>
        <time>2024-05-11T12:30:38Z</time>
      </trkpt>
      <trkpt lat="45.07796" lon="3.11331">
        <ele>959</ele>
        <time>2024-05-11T12:31:00Z</time>
      </trkpt>
      <trkpt lat="45.07785" lon="3.11312">
        <ele>958</ele>
        <time>2024-05-11T12:31:04Z</time>
      </trkpt>
      <trkpt lat="45.07769" lon="3.11251">
        <ele>956</ele>
        <time>2024-05-11T12:31:15Z</time>
      </trkpt>
      <trkpt lat="45.07765" lon="3.11215">
        <ele>955</ele>
        <time>2024-05-11T12:31:21Z</time>
      </trkpt>
      <trkpt lat="45.07767" lon="3.11199">
        <ele>955</ele>
        <time>2024-05-11T12:31:23Z</time>
      </trkpt>
      <trkpt lat="45.0777" lon="3.11193">
        <ele>955</ele>
        <time>2024-05-11T12:31:25Z</time>
      </trkpt>
      <trkpt lat="45.07806" lon="3.11169">
        <ele>962</ele>
        <time>2024-05-11T12:31:34Z</time>
      </trkpt>
      <trkpt lat="45.07806" lon="3.11163">
        <ele>962</ele>
        <time>2024-05-11T12:31:35Z</time>
      </trkpt>
      <trkpt lat="45.07799" lon="3.11155">
        <ele>960</ele>
        <time>2024-05-11T12:31:37Z</time>
      </trkpt>
      <trkpt lat="45.07794" lon="3.11153">
        <ele>959</ele>
        <time>2024-05-11T12:31:38Z</time>
      </trkpt>
      <trkpt lat="45.0778" lon="3.11167">
        <ele>957</ele>
        <time>2024-05-11T12:31:42Z</time>
      </trkpt>
      <trkpt lat="45.07775" lon="3.11182">
        <ele>956</ele>
        <time>2024-05-11T12:31:45Z</time>
      </trkpt>
      <trkpt lat="45.07766" lon="3.11196">
        <ele>954</ele>
        <time>2024-05-11T12:31:48Z</time>
      </trkpt>
      <trkpt lat="45.07764" lon="3.11205">
        <ele>954</ele>
        <time>2024-05-11T12:31:50Z</time>
      </trkpt>
      <trkpt lat="45.07766" lon="3.11245">
        <ele>955</ele>
        <time>2024-05-11T12:31:56Z</time>
      </trkpt>
      <trkpt lat="45.07762" lon="3.11255">
        <ele>955</ele>
        <time>2024-05-11T12:31:58Z</time>
      </trkpt>
      <trkpt lat="45.0776" lon="3.11272">
        <ele>954</ele>
        <time>2024-05-11T12:32:01Z</time>
      </trkpt>
      <trkpt lat="45.0775" lon="3.1123">
        <ele>953</ele>
        <time>2024-05-11T12:32:08Z</time>
      </trkpt>
      <trkpt lat="45.07747" lon="3.11168">
        <ele>951</ele>
        <time>2024-05-11T12:32:19Z</time>
      </trkpt>
      <trkpt lat="45.07753" lon="3.11075">
        <ele>947</ele>
        <time>2024-05-11T12:32:34Z</time>
      </trkpt>
      <trkpt lat="45.07767" lon="3.11006">
        <ele>946</ele>
        <time>2024-05-11T12:32:46Z</time>
      </trkpt>
      <trkpt lat="45.07769" lon="3.10978">
        <ele>945</ele>
        <time>2024-05-11T12:32:50Z</time>
      </trkpt>
      <trkpt lat="45.07768" lon="3.10965">
        <ele>944</ele>
        <time>2024-05-11T12:32:53Z</time>
      </trkpt>
      <trkpt lat="45.07761" lon="3.10941">
        <ele>943</ele>
        <time>2024-05-11T12:32:57Z</time>
      </trkpt>
      <trkpt lat="45.07743" lon="3.10901">
        <ele>944</ele>
        <time>2024-05-11T12:33:05Z</time>
      </trkpt>
      <trkpt lat="45.07738" lon="3.10883">
        <ele>945</ele>
        <time>2024-05-11T12:33:08Z</time>
      </trkpt>
      <trkpt lat="45.07751" lon="3.10798">
        <ele>949</ele>
        <time>2024-05-11T12:33:22Z</time>
      </trkpt>
      <trkpt lat="45.0775" lon="3.10747">
        <ele>952</ele>
        <time>2024-05-11T12:33:31Z</time>
      </trkpt>
      <trkpt lat="45.07729" lon="3.10715">
        <ele>948</ele>
        <time>2024-05-11T12:33:38Z</time>
      </trkpt>
      <trkpt lat="45.07714" lon="3.10698">
        <ele>946</ele>
        <time>2024-05-11T12:33:42Z</time>
      </trkpt>
      <trkpt lat="45.0768" lon="3.1067">
        <ele>941</ele>
        <time>2024-05-11T12:33:52Z</time>
      </trkpt>
      <trkpt lat="45.07689" lon="3.10619">
        <ele>935</ele>
        <time>2024-05-11T12:34:00Z</time>
      </trkpt>
      <trkpt lat="45.07698" lon="3.10598">
        <ele>933</ele>
        <time>2024-05-11T12:34:04Z</time>
      </trkpt>
      <trkpt lat="45.07708" lon="3.10587">
        <ele>932</ele>
        <time>2024-05-11T12:34:07Z</time>
      </trkpt>
      <trkpt lat="45.07708" lon="3.1058">
        <ele>932</ele>
        <time>2024-05-11T12:34:08Z</time>
      </trkpt>
      <trkpt lat="45.07698" lon="3.10563">
        <ele>928</ele>
        <time>2024-05-11T12:34:12Z</time>
      </trkpt>
      <trkpt lat="45.07676" lon="3.10555">
        <ele>925</ele>
        <time>2024-05-11T12:34:17Z</time>
      </trkpt>
      <trkpt lat="45.07665" lon="3.10541">
        <ele>922</ele>
        <time>2024-05-11T12:34:21Z</time>
      </trkpt>
      <trkpt lat="45.07646" lon="3.10445">
        <ele>911</ele>
        <time>2024-05-11T12:34:37Z</time>
      </trkpt>
      <trkpt lat="45.07636" lon="3.10352">
        <ele>904</ele>
        <time>2024-05-11T12:34:53Z</time>
      </trkpt>
      <trkpt lat="45.07621" lon="3.10326">
        <ele>901</ele>
        <time>2024-05-11T12:34:58Z</time>
      </trkpt>
      <trkpt lat="45.07596" lon="3.10294">
        <ele>899</ele>
        <time>2024-05-11T12:35:06Z</time>
      </trkpt>
      <trkpt lat="45.07596" lon="3.10287">
        <ele>899</ele>
        <time>2024-05-11T12:35:07Z</time>
      </trkpt>
      <trkpt lat="45.07604" lon="3.10273">
        <ele>898</ele>
        <time>2024-05-11T12:35:10Z</time>
      </trkpt>
      <trkpt lat="45.07609" lon="3.10253">
        <ele>898</ele>
        <time>2024-05-11T12:35:14Z</time>
      </trkpt>
      <trkpt lat="45.07619" lon="3.10174">
        <ele>898</ele>
        <time>2024-05-11T12:35:27Z</time>
      </trkpt>
      <trkpt lat="45.07641" lon="3.10082">
        <ele>894</ele>
        <time>2024-05-11T12:35:43Z</time>
      </trkpt>
      <trkpt lat="45.07735" lon="3.09766">
        <ele>875</ele>
        <time>2024-05-11T12:36:40Z</time>
      </trkpt>
      <trkpt lat="45.07743" lon="3.09748">
        <ele>873</ele>
        <time>2024-05-11T12:36:43Z</time>
      </trkpt>
      <trkpt lat="45.07765" lon="3.0973">
        <ele>870</ele>
        <time>2024-05-11T12:36:49Z</time>
      </trkpt>
      <trkpt lat="45.07769" lon="3.09722">
        <ele>870</ele>
        <time>2024-05-11T12:36:51Z</time>
      </trkpt>
      <trkpt lat="45.07788" lon="3.09654">
        <ele>868</ele>
        <time>2024-05-11T12:37:03Z</time>
      </trkpt>
      <trkpt lat="45.07801" lon="3.09625">
        <ele>869</ele>
        <time>2024-05-11T12:37:08Z</time>
      </trkpt>
      <trkpt lat="45.07804" lon="3.09605">
        <ele>869</ele>
        <time>2024-05-11T12:37:12Z</time>
      </trkpt>
      <trkpt lat="45.07802" lon="3.09574">
        <ele>870</ele>
        <time>2024-05-11T12:37:17Z</time>
      </trkpt>
      <trkpt lat="45.07808" lon="3.09552">
        <ele>872</ele>
        <time>2024-05-11T12:37:21Z</time>
      </trkpt>
      <trkpt lat="45.07888" lon="3.09468">
        <ele>893</ele>
        <time>2024-05-11T12:37:44Z</time>
      </trkpt>
      <trkpt lat="45.0793" lon="3.09411">
        <ele>904</ele>
        <time>2024-05-11T12:37:58Z</time>
      </trkpt>
      <trkpt lat="45.07969" lon="3.09325">
        <ele>913</ele>
        <time>2024-05-11T12:38:14Z</time>
      </trkpt>
      <trkpt lat="45.07976" lon="3.09304">
        <ele>913</ele>
        <time>2024-05-11T12:38:18Z</time>
      </trkpt>
      <trkpt lat="45.07988" lon="3.09242">
        <ele>915</ele>
        <time>2024-05-11T12:38:29Z</time>
      </trkpt>
      <trkpt lat="45.07998" lon="3.09214">
        <ele>916</ele>
        <time>2024-05-11T12:38:34Z</time>
      </trkpt>
      <trkpt lat="45.08016" lon="3.09198">
        <ele>917</ele>
        <time>2024-05-11T12:38:39Z</time>
      </trkpt>
      <trkpt lat="45.08034" lon="3.09191">
        <ele>918</ele>
        <time>2024-05-11T12:38:43Z</time>
      </trkpt>
      <trkpt lat="45.08045" lon="3.09184">
        <ele>918</ele>
        <time>2024-05-11T12:38:46Z</time>
      </trkpt>
      <trkpt lat="45.08076" lon="3.09176">
        <ele>919</ele>
        <time>2024-05-11T12:38:54Z</time>
      </trkpt>
      <trkpt lat="45.08086" lon="3.09178">
        <ele>919</ele>
        <time>2024-05-11T12:38:56Z</time>
      </trkpt>
      <trkpt lat="45.081" lon="3.09175">
        <ele>919</ele>
        <time>2024-05-11T12:38:59Z</time>
      </trkpt>
      <trkpt lat="45.08111" lon="3.09167">
        <ele>920</ele>
        <time>2024-05-11T12:39:02Z</time>
      </trkpt>
      <trkpt lat="45.08118" lon="3.09158">
        <ele>920</ele>
        <time>2024-05-11T12:39:04Z</time>
      </trkpt>
      <trkpt lat="45.08185" lon="3.09018">
        <ele>915</ele>
        <time>2024-05-11T12:39:32Z</time>
      </trkpt>
      <trkpt lat="45.08215" lon="3.08908">
        <ele>913</ele>
        <time>2024-05-11T12:39:52Z</time>
      </trkpt>
      <trkpt lat="45.08226" lon="3.08878">
        <ele>913</ele>
        <time>2024-05-11T12:39:57Z</time>
      </trkpt>
      <trkpt lat="45.0824" lon="3.08857">
        <ele>912</ele>
        <time>2024-05-11T12:40:02Z</time>
      </trkpt>
      <trkpt lat="45.08268" lon="3.08829">
        <ele>912</ele>
        <time>2024-05-11T12:40:10Z</time>
      </trkpt>
      <trkpt lat="45.08292" lon="3.0882">
        <ele>912</ele>
        <time>2024-05-11T12:40:16Z</time>
      </trkpt>
      <trkpt lat="45.08321" lon="3.08816">
        <ele>913</ele>
        <time>2024-05-11T12:40:23Z</time>
      </trkpt>
      <trkpt lat="45.08362" lon="3.08806">
        <ele>914</ele>
        <time>2024-05-11T12:40:32Z</time>
      </trkpt>
      <trkpt lat="45.08376" lon="3.08798">
        <ele>915</ele>
        <time>2024-05-11T12:40:36Z</time>
      </trkpt>
      <trkpt lat="45.08387" lon="3.08773">
        <ele>915</ele>
        <time>2024-05-11T12:40:41Z</time>
      </trkpt>
      <trkpt lat="45.08408" lon="3.08672">
        <ele>916</ele>
        <time>2024-05-11T12:40:58Z</time>
      </trkpt>
      <trkpt lat="45.08417" lon="3.0865">
        <ele>916</ele>
        <time>2024-05-11T12:41:02Z</time>
      </trkpt>
      <trkpt lat="45.08423" lon="3.08642">
        <ele>917</ele>
        <time>2024-05-11T12:41:04Z</time>
      </trkpt>
      <trkpt lat="45.08448" lon="3.08621">
        <ele>917</ele>
        <time>2024-05-11T12:41:11Z</time>
      </trkpt>
      <trkpt lat="45.08464" lon="3.08602">
        <ele>918</ele>
        <time>2024-05-11T12:41:16Z</time>
      </trkpt>
      <trkpt lat="45.08488" lon="3.08563">
        <ele>920</ele>
        <time>2024-05-11T12:41:24Z</time>
      </trkpt>
      <trkpt lat="45.08517" lon="3.08508">
        <ele>923</ele>
        <time>2024-05-11T12:41:36Z</time>
      </trkpt>
      <trkpt lat="45.0855" lon="3.08456">
        <ele>926</ele>
        <time>2024-05-11T12:41:47Z</time>
      </trkpt>
      <trkpt lat="45.08562" lon="3.08441">
        <ele>927</ele>
        <time>2024-05-11T12:41:51Z</time>
      </trkpt>
      <trkpt lat="45.08594" lon="3.08417">
        <ele>928</ele>
        <time>2024-05-11T12:41:59Z</time>
      </trkpt>
      <trkpt lat="45.08598" lon="3.08411">
        <ele>929</ele>
        <time>2024-05-11T12:42:01Z</time>
      </trkpt>
      <trkpt lat="45.08598" lon="3.08402">
        <ele>930</ele>
        <time>2024-05-11T12:42:02Z</time>
      </trkpt>
      <trkpt lat="45.08593" lon="3.08396">
        <ele>930</ele>
        <time>2024-05-11T12:42:04Z</time>
      </trkpt>
      <trkpt lat="45.08567" lon="3.08384">
        <ele>929</ele>
        <time>2024-05-11T12:42:10Z</time>
      </trkpt>
      <trkpt lat="45.08522" lon="3.0837">
        <ele>929</ele>
        <time>2024-05-11T12:42:21Z</time>
      </trkpt>
      <trkpt lat="45.08504" lon="3.08356">
        <ele>929</ele>
        <time>2024-05-11T12:42:26Z</time>
      </trkpt>
      <trkpt lat="45.08467" lon="3.08307">
        <ele>929</ele>
        <time>2024-05-11T12:42:38Z</time>
      </trkpt>
      <trkpt lat="45.08446" lon="3.08274">
        <ele>929</ele>
        <time>2024-05-11T12:42:45Z</time>
      </trkpt>
      <trkpt lat="45.08433" lon="3.08238">
        <ele>930</ele>
        <time>2024-05-11T12:42:52Z</time>
      </trkpt>
      <trkpt lat="45.08424" lon="3.08199">
        <ele>931</ele>
        <time>2024-05-11T12:42:58Z</time>
      </trkpt>
      <trkpt lat="45.08419" lon="3.08155">
        <ele>932</ele>
        <time>2024-05-11T12:43:06Z</time>
      </trkpt>
      <trkpt lat="45.084" lon="3.08075">
        <ele>932</ele>
        <time>2024-05-11T12:43:20Z</time>
      </trkpt>
      <trkpt lat="45.08405" lon="3.07988">
        <ele>935</ele>
        <time>2024-05-11T12:43:34Z</time>
      </trkpt>
      <trkpt lat="45.08412" lon="3.07935">
        <ele>936</ele>
        <time>2024-05-11T12:43:43Z</time>
      </trkpt>
      <trkpt lat="45.08411" lon="3.07874">
        <ele>934</ele>
        <time>2024-05-11T12:43:53Z</time>
      </trkpt>
      <trkpt lat="45.08416" lon="3.0784">
        <ele>934</ele>
        <time>2024-05-11T12:43:59Z</time>
      </trkpt>
      <trkpt lat="45.08426" lon="3.07804">
        <ele>935</ele>
        <time>2024-05-11T12:44:05Z</time>
      </trkpt>
      <trkpt lat="45.08429" lon="3.07784">
        <ele>935</ele>
        <time>2024-05-11T12:44:08Z</time>
      </trkpt>
      <trkpt lat="45.08415" lon="3.0769">
        <ele>935</ele>
        <time>2024-05-11T12:44:24Z</time>
      </trkpt>
      <trkpt lat="45.08411" lon="3.07675">
        <ele>935</ele>
        <time>2024-05-11T12:44:27Z</time>
      </trkpt>
      <trkpt lat="45.084" lon="3.07655">
        <ele>936</ele>
        <time>2024-05-11T12:44:31Z</time>
      </trkpt>
      <trkpt lat="45.08383" lon="3.0763">
        <ele>938</ele>
        <time>2024-05-11T12:44:37Z</time>
      </trkpt>
      <trkpt lat="45.08374" lon="3.07621">
        <ele>938</ele>
        <time>2024-05-11T12:44:39Z</time>
      </trkpt>
      <trkpt lat="45.0836" lon="3.07619">
        <ele>938</ele>
        <time>2024-05-11T12:44:43Z</time>
      </trkpt>
      <trkpt lat="45.08321" lon="3.07627">
        <ele>936</ele>
        <time>2024-05-11T12:44:52Z</time>
      </trkpt>
      <trkpt lat="45.08318" lon="3.07621">
        <ele>936</ele>
        <time>2024-05-11T12:44:53Z</time>
      </trkpt>
      <trkpt lat="45.08319" lon="3.07618">
        <ele>937</ele>
        <time>2024-05-11T12:44:54Z</time>
      </trkpt>
      <trkpt lat="45.08356" lon="3.07591">
        <ele>942</ele>
        <time>2024-05-11T12:45:03Z</time>
      </trkpt>
      <trkpt lat="45.08374" lon="3.07569">
        <ele>944</ele>
        <time>2024-05-11T12:45:09Z</time>
      </trkpt>
      <trkpt lat="45.08377" lon="3.07568">
        <ele>944</ele>
        <time>2024-05-11T12:45:10Z</time>
      </trkpt>
      <trkpt lat="45.08372" lon="3.07574">
        <ele>944</ele>
        <time>2024-05-11T12:45:11Z</time>
      </trkpt>
      <trkpt lat="45.08266" lon="3.07651">
        <ele>932</ele>
        <time>2024-05-11T12:45:39Z</time>
      </trkpt>
      <trkpt lat="45.0825" lon="3.07661">
        <ele>931</ele>
        <time>2024-05-11T12:45:43Z</time>
      </trkpt>
      <trkpt lat="45.08233" lon="3.07666">
        <ele>931</ele>
        <time>2024-05-11T12:45:47Z</time>
      </trkpt>
      <trkpt lat="45.08223" lon="3.07666">
        <ele>930</ele>
        <time>2024-05-11T12:45:49Z</time>
      </trkpt>
      <trkpt lat="45.08156" lon="3.07648">
        <ele>929</ele>
        <time>2024-05-11T12:46:05Z</time>
      </trkpt>
      <trkpt lat="45.0807" lon="3.07637">
        <ele>921</ele>
        <time>2024-05-11T12:46:26Z</time>
      </trkpt>
      <trkpt lat="45.08058" lon="3.07631">
        <ele>920</ele>
        <time>2024-05-11T12:46:29Z</time>
      </trkpt>
      <trkpt lat="45.08049" lon="3.07618">
        <ele>919</ele>
        <time>2024-05-11T12:46:32Z</time>
      </trkpt>
      <trkpt lat="45.0803" lon="3.07486">
        <ele>923</ele>
        <time>2024-05-11T12:46:54Z</time>
      </trkpt>
      <trkpt lat="45.08032" lon="3.07467">
        <ele>925</ele>
        <time>2024-05-11T12:46:57Z</time>
      </trkpt>
      <trkpt lat="45.08041" lon="3.07443">
        <ele>929</ele>
        <time>2024-05-11T12:47:01Z</time>
      </trkpt>
      <trkpt lat="45.08038" lon="3.07397">
        <ele>931</ele>
        <time>2024-05-11T12:47:09Z</time>
      </trkpt>
      <trkpt lat="45.08042" lon="3.07376">
        <ele>932</ele>
        <time>2024-05-11T12:47:13Z</time>
      </trkpt>
      <trkpt lat="45.08049" lon="3.07358">
        <ele>933</ele>
        <time>2024-05-11T12:47:16Z</time>
      </trkpt>
      <trkpt lat="45.08118" lon="3.07248">
        <ele>940</ele>
        <time>2024-05-11T12:47:40Z</time>
      </trkpt>
      <trkpt lat="45.0814" lon="3.07217">
        <ele>943</ele>
        <time>2024-05-11T12:47:47Z</time>
      </trkpt>
      <trkpt lat="45.08184" lon="3.07164">
        <ele>949</ele>
        <time>2024-05-11T12:48:01Z</time>
      </trkpt>
      <trkpt lat="45.08201" lon="3.07135">
        <ele>952</ele>
        <time>2024-05-11T12:48:07Z</time>
      </trkpt>
      <trkpt lat="45.082" lon="3.0712">
        <ele>952</ele>
        <time>2024-05-11T12:48:10Z</time>
      </trkpt>
      <trkpt lat="45.08193" lon="3.07095">
        <ele>952</ele>
        <time>2024-05-11T12:48:14Z</time>
      </trkpt>
      <trkpt lat="45.08152" lon="3.06979">
        <ele>956</ele>
        <time>2024-05-11T12:48:35Z</time>
      </trkpt>
      <trkpt lat="45.08139" lon="3.06933">
        <ele>959</ele>
        <time>2024-05-11T12:48:44Z</time>
      </trkpt>
      <trkpt lat="45.0812" lon="3.06846">
        <ele>966</ele>
        <time>2024-05-11T12:48:59Z</time>
      </trkpt>
      <trkpt lat="45.08105" lon="3.06802">
        <ele>967</ele>
        <time>2024-05-11T12:49:07Z</time>
      </trkpt>
      <trkpt lat="45.08106" lon="3.06798">
        <ele>967</ele>
        <time>2024-05-11T12:49:07Z</time>
      </trkpt>
      <trkpt lat="45.08113" lon="3.06799">
        <ele>967</ele>
        <time>2024-05-11T12:49:09Z</time>
      </trkpt>
      <trkpt lat="45.0812" lon="3.06796">
        <ele>968</ele>
        <time>2024-05-11T12:49:11Z</time>
      </trkpt>
      <trkpt lat="45.08124" lon="3.06798">
        <ele>968</ele>
        <time>2024-05-11T12:49:12Z</time>
      </trkpt>
      <trkpt lat="45.0812" lon="3.068">
        <ele>968</ele>
        <time>2024-05-11T12:49:13Z</time>
      </trkpt>
      <trkpt lat="45.08114" lon="3.06796">
        <ele>967</ele>
        <time>2024-05-11T12:49:14Z</time>
      </trkpt>
      <trkpt lat="45.08096" lon="3.06796">
        <ele>967</ele>
        <time>2024-05-11T12:49:19Z</time>
      </trkpt>
      <trkpt lat="45.08083" lon="3.0679">
        <ele>966</ele>
        <time>2024-05-11T12:49:22Z</time>
      </trkpt>
      <trkpt lat="45.08077" lon="3.06783">
        <ele>966</ele>
        <time>2024-05-11T12:49:24Z</time>
      </trkpt>
      <trkpt lat="45.08074" lon="3.06769">
        <ele>966</ele>
        <time>2024-05-11T12:49:26Z</time>
      </trkpt>
      <trkpt lat="45.08081" lon="3.06758">
        <ele>966</ele>
        <time>2024-05-11T12:49:28Z</time>
      </trkpt>
      <trkpt lat="45.08088" lon="3.06753">
        <ele>966</ele>
        <time>2024-05-11T12:49:30Z</time>
      </trkpt>
      <trkpt lat="45.08157" lon="3.06729">
        <ele>970</ele>
        <time>2024-05-11T12:49:47Z</time>
      </trkpt>
      <trkpt lat="45.08237" lon="3.06688">
        <ele>977</ele>
        <time>2024-05-11T12:50:07Z</time>
      </trkpt>
      <trkpt lat="45.08259" lon="3.06673">
        <ele>979</ele>
        <time>2024-05-11T12:50:12Z</time>
      </trkpt>
      <trkpt lat="45.08285" lon="3.06645">
        <ele>981</ele>
        <time>2024-05-11T12:50:20Z</time>
      </trkpt>
      <trkpt lat="45.08299" lon="3.06627">
        <ele>982</ele>
        <time>2024-05-11T12:50:24Z</time>
      </trkpt>
      <trkpt lat="45.08315" lon="3.06599">
        <ele>983</ele>
        <time>2024-05-11T12:50:30Z</time>
      </trkpt>
      <trkpt lat="45.08361" lon="3.0655">
        <ele>986</ele>
        <time>2024-05-11T12:50:44Z</time>
      </trkpt>
      <trkpt lat="45.08376" lon="3.06529">
        <ele>986</ele>
        <time>2024-05-11T12:50:49Z</time>
      </trkpt>
      <trkpt lat="45.08381" lon="3.06513">
        <ele>986</ele>
        <time>2024-05-11T12:50:52Z</time>
      </trkpt>
      <trkpt lat="45.08382" lon="3.06468">
        <ele>984</ele>
        <time>2024-05-11T12:50:59Z</time>
      </trkpt>
      <trkpt lat="45.08387" lon="3.06429">
        <ele>983</ele>
        <time>2024-05-11T12:51:06Z</time>
      </trkpt>
      <trkpt lat="45.08385" lon="3.06427">
        <ele>983</ele>
        <time>2024-05-11T12:51:06Z</time>
      </trkpt>
      <trkpt lat="45.08379" lon="3.06475">
        <ele>984</ele>
        <time>2024-05-11T12:51:14Z</time>
      </trkpt>
      <trkpt lat="45.08381" lon="3.065">
        <ele>985</ele>
        <time>2024-05-11T12:51:18Z</time>
      </trkpt>
      <trkpt lat="45.08379" lon="3.06518">
        <ele>986</ele>
        <time>2024-05-11T12:51:21Z</time>
      </trkpt>
      <trkpt lat="45.08352" lon="3.06559">
        <ele>985</ele>
        <time>2024-05-11T12:51:31Z</time>
      </trkpt>
      <trkpt lat="45.08354" lon="3.06565">
        <ele>986</ele>
        <time>2024-05-11T12:51:32Z</time>
      </trkpt>
      <trkpt lat="45.08365" lon="3.0657">
        <ele>987</ele>
        <time>2024-05-11T12:51:34Z</time>
      </trkpt>
      <trkpt lat="45.0838" lon="3.06564">
        <ele>988</ele>
        <time>2024-05-11T12:51:38Z</time>
      </trkpt>
      <trkpt lat="45.08432" lon="3.06516">
        <ele>990</ele>
        <time>2024-05-11T12:51:53Z</time>
      </trkpt>
      <trkpt lat="45.08439" lon="3.06506">
        <ele>990</ele>
        <time>2024-05-11T12:51:55Z</time>
      </trkpt>
      <trkpt lat="45.0846" lon="3.06454">
        <ele>989</ele>
        <time>2024-05-11T12:52:05Z</time>
      </trkpt>
      <trkpt lat="45.08471" lon="3.06435">
        <ele>990</ele>
        <time>2024-05-11T12:52:09Z</time>
      </trkpt>
      <trkpt lat="45.08515" lon="3.06387">
        <ele>992</ele>
        <time>2024-05-11T12:52:22Z</time>
      </trkpt>
      <trkpt lat="45.08549" lon="3.06357">
        <ele>993</ele>
        <time>2024-05-11T12:52:31Z</time>
      </trkpt>
      <trkpt lat="45.08565" lon="3.06347">
        <ele>994</ele>
        <time>2024-05-11T12:52:35Z</time>
      </trkpt>
      <trkpt lat="45.08612" lon="3.06331">
        <ele>995</ele>
        <time>2024-05-11T12:52:46Z</time>
      </trkpt>
      <trkpt lat="45.08629" lon="3.0633">
        <ele>996</ele>
        <time>2024-05-11T12:52:50Z</time>
      </trkpt>
      <trkpt lat="45.08672" lon="3.06338">
        <ele>998</ele>
        <time>2024-05-11T12:53:01Z</time>
      </trkpt>
      <trkpt lat="45.08681" lon="3.06335">
        <ele>998</ele>
        <time>2024-05-11T12:53:03Z</time>
      </trkpt>
      <trkpt lat="45.0869" lon="3.06291">
        <ele>998</ele>
        <time>2024-05-11T12:53:10Z</time>
      </trkpt>
      <trkpt lat="45.0871" lon="3.06219">
        <ele>1000</ele>
        <time>2024-05-11T12:53:23Z</time>
      </trkpt>
      <trkpt lat="45.08722" lon="3.06158">
        <ele>1001</ele>
        <time>2024-05-11T12:53:33Z</time>
      </trkpt>
      <trkpt lat="45.08718" lon="3.06085">
        <ele>1003</ele>
        <time>2024-05-11T12:53:46Z</time>
      </trkpt>
      <trkpt lat="45.0872" lon="3.06025">
        <ele>1005</ele>
        <time>2024-05-11T12:53:55Z</time>
      </trkpt>
      <trkpt lat="45.08717" lon="3.06009">
        <ele>1005</ele>
        <time>2024-05-11T12:53:58Z</time>
      </trkpt>
      <trkpt lat="45.087" lon="3.05973">
        <ele>1006</ele>
        <time>2024-05-11T12:54:05Z</time>
      </trkpt>
      <trkpt lat="45.08683" lon="3.05909">
        <ele>1008</ele>
        <time>2024-05-11T12:54:17Z</time>
      </trkpt>
      <trkpt lat="45.0867" lon="3.0587">
        <ele>1010</ele>
        <time>2024-05-11T12:54:24Z</time>
      </trkpt>
      <trkpt lat="45.08659" lon="3.05846">
        <ele>1011</ele>
        <time>2024-05-11T12:54:28Z</time>
      </trkpt>
      <trkpt lat="45.08659" lon="3.05836">
        <ele>1012</ele>
        <time>2024-05-11T12:54:30Z</time>
      </trkpt>
      <trkpt lat="45.08665" lon="3.0583">
        <ele>1012</ele>
        <time>2024-05-11T12:54:32Z</time>
      </trkpt>
      <trkpt lat="45.0869" lon="3.05821">
        <ele>1014</ele>
        <time>2024-05-11T12:54:38Z</time>
      </trkpt>
      <trkpt lat="45.08763" lon="3.05774">
        <ele>1021</ele>
        <time>2024-05-11T12:54:57Z</time>
      </trkpt>
      <trkpt lat="45.08809" lon="3.05761">
        <ele>1025</ele>
        <time>2024-05-11T12:55:07Z</time>
      </trkpt>
      <trkpt lat="45.08824" lon="3.05745">
        <ele>1028</ele>
        <time>2024-05-11T12:55:12Z</time>
      </trkpt>
      <trkpt lat="45.08849" lon="3.05681">
        <ele>1036</ele>
        <time>2024-05-11T12:55:24Z</time>
      </trkpt>
      <trkpt lat="45.08856" lon="3.05604">
        <ele>1044</ele>
        <time>2024-05-11T12:55:37Z</time>
      </trkpt>
      <trkpt lat="45.08876" lon="3.05546">
        <ele>1050</ele>
        <time>2024-05-11T12:55:47Z</time>
      </trkpt>
      <trkpt lat="45.08875" lon="3.05496">
        <ele>1052</ele>
        <time>2024-05-11T12:55:56Z</time>
      </trkpt>
      <trkpt lat="45.08883" lon="3.05416">
        <ele>1051</ele>
        <time>2024-05-11T12:56:09Z</time>
      </trkpt>
      <trkpt lat="45.0889" lon="3.054">
        <ele>1052</ele>
        <time>2024-05-11T12:56:12Z</time>
      </trkpt>
      <trkpt lat="45.08915" lon="3.05362">
        <ele>1056</ele>
        <time>2024-05-11T12:56:21Z</time>
      </trkpt>
      <trkpt lat="45.08925" lon="3.05337">
        <ele>1057</ele>
        <time>2024-05-11T12:56:25Z</time>
      </trkpt>
      <trkpt lat="45.08926" lon="3.05318">
        <ele>1057</ele>
        <time>2024-05-11T12:56:28Z</time>
      </trkpt>
      <trkpt lat="45.08919" lon="3.05305">
        <ele>1056</ele>
        <time>2024-05-11T12:56:31Z</time>
      </trkpt>
      <trkpt lat="45.08895" lon="3.05276">
        <ele>1052</ele>
        <time>2024-05-11T12:56:39Z</time>
      </trkpt>
      <trkpt lat="45.08882" lon="3.05265">
        <ele>1051</ele>
        <time>2024-05-11T12:56:42Z</time>
      </trkpt>
      <trkpt lat="45.08858" lon="3.05255">
        <ele>1048</ele>
        <time>2024-05-11T12:56:48Z</time>
      </trkpt>
      <trkpt lat="45.08804" lon="3.05249">
        <ele>1041</ele>
        <time>2024-05-11T12:57:01Z</time>
      </trkpt>
      <trkpt lat="45.08714" lon="3.05251">
        <ele>1029</ele>
        <time>2024-05-11T12:57:22Z</time>
      </trkpt>
      <trkpt lat="45.08691" lon="3.05257">
        <ele>1026</ele>
        <time>2024-05-11T12:57:27Z</time>
      </trkpt>
      <trkpt lat="45.08679" lon="3.05264">
        <ele>1025</ele>
        <time>2024-05-11T12:57:30Z</time>
      </trkpt>
      <trkpt lat="45.08633" lon="3.05304">
        <ele>1021</ele>
        <time>2024-05-11T12:57:43Z</time>
      </trkpt>
      <trkpt lat="45.08596" lon="3.05343">
        <ele>1018</ele>
        <time>2024-05-11T12:57:53Z</time>
      </trkpt>
      <trkpt lat="45.08563" lon="3.05372">
        <ele>1016</ele>
        <time>2024-05-11T12:58:03Z</time>
      </trkpt>
      <trkpt lat="45.08535" lon="3.05386">
        <ele>1014</ele>
        <time>2024-05-11T12:58:09Z</time>
      </trkpt>
      <trkpt lat="45.08499" lon="3.054">
        <ele>1012</ele>
        <time>2024-05-11T12:58:18Z</time>
      </trkpt>
      <trkpt lat="45.08464" lon="3.05409">
        <ele>1009</ele>
        <time>2024-05-11T12:58:26Z</time>
      </trkpt>
      <trkpt lat="45.08426" lon="3.05433">
        <ele>1007</ele>
        <time>2024-05-11T12:58:36Z</time>
      </trkpt>
      <trkpt lat="45.08392" lon="3.05443">
        <ele>1004</ele>
        <time>2024-05-11T12:58:44Z</time>
      </trkpt>
      <trkpt lat="45.08358" lon="3.05448">
        <ele>1001</ele>
        <time>2024-05-11T12:58:52Z</time>
      </trkpt>
      <trkpt lat="45.08346" lon="3.05448">
        <ele>1000</ele>
        <time>2024-05-11T12:58:55Z</time>
      </trkpt>
      <trkpt lat="45.08339" lon="3.05445">
        <ele>999</ele>
        <time>2024-05-11T12:58:57Z</time>
      </trkpt>
      <trkpt lat="45.08323" lon="3.0543">
        <ele>998</ele>
        <time>2024-05-11T12:59:01Z</time>
      </trkpt>
      <trkpt lat="45.08298" lon="3.05383">
        <ele>993</ele>
        <time>2024-05-11T12:59:11Z</time>
      </trkpt>
      <trkpt lat="45.08283" lon="3.05368">
        <ele>991</ele>
        <time>2024-05-11T12:59:15Z</time>
      </trkpt>
      <trkpt lat="45.08254" lon="3.05345">
        <ele>986</ele>
        <time>2024-05-11T12:59:23Z</time>
      </trkpt>
      <trkpt lat="45.08238" lon="3.05341">
        <ele>984</ele>
        <time>2024-05-11T12:59:27Z</time>
      </trkpt>
      <trkpt lat="45.08186" lon="3.05339">
        <ele>978</ele>
        <time>2024-05-11T12:59:39Z</time>
      </trkpt>
      <trkpt lat="45.08172" lon="3.05344">
        <ele>977</ele>
        <time>2024-05-11T12:59:42Z</time>
      </trkpt>
      <trkpt lat="45.08114" lon="3.05383">
        <ele>973</ele>
        <time>2024-05-11T12:59:57Z</time>
      </trkpt>
      <trkpt lat="45.08073" lon="3.05396">
        <ele>970</ele>
        <time>2024-05-11T13:00:07Z</time>
      </trkpt>
      <trkpt lat="45.07958" lon="3.05409">
        <ele>963</ele>
        <time>2024-05-11T13:00:34Z</time>
      </trkpt>
      <trkpt lat="45.07923" lon="3.05403">
        <ele>961</ele>
        <time>2024-05-11T13:00:42Z</time>
      </trkpt>
      <trkpt lat="45.07906" lon="3.05391">
        <ele>960</ele>
        <time>2024-05-11T13:00:47Z</time>
      </trkpt>
      <trkpt lat="45.07893" lon="3.05393">
        <ele>960</ele>
        <time>2024-05-11T13:00:50Z</time>
      </trkpt>
      <trkpt lat="45.07857" lon="3.0541">
        <ele>959</ele>
        <time>2024-05-11T13:00:59Z</time>
      </trkpt>
      <trkpt lat="45.07839" lon="3.05422">
        <ele>958</ele>
        <time>2024-05-11T13:01:03Z</time>
      </trkpt>
      <trkpt lat="45.07813" lon="3.05448">
        <ele>958</ele>
        <time>2024-05-11T13:01:11Z</time>
      </trkpt>
      <trkpt lat="45.07772" lon="3.05503">
        <ele>959</ele>
        <time>2024-05-11T13:01:24Z</time>
      </trkpt>
      <trkpt lat="45.07766" lon="3.05507">
        <ele>959</ele>
        <time>2024-05-11T13:01:26Z</time>
      </trkpt>
      <trkpt lat="45.07758" lon="3.05498">
        <ele>959</ele>
        <time>2024-05-11T13:01:28Z</time>
      </trkpt>
      <trkpt lat="45.07701" lon="3.05292">
        <ele>953</ele>
        <time>2024-05-11T13:02:04Z</time>
      </trkpt>
      <trkpt lat="45.07705" lon="3.05271">
        <ele>952</ele>
        <time>2024-05-11T13:02:08Z</time>
      </trkpt>
      <trkpt lat="45.07718" lon="3.05247">
        <ele>951</ele>
        <time>2024-05-11T13:02:13Z</time>
      </trkpt>
      <trkpt lat="45.07728" lon="3.05209">
        <ele>949</ele>
        <time>2024-05-11T13:02:20Z</time>
      </trkpt>
      <trkpt lat="45.07722" lon="3.05189">
        <ele>948</ele>
        <time>2024-05-11T13:02:23Z</time>
      </trkpt>
      <trkpt lat="45.07709" lon="3.05166">
        <ele>947</ele>
        <time>2024-05-11T13:02:28Z</time>
      </trkpt>
      <trkpt lat="45.07701" lon="3.05137">
        <ele>945</ele>
        <time>2024-05-11T13:02:33Z</time>
      </trkpt>
      <trkpt lat="45.07691" lon="3.05112">
        <ele>943</ele>
        <time>2024-05-11T13:02:38Z</time>
      </trkpt>
      <trkpt lat="45.07682" lon="3.05071">
        <ele>940</ele>
        <time>2024-05-11T13:02:45Z</time>
      </trkpt>
      <trkpt lat="45.07681" lon="3.05041">
        <ele>939</ele>
        <time>2024-05-11T13:02:50Z</time>
      </trkpt>
      <trkpt lat="45.07691" lon="3.04929">
        <ele>929</ele>
        <time>2024-05-11T13:03:09Z</time>
      </trkpt>
      <trkpt lat="45.07686" lon="3.04866">
        <ele>922</ele>
        <time>2024-05-11T13:03:19Z</time>
      </trkpt>
      <trkpt lat="45.07677" lon="3.04845">
        <ele>921</ele>
        <time>2024-05-11T13:03:23Z</time>
      </trkpt>
      <trkpt lat="45.07634" lon="3.04776">
        <ele>918</ele>
        <time>2024-05-11T13:03:38Z</time>
      </trkpt>
      <trkpt lat="45.07582" lon="3.04727">
        <ele>916</ele>
        <time>2024-05-11T13:03:53Z</time>
      </trkpt>
      <trkpt lat="45.07578" lon="3.04719">
        <ele>915</ele>
        <time>2024-05-11T13:03:54Z</time>
      </trkpt>
      <trkpt lat="45.07579" lon="3.0471">
        <ele>913</ele>
        <time>2024-05-11T13:03:56Z</time>
      </trkpt>
      <trkpt lat="45.07586" lon="3.04703">
        <ele>912</ele>
        <time>2024-05-11T13:03:58Z</time>
      </trkpt>
      <trkpt lat="45.07614" lon="3.047">
        <ele>909</ele>
        <time>2024-05-11T13:04:05Z</time>
      </trkpt>
      <trkpt lat="45.07617" lon="3.04687">
        <ele>907</ele>
        <time>2024-05-11T13:04:07Z</time>
      </trkpt>
      <trkpt lat="45.07615" lon="3.04669">
        <ele>905</ele>
        <time>2024-05-11T13:04:10Z</time>
      </trkpt>
      <trkpt lat="45.07606" lon="3.04647">
        <ele>902</ele>
        <time>2024-05-11T13:04:14Z</time>
      </trkpt>
      <trkpt lat="45.07594" lon="3.04636">
        <ele>902</ele>
        <time>2024-05-11T13:04:17Z</time>
      </trkpt>
      <trkpt lat="45.07578" lon="3.04627">
        <ele>901</ele>
        <time>2024-05-11T13:04:21Z</time>
      </trkpt>
      <trkpt lat="45.07574" lon="3.04618">
        <ele>900</ele>
        <time>2024-05-11T13:04:23Z</time>
      </trkpt>
      <trkpt lat="45.07576" lon="3.04612">
        <ele>899</ele>
        <time>2024-05-11T13:04:24Z</time>
      </trkpt>
      <trkpt lat="45.07584" lon="3.04601">
        <ele>898</ele>
        <time>2024-05-11T13:04:27Z</time>
      </trkpt>
      <trkpt lat="45.07648" lon="3.04544">
        <ele>885</ele>
        <time>2024-05-11T13:04:44Z</time>
      </trkpt>
      <trkpt lat="45.07682" lon="3.04528">
        <ele>881</ele>
        <time>2024-05-11T13:04:53Z</time>
      </trkpt>
      <trkpt lat="45.07687" lon="3.04516">
        <ele>879</ele>
        <time>2024-05-11T13:04:55Z</time>
      </trkpt>
      <trkpt lat="45.07689" lon="3.04491">
        <ele>876</ele>
        <time>2024-05-11T13:04:59Z</time>
      </trkpt>
      <trkpt lat="45.07684" lon="3.0447">
        <ele>874</ele>
        <time>2024-05-11T13:05:03Z</time>
      </trkpt>
      <trkpt lat="45.07679" lon="3.04463">
        <ele>874</ele>
        <time>2024-05-11T13:05:05Z</time>
      </trkpt>
      <trkpt lat="45.07664" lon="3.04453">
        <ele>873</ele>
        <time>2024-05-11T13:05:08Z</time>
      </trkpt>
      <trkpt lat="45.07603" lon="3.04439">
        <ele>873</ele>
        <time>2024-05-11T13:05:23Z</time>
      </trkpt>
      <trkpt lat="45.0757" lon="3.04428">
        <ele>872</ele>
        <time>2024-05-11T13:05:31Z</time>
      </trkpt>
      <trkpt lat="45.07515" lon="3.04405">
        <ele>871</ele>
        <time>2024-05-11T13:05:44Z</time>
      </trkpt>
      <trkpt lat="45.07423" lon="3.04361">
        <ele>871</ele>
        <time>2024-05-11T13:06:07Z</time>
      </trkpt>
      <trkpt lat="45.07417" lon="3.04356">
        <ele>871</ele>
        <time>2024-05-11T13:06:09Z</time>
      </trkpt>
      <trkpt lat="45.07407" lon="3.04341">
        <ele>869</ele>
        <time>2024-05-11T13:06:12Z</time>
      </trkpt>
      <trkpt lat="45.074" lon="3.04321">
        <ele>869</ele>
        <time>2024-05-11T13:06:16Z</time>
      </trkpt>
      <trkpt lat="45.07392" lon="3.04278">
        <ele>869</ele>
        <time>2024-05-11T13:06:23Z</time>
      </trkpt>
      <trkpt lat="45.07389" lon="3.0427">
        <ele>869</ele>
        <time>2024-05-11T13:06:24Z</time>
      </trkpt>
      <trkpt lat="45.0738" lon="3.04258">
        <ele>868</ele>
        <time>2024-05-11T13:06:27Z</time>
      </trkpt>
      <trkpt lat="45.07367" lon="3.04246">
        <ele>868</ele>
        <time>2024-05-11T13:06:31Z</time>
      </trkpt>
      <trkpt lat="45.07289" lon="3.04188">
        <ele>868</ele>
        <time>2024-05-11T13:06:51Z</time>
      </trkpt>
      <trkpt lat="45.07243" lon="3.04144">
        <ele>869</ele>
        <time>2024-05-11T13:07:04Z</time>
      </trkpt>
      <trkpt lat="45.07222" lon="3.0413">
        <ele>872</ele>
        <time>2024-05-11T13:07:10Z</time>
      </trkpt>
      <trkpt lat="45.07209" lon="3.04128">
        <ele>872</ele>
        <time>2024-05-11T13:07:13Z</time>
      </trkpt>
      <trkpt lat="45.07188" lon="3.04131">
        <ele>872</ele>
        <time>2024-05-11T13:07:18Z</time>
      </trkpt>
      <trkpt lat="45.07147" lon="3.04146">
        <ele>869</ele>
        <time>2024-05-11T13:07:28Z</time>
      </trkpt>
      <trkpt lat="45.0713" lon="3.04147">
        <ele>869</ele>
        <time>2024-05-11T13:07:32Z</time>
      </trkpt>
      <trkpt lat="45.07118" lon="3.04145">
        <ele>869</ele>
        <time>2024-05-11T13:07:35Z</time>
      </trkpt>
      <trkpt lat="45.0711" lon="3.04147">
        <ele>869</ele>
        <time>2024-05-11T13:07:36Z</time>
      </trkpt>
      <trkpt lat="45.07086" lon="3.04165">
        <ele>868</ele>
        <time>2024-05-11T13:07:43Z</time>
      </trkpt>
      <trkpt lat="45.0706" lon="3.04196">
        <ele>862</ele>
        <time>2024-05-11T13:07:51Z</time>
      </trkpt>
      <trkpt lat="45.07049" lon="3.04202">
        <ele>860</ele>
        <time>2024-05-11T13:07:53Z</time>
      </trkpt>
      <trkpt lat="45.07036" lon="3.042">
        <ele>859</ele>
        <time>2024-05-11T13:07:57Z</time>
      </trkpt>
      <trkpt lat="45.07028" lon="3.04194">
        <ele>858</ele>
        <time>2024-05-11T13:07:59Z</time>
      </trkpt>
      <trkpt lat="45.07016" lon="3.04172">
        <ele>859</ele>
        <time>2024-05-11T13:08:03Z</time>
      </trkpt>
      <trkpt lat="45.0701" lon="3.04177">
        <ele>858</ele>
        <time>2024-05-11T13:08:05Z</time>
      </trkpt>
      <trkpt lat="45.06997" lon="3.04179">
        <ele>857</ele>
        <time>2024-05-11T13:08:08Z</time>
      </trkpt>
      <trkpt lat="45.06967" lon="3.04177">
        <ele>856</ele>
        <time>2024-05-11T13:08:15Z</time>
      </trkpt>
      <trkpt lat="45.06955" lon="3.0418">
        <ele>856</ele>
        <time>2024-05-11T13:08:18Z</time>
      </trkpt>
      <trkpt lat="45.06926" lon="3.04176">
        <ele>856</ele>
        <time>2024-05-11T13:08:25Z</time>
      </trkpt>
      <trkpt lat="45.0695" lon="3.0418">
        <ele>856</ele>
        <time>2024-05-11T13:08:30Z</time>
      </trkpt>
      <trkpt lat="45.0698" lon="3.04177">
        <ele>857</ele>
        <time>2024-05-11T13:08:37Z</time>
      </trkpt>
      <trkpt lat="45.06994" lon="3.04179">
        <ele>857</ele>
        <time>2024-05-11T13:08:41Z</time>
      </trkpt>
      <trkpt lat="45.07011" lon="3.04178">
        <ele>858</ele>
        <time>2024-05-11T13:08:45Z</time>
      </trkpt>
      <trkpt lat="45.07014" lon="3.04175">
        <ele>859</ele>
        <time>2024-05-11T13:08:45Z</time>
      </trkpt>
      <trkpt lat="45.0702" lon="3.04177">
        <ele>859</ele>
        <time>2024-05-11T13:08:47Z</time>
      </trkpt>
      <trkpt lat="45.07023" lon="3.04192">
        <ele>858</ele>
        <time>2024-05-11T13:08:49Z</time>
      </trkpt>
      <trkpt lat="45.07033" lon="3.04201">
        <ele>858</ele>
        <time>2024-05-11T13:08:52Z</time>
      </trkpt>
      <trkpt lat="45.07046" lon="3.04204">
        <ele>859</ele>
        <time>2024-05-11T13:08:55Z</time>
      </trkpt>
      <trkpt lat="45.07062" lon="3.04197">
        <ele>862</ele>
        <time>2024-05-11T13:08:59Z</time>
      </trkpt>
      <trkpt lat="45.07109" lon="3.04146">
        <ele>869</ele>
        <time>2024-05-11T13:09:13Z</time>
      </trkpt>
    </trkseg>
  </trk>
</gpx>